[[{"header":{"parameterUnit":"m.s-1","parameterCategory":1,"la1":30.6,"la2":29.2853,"lo1":-89.7004,"lo2":-87.6739,"dy":0.0162,"dx":0.0183,"nx":112,"ny":82,"refTime":"2024-06-25T18:00:00:Z","depth":0,"parameterNumber":2,"parameterNumberName":"U-component_of_WINDS"},"data":[0.0,0.0,0.0,0.0,0.0,0.0,0.0,0.0,0.0,0.0,0.0,0.0,0.0,0.0,0.0,0.0,0.0,0.0,0.0,0.0,0.0,0.0,0.0,0.0,0.0,0.0,0.0,0.0,0.0,0.0,0.0,0.0,0.0,0.0,0.0,0.0,0.0,0.0,0.0,0.0,0.0,0.0,0.0,0.0,0.0,0.0,0.0,0.0,0.0,0.0,0.0,0.0,0.0,0.0,0.0,0.0,0.0,0.0,0.0,0.0,0.0,0.0,0.0,0.0,0.0,0.0,0.0,0.0,0.0,0.0,0.0,0.0,0.0,0.0,0.0,0.0,0.0,0.0,0.0,0.0,0.0,0.0,0.0,0.0,0.0,0.0,0.0,0.0,0.0,0.0,0.0,-0.6704,-0.7317,-0.7634,-0.7634,-0.6919,-0.6214,-0.5755,0.0,0.0,0.0,0.0,0.0,0.0,0.0,0.0,0.0,0.0,0.0,0.0,0.0,0.0,0.0,0.0,0.0,0.0,0.0,0.0,0.0,0.0,0.0,0.0,0.0,0.0,0.0,0.0,0.0,0.0,0.0,0.0,0.0,0.0,0.0,0.0,0.0,0.0,0.0,0.0,0.0,0.0,0.0,0.0,0.0,0.0,0.0,0.0,0.0,0.0,0.0,0.0,0.0,0.0,0.0,0.0,0.0,0.0,0.0,0.0,0.0,0.0,0.0,0.0,0.0,0.0,0.0,0.0,0.0,0.0,0.0,0.0,0.0,0.0,0.0,0.0,0.0,0.0,0.0,0.0,0.0,0.0,0.0,0.0,0.0,0.0,0.0,0.0,0.0,0.0,0.0,0.0,0.0,0.0,0.0,0.0,0.0,0.0,0.0,0.0,0.0,0.0,0.0,0.0,-0.6152,-0.7204,-0.756,-0.778,-0.778,-0.7168,-0.6468,-0.5904,0.0,0.0,0.0,0.0,0.0,0.0,0.0,0.0,0.0,0.0,0.0,0.0,0.0,0.0,0.0,0.0,0.0,0.0,0.0,0.0,0.0,0.0,0.0,0.0,0.0,0.0,0.0,0.0,0.0,0.0,0.0,0.0,0.0,0.0,0.0,0.0,0.0,0.0,0.0,0.0,0.0,0.0,0.0,0.0,0.0,0.0,0.0,0.0,0.0,0.0,0.0,0.0,0.0,0.0,0.0,0.0,0.0,0.0,0.0,0.0,0.0,0.0,0.0,0.0,0.0,0.0,0.0,0.0,0.0,0.0,0.0,0.0,0.0,0.0,0.0,0.0,0.0,0.0,0.0,0.0,0.0,0.0,0.0,0.0,0.0,0.0,0.0,0.0,0.0,0.0,0.0,0.0,0.0,0.0,0.0,0.0,0.0,0.0,0.0,0.0,0.0,0.0,0.0,-0.6186,-0.6785,-0.7417,-0.7756,-0.7771,-0.7515,-0.6992,-0.6288,-0.5497,-0.4444,0.0,0.0,0.0,0.0,0.0,0.0,0.0,0.0,0.0,0.0,0.0,0.0,0.0,0.0,0.0,0.0,0.0,0.0,0.0,0.0,0.0,0.0,0.0,0.0,0.0,0.0,0.0,0.0,0.0,0.0,0.0,0.0,0.0,0.0,0.0,0.0,0.0,0.0,0.0,0.0,0.0,0.0,0.0,0.0,0.0,0.0,0.0,0.0,0.0,0.0,0.0,0.0,0.0,0.0,0.0,0.0,0.0,0.0,0.0,0.0,0.0,0.0,0.0,0.0,0.0,0.0,0.0,0.0,0.0,0.0,0.0,0.0,0.0,0.0,0.0,0.0,0.0,0.0,0.0,0.0,0.0,0.0,0.0,0.0,0.0,0.0,0.0,0.0,0.0,0.0,0.0,0.0,0.0,0.0,0.0,0.0,0.0,0.0,0.0,0.0,0.0,0.0,-0.6586,-0.7168,-0.747,-0.7764,-0.7736,-0.7187,-0.6697,-0.599,-0.5064,-0.4059,0.0,0.0,0.0,0.0,0.0,0.0,0.0,0.0,0.0,0.0,0.0,0.0,0.0,0.0,0.0,0.0,0.0,0.0,0.0,0.0,0.0,0.0,0.0,0.0,0.0,0.0,0.0,0.0,0.0,0.0,0.0,0.0,0.0,0.0,0.0,0.0,0.0,0.0,0.0,0.0,0.0,0.0,0.0,0.0,0.0,0.0,0.0,0.0,0.0,0.0,0.0,0.0,0.0,0.0,0.0,0.0,0.0,0.0,0.0,0.0,0.0,0.0,0.0,0.0,0.0,0.0,0.0,0.0,0.0,0.0,0.0,0.0,0.0,0.0,0.0,0.0,0.0,0.0,0.0,0.0,0.0,0.0,0.0,0.0,0.0,0.0,0.0,0.0,0.0,0.0,0.0,0.0,0.0,0.0,0.0,0.0,0.0,0.0,0.0,0.0,0.0,0.0,-0.6586,-0.7165,-0.7182,-0.7472,-0.7483,-0.713,-0.6291,-0.5684,-0.5182,-0.3958,0.0,0.0,0.0,0.0,0.0,0.0,0.0,0.0,0.0,0.0,0.0,0.0,0.0,0.0,0.0,0.0,0.0,0.0,0.0,0.0,0.0,0.0,0.0,0.0,0.0,0.0,0.0,0.0,0.0,0.0,0.0,0.0,0.0,0.0,0.0,0.0,0.0,0.0,0.0,0.0,0.0,0.0,0.0,0.0,0.0,0.0,0.0,0.0,0.0,0.0,0.0,0.0,0.0,0.0,0.0,0.0,0.0,0.0,0.0,0.0,0.0,0.0,0.0,0.0,0.0,0.0,0.0,0.0,0.0,0.0,0.0,0.0,0.0,0.0,0.0,0.0,0.0,0.0,0.0,0.0,0.0,0.0,0.0,0.0,0.0,0.0,0.0,0.0,0.0,0.0,0.0,0.0,0.0,0.0,0.0,0.0,0.0,0.0,0.0,0.0,0.0,0.0,-0.6539,-0.6934,0.0,-0.7229,-0.6958,-0.655,-0.5796,-0.5029,-0.4223,0.0,0.0,0.0,0.0,0.0,0.0,0.0,0.0,0.0,0.0,0.0,0.0,0.0,0.0,0.0,0.0,0.0,0.0,0.0,0.0,0.0,0.0,0.0,0.0,0.0,0.0,0.0,0.0,0.0,0.0,0.0,0.0,0.0,0.0,0.0,0.0,0.0,0.0,0.0,0.0,0.0,0.0,0.0,0.0,0.0,0.0,0.0,0.0,0.0,0.0,0.0,0.0,0.0,0.0,0.0,0.0,0.0,0.0,0.0,0.0,0.0,0.0,0.0,0.0,0.0,0.0,0.0,0.0,0.0,0.0,0.0,0.0,0.0,0.0,0.0,0.0,0.0,0.0,0.0,0.0,0.0,0.0,0.0,0.0,0.0,0.0,0.0,0.0,0.0,0.0,0.0,0.0,0.0,0.0,0.0,0.0,0.0,0.0,0.0,0.0,0.0,0.0,-0.5914,-0.6357,-0.6681,0.0,-0.6767,-0.6344,-0.5818,-0.5132,-0.4404,-0.3526,0.0,0.0,0.0,0.0,0.0,0.0,0.0,0.0,0.0,0.0,0.0,0.0,0.0,0.0,0.0,0.0,0.0,0.0,0.0,0.0,0.0,0.0,0.0,0.0,0.0,0.0,0.0,0.0,0.0,0.0,0.0,0.0,0.0,0.0,0.0,0.0,0.0,0.0,0.0,0.0,0.0,0.0,0.0,0.0,0.0,0.0,0.0,0.0,0.0,0.0,0.0,0.0,0.0,0.0,0.0,0.0,0.0,0.0,0.0,0.0,0.0,0.0,0.0,0.0,0.0,0.0,0.0,0.0,0.0,0.0,0.0,0.0,0.0,0.0,0.0,0.0,0.0,0.0,0.0,0.0,0.0,0.0,0.0,0.0,0.0,0.0,0.0,0.0,0.0,0.0,0.0,0.0,0.0,0.0,0.0,0.0,0.0,0.0,0.0,0.0,0.0,0.0,-0.546,-0.6105,-0.6318,-0.623,-0.6077,-0.5753,-0.5056,-0.44,-0.3813,0.0,0.0,0.0,0.0,0.0,0.0,0.0,0.0,0.0,0.0,0.0,0.0,0.0,0.0,0.0,0.0,0.0,0.0,0.0,0.0,0.0,0.0,0.0,0.0,0.0,0.0,0.0,0.0,0.0,0.0,0.0,0.0,0.0,0.0,0.0,0.0,0.0,0.0,0.0,0.0,0.0,0.0,0.0,0.0,0.0,0.0,0.0,0.0,0.0,0.0,0.0,0.0,0.0,0.0,0.0,0.0,0.0,0.0,0.0,0.0,0.0,0.0,0.0,0.0,0.0,0.0,0.0,0.0,0.0,0.0,0.0,0.0,0.0,0.0,0.0,0.0,0.0,0.0,0.0,0.0,0.0,0.0,0.0,0.0,0.0,0.0,0.0,0.0,0.0,0.0,0.0,0.0,0.0,0.0,0.0,0.0,0.0,0.0,0.0,0.0,0.0,0.0,0.0,-0.5636,-0.5866,-0.5988,-0.6057,-0.552,-0.4961,-0.4488,-0.3853,-0.333,-0.2943,0.0,0.0,0.0,0.0,0.0,0.0,0.0,0.0,0.0,0.0,0.0,0.0,0.0,0.0,0.0,0.0,0.0,0.0,0.0,0.0,0.0,0.0,0.0,0.0,0.0,0.0,0.0,0.0,0.0,0.0,0.0,0.0,0.0,0.0,0.0,0.0,0.0,0.0,0.0,0.0,0.0,0.0,0.0,0.0,0.0,0.0,0.0,0.0,0.0,0.0,0.0,0.0,0.0,0.0,0.0,0.0,0.0,0.0,0.0,0.0,0.0,0.0,0.0,0.0,0.0,0.0,0.0,0.0,0.0,0.0,0.0,0.0,0.0,0.0,0.0,0.0,0.0,0.0,0.0,0.0,0.0,0.0,0.0,0.0,0.0,0.0,0.0,0.0,0.0,0.0,0.0,0.0,0.0,0.0,0.0,0.0,0.0,0.0,0.0,0.0,0.0,0.0,-0.5265,-0.5414,-0.5477,-0.5506,-0.5037,-0.4482,-0.3962,-0.3438,-0.3036,-0.2707,0.0,0.0,0.0,0.0,0.0,0.0,0.0,0.0,0.0,0.0,0.0,0.0,0.0,0.0,0.0,0.0,0.0,0.0,0.0,0.0,0.0,0.0,0.0,0.0,0.0,0.0,0.0,0.0,0.0,0.0,0.0,0.0,0.0,0.0,0.0,0.0,0.0,0.0,0.0,0.0,0.0,0.0,0.0,0.0,0.0,0.0,0.0,0.0,0.0,0.0,0.0,0.0,0.0,0.0,0.0,0.0,0.0,0.0,0.0,0.0,0.0,0.0,0.0,0.0,0.0,0.0,0.0,0.0,0.0,0.0,0.0,0.0,0.0,0.0,0.0,0.0,0.0,0.0,0.0,0.0,0.0,0.0,0.0,0.0,0.0,0.0,0.0,0.0,0.0,0.0,0.0,0.0,0.0,0.0,0.0,0.0,0.0,0.0,0.0,0.0,0.0,0.0,-0.4554,-0.4812,-0.4922,-0.4706,-0.4437,-0.4105,-0.3538,-0.3218,-0.2837,-0.2553,0.0,0.0,0.0,0.0,0.0,0.0,0.0,0.0,0.0,0.0,0.0,0.0,0.0,0.0,0.0,0.0,0.0,0.0,0.0,0.0,0.0,0.0,0.0,0.0,0.0,0.0,0.0,0.0,0.0,0.0,0.0,0.0,0.0,0.0,0.0,0.0,0.0,0.0,0.0,0.0,0.0,0.0,0.0,0.0,0.0,0.0,0.0,0.0,0.0,0.0,0.0,0.0,0.0,0.0,0.0,0.0,0.0,0.0,0.0,0.0,-0.2065,0.0,0.0,0.0,0.0,0.0,0.0,0.0,0.0,0.0,0.0,0.0,0.0,0.0,0.0,0.0,0.0,0.0,0.0,0.0,0.0,0.0,0.0,0.0,0.0,0.0,0.0,0.0,0.0,0.0,0.0,0.0,0.0,0.0,0.0,0.0,0.0,0.0,0.0,0.0,0.0,0.0,-0.3986,-0.4284,-0.4328,-0.4214,-0.3935,-0.3607,-0.3243,-0.3029,-0.2891,-0.2734,-0.241,0.0,0.0,0.0,0.0,0.0,0.0,0.0,0.0,0.0,0.0,0.0,0.0,0.0,0.0,0.0,0.0,0.0,0.0,0.0,0.0,0.0,0.0,0.0,0.0,0.0,0.0,0.0,0.0,0.0,0.0,0.0,0.0,0.0,0.0,0.0,0.0,0.0,0.0,0.0,0.0,0.0,0.0,0.0,0.0,0.0,0.0,0.0,0.0,0.0,0.0,0.0,0.0,0.0,0.0,0.0,0.0,0.0,0.0,0.0,0.0,-0.2136,0.0,0.0,0.0,0.0,0.0,0.0,0.0,0.0,0.0,0.0,0.0,0.0,0.0,0.0,0.0,0.0,0.0,0.0,0.0,0.0,0.0,0.0,0.0,0.0,0.0,0.0,0.0,0.0,0.0,0.0,0.0,0.0,0.0,0.0,0.0,0.0,0.0,0.0,0.0,0.0,-0.3683,-0.3855,-0.3966,-0.3819,-0.3635,-0.3521,-0.3185,-0.3098,-0.2984,-0.2837,-0.2595,0.0,0.0,0.0,0.0,0.0,0.0,0.0,0.0,0.0,0.0,0.0,0.0,0.0,0.0,0.0,0.0,0.0,0.0,0.0,0.0,0.0,0.0,0.0,0.0,0.0,0.0,0.0,0.0,0.0,0.0,0.0,0.0,0.0,0.0,0.0,0.0,0.0,0.0,0.0,0.0,0.0,0.0,0.0,0.0,0.0,0.0,0.0,0.0,0.0,0.0,0.0,0.0,0.0,-0.2055,-0.2095,-0.2171,-0.1892,-0.1804,-0.1804,-0.213,-0.2196,-0.1959,0.0,0.0,0.0,0.0,0.0,0.0,0.0,0.0,0.0,0.0,0.0,0.0,0.0,0.0,0.0,0.0,0.0,0.0,0.0,0.0,0.0,0.0,0.0,0.0,0.0,-0.291,-0.3042,0.0,0.0,0.0,0.0,0.0,0.0,0.0,0.0,0.0,0.0,0.0,0.0,-0.3386,-0.3607,-0.3595,-0.3522,-0.3534,-0.3433,-0.323,-0.3174,-0.3076,-0.2931,-0.2797,-0.2608,0.0,0.0,0.0,0.0,0.0,0.0,0.0,0.0,0.0,0.0,0.0,0.0,0.0,0.0,0.0,0.0,0.0,0.0,0.0,0.0,0.0,0.0,0.0,0.0,0.0,0.0,0.0,0.0,0.0,0.0,0.0,0.0,-0.15,-0.1268,0.0,0.0,0.0,0.0,0.0,0.0,0.0,0.0,0.0,0.0,0.0,0.0,0.0,-0.2371,-0.2162,-0.2209,-0.207,-0.1828,-0.172,-0.1752,-0.181,-0.1248,-0.0922,-0.0947,-0.1636,0.0,-0.2274,-0.2228,0.0,0.0,0.0,0.0,0.0,0.0,0.0,0.0,0.0,0.0,0.0,0.0,0.0,0.0,0.0,0.0,0.0,0.0,0.0,0.0,0.0,0.0,-0.2975,-0.3135,-0.3346,-0.3412,0.0,-0.3029,-0.2744,-0.2585,-0.245,0.0,0.0,0.0,0.0,0.0,0.0,0.0,-0.2994,-0.3143,-0.3252,-0.3224,-0.323,-0.323,-0.323,-0.3174,-0.3129,-0.3106,-0.2944,-0.2808,-0.2715,-0.2493,0.0,0.0,0.0,0.0,0.0,0.0,0.0,0.0,0.0,0.0,0.0,0.0,0.0,0.0,0.0,0.0,0.0,0.0,0.0,0.0,0.0,0.0,0.0,0.0,0.0,0.0,0.0,0.0,0.0,-0.1242,-0.1525,-0.1419,-0.1491,-0.1437,0.0,0.0,0.0,0.0,0.0,0.0,0.0,0.0,0.0,-0.2782,-0.2849,-0.2863,-0.2717,-0.2569,-0.2416,-0.2257,-0.202,-0.1924,-0.1845,-0.1598,-0.1239,-0.0878,-0.1254,-0.17,-0.2179,-0.2304,-0.2087,-0.1682,0.0,0.0,0.0,0.0,-0.2015,-0.2319,-0.2553,-0.2684,0.0,-0.2713,0.0,0.0,0.0,0.0,0.0,0.0,0.0,0.0,0.0,0.0,0.0,-0.3463,-0.3563,-0.3643,-0.3619,-0.3462,-0.3243,0.0,-0.2779,-0.2658,-0.2606,0.0,0.0,0.0,0.0,0.0,-0.3038,-0.3166,-0.3266,-0.3326,-0.3301,-0.3282,-0.3282,-0.3226,-0.3176,-0.3142,-0.3067,-0.298,-0.2886,-0.2715,-0.254,0.0,0.0,0.0,0.0,0.0,0.0,0.0,0.0,0.0,0.0,0.0,0.0,0.0,0.0,0.0,0.0,0.0,0.0,0.0,0.0,0.0,0.0,0.0,0.0,0.0,0.0,0.0,0.0,-0.1451,-0.1722,-0.1726,-0.1789,-0.1799,0.0,0.0,0.0,0.0,0.0,0.0,-0.2532,-0.2683,-0.2891,-0.2944,-0.3137,-0.3141,-0.2944,-0.2905,-0.2731,-0.2411,-0.2157,-0.2048,-0.2078,-0.2078,-0.1561,-0.0914,-0.1174,-0.1811,-0.2415,-0.2291,-0.2068,-0.1761,-0.1501,-0.1574,-0.1859,-0.2179,-0.2517,-0.2765,-0.3029,-0.3182,-0.3319,-0.337,0.0,-0.3209,-0.2893,0.0,0.0,0.0,0.0,-0.3027,-0.3181,-0.3344,-0.3469,-0.3702,-0.3783,-0.3853,-0.3822,-0.3781,-0.365,0.0,-0.311,-0.2984,-0.2967,0.0,0.0,0.0,0.0,-0.3067,-0.3173,-0.3279,-0.3362,-0.3407,-0.3372,-0.3338,-0.3323,-0.3281,-0.3228,-0.3166,-0.3162,-0.3115,-0.301,-0.2891,-0.2749,-0.2583,0.0,0.0,0.0,0.0,0.0,0.0,0.0,0.0,0.0,0.0,0.0,0.0,0.0,0.0,0.0,0.0,0.0,0.0,0.0,0.0,0.0,0.0,0.0,0.0,0.0,0.0,0.0,0.0,0.0,-0.2314,-0.2337,0.0,0.0,0.0,0.0,-0.2385,-0.2713,-0.2948,-0.3061,-0.3442,-0.3449,-0.3155,-0.343,-0.3139,-0.2512,-0.268,-0.2574,-0.2062,-0.2064,-0.208,-0.2239,-0.2239,-0.1725,-0.1075,-0.1881,-0.2533,-0.3151,-0.229,-0.1974,-0.18,-0.1437,-0.1778,-0.2342,-0.2613,-0.3107,-0.3476,-0.341,-0.3675,-0.3913,-0.3853,-0.3672,-0.3456,-0.3339,-0.3053,0.0,0.0,-0.3361,-0.3365,-0.3714,-0.3879,-0.4012,-0.4012,-0.4061,-0.4078,-0.3965,-0.3939,-0.3864,0.0,-0.3421,-0.3281,-0.3222,0.0,-0.3052,-0.3112,-0.3176,-0.324,-0.3304,-0.3368,-0.3409,-0.3413,-0.341,-0.3384,-0.3326,-0.3319,-0.329,-0.323,-0.3226,-0.3196,-0.3134,-0.3014,-0.2892,-0.2773,-0.2477,0.0,0.0,0.0,0.0,0.0,0.0,0.0,0.0,0.0,0.0,0.0,0.0,0.0,0.0,0.0,0.0,0.0,0.0,0.0,0.0,0.0,0.0,0.0,0.0,0.0,0.0,0.0,0.0,-0.2523,-0.2707,0.0,0.0,-0.2822,-0.2864,-0.2888,-0.3224,-0.3444,-0.3524,-0.3574,-0.3553,-0.3449,-0.3316,-0.2987,-0.2597,-0.2634,-0.2399,-0.1748,-0.1749,-0.1626,-0.1647,-0.2472,-0.2892,-0.2628,-0.3042,-0.3309,-0.3563,-0.3092,-0.2478,-0.2017,-0.189,-0.201,-0.2252,-0.3019,-0.3276,-0.328,-0.3676,-0.3936,-0.4053,-0.3992,-0.3914,-0.382,-0.3703,-0.3653,-0.3539,-0.3736,-0.3671,-0.3729,-0.3967,-0.4046,-0.4093,-0.4093,-0.4109,-0.4115,-0.4072,-0.4063,-0.4026,-0.3899,-0.37,-0.3544,-0.3522,-0.345,-0.3403,-0.3424,-0.348,-0.3526,-0.3548,-0.357,-0.3583,-0.3583,-0.3514,-0.3443,-0.3386,-0.3343,-0.3296,-0.3234,-0.323,-0.3221,-0.3199,-0.308,-0.2978,-0.2898,-0.264,-0.2436,0.0,0.0,0.0,0.0,0.0,0.0,0.0,0.0,0.0,0.0,0.0,0.0,0.0,0.0,0.0,0.0,0.0,0.0,0.0,0.0,0.0,0.0,0.0,0.0,0.0,0.0,-0.2528,-0.2935,-0.3037,-0.3189,-0.3179,-0.3305,-0.3362,-0.3386,-0.3615,-0.3824,-0.3886,-0.3645,-0.3459,-0.3332,-0.3164,-0.281,-0.2408,-0.2713,-0.2469,-0.1799,-0.2076,-0.2086,-0.1823,-0.3087,-0.3508,-0.3368,-0.3646,-0.3786,-0.3782,-0.3592,-0.3244,-0.2767,-0.2622,-0.2617,-0.2748,-0.3404,-0.3535,-0.3535,-0.4056,-0.4187,-0.4177,-0.4116,-0.4097,-0.4078,-0.398,-0.395,-0.3962,-0.4023,-0.404,-0.4063,-0.4161,-0.4187,-0.4187,-0.4187,-0.4187,-0.4181,-0.4161,-0.4157,-0.4138,-0.4078,-0.3905,-0.3763,-0.3744,-0.3688,-0.3649,-0.3649,-0.3683,-0.3709,-0.3709,-0.3709,-0.3702,-0.368,-0.3606,-0.3526,-0.3447,-0.3387,-0.3326,-0.3264,-0.3241,-0.323,-0.323,-0.3115,-0.3125,-0.2989,-0.2733,-0.2541,-0.2418,0.0,0.0,0.0,0.0,0.0,0.0,0.0,0.0,0.0,0.0,0.0,0.0,0.0,0.0,0.0,0.0,0.0,0.0,0.0,0.0,0.0,0.0,0.0,-0.2515,-0.2591,-0.2892,-0.3382,-0.3421,-0.347,-0.3587,-0.3707,-0.3803,-0.3864,-0.3976,-0.4065,-0.4125,-0.3794,-0.3561,-0.317,-0.2848,-0.2476,-0.2202,-0.2786,-0.2805,-0.2247,-0.3087,-0.3367,-0.3088,-0.365,-0.365,-0.3369,-0.3369,-0.365,-0.3928,-0.3874,-0.399,-0.3847,-0.3383,-0.3499,-0.377,-0.3768,-0.4038,-0.4308,-0.4308,-0.4308,-0.4297,-0.4239,-0.4219,-0.4209,-0.415,-0.4131,-0.4143,-0.4203,-0.4219,-0.4233,-0.4292,-0.4308,-0.4308,-0.4308,-0.4308,-0.4292,-0.4232,-0.4219,-0.4202,-0.414,-0.4037,-0.3939,-0.3876,-0.3815,-0.3775,-0.3775,-0.3775,0.0,-0.3775,-0.3774,-0.3749,-0.3691,-0.368,-0.363,-0.351,-0.3447,-0.3388,-0.3326,-0.3266,-0.3233,-0.323,-0.3116,-0.3144,-0.3141,-0.276,-0.2552,-0.2431,0.0,0.0,0.0,0.0,0.0,0.0,0.0,0.0,0.0,0.0,0.0,0.0,0.0,0.0,0.0,0.0,0.0,0.0,0.0,0.0,0.0,0.0,-0.2847,-0.288,-0.2984,-0.3198,-0.3514,-0.3617,-0.3718,-0.3839,-0.3918,-0.3988,-0.4048,-0.4124,-0.4174,-0.4191,-0.3584,-0.3359,-0.3259,-0.2601,-0.2486,-0.2648,-0.2798,-0.2958,-0.3131,-0.3414,-0.3431,-0.3463,-0.3893,-0.4037,-0.3893,-0.4183,-0.4327,-0.4467,-0.4407,-0.4383,-0.4369,-0.3818,-0.352,-0.341,-0.3646,-0.4038,-0.4308,-0.4308,-0.4308,-0.4305,-0.4288,-0.4282,-0.4279,-0.4263,-0.4258,-0.4262,-0.4278,-0.4282,-0.4286,-0.4304,-0.4308,-0.4308,-0.4308,-0.4308,-0.4303,-0.4286,-0.4282,-0.4264,-0.4203,-0.4165,-0.411,-0.4004,-0.3939,-0.3901,-0.3901,-0.3901,0.0,-0.3901,-0.3862,-0.3828,-0.3812,-0.373,-0.3647,-0.357,-0.3507,-0.3429,-0.3327,-0.3307,-0.3277,-0.3233,-0.3155,-0.3074,-0.2985,-0.2902,-0.2801,0.0,0.0,0.0,0.0,0.0,0.0,0.0,0.0,0.0,0.0,0.0,0.0,0.0,0.0,0.0,0.0,0.0,0.0,0.0,0.0,0.0,0.0,-0.3008,-0.3174,-0.3249,-0.336,-0.3508,-0.3715,-0.3803,-0.3892,-0.4012,-0.4076,-0.4125,-0.4161,-0.4219,-0.4266,-0.4292,-0.3785,-0.3551,-0.3601,-0.3066,-0.2806,-0.3109,-0.3268,-0.3434,-0.3461,-0.3893,-0.392,-0.3821,-0.426,-0.442,0.0,-0.4592,-0.4726,-0.4698,-0.4636,-0.4597,0.0,0.0,0.0,0.0,0.0,-0.4224,-0.4377,-0.4353,-0.4345,-0.4341,-0.4316,-0.4308,-0.4308,-0.4308,-0.4308,-0.4308,-0.4308,-0.4308,-0.4308,-0.4308,-0.4308,-0.4308,-0.4308,-0.4308,-0.4308,-0.4308,-0.4308,-0.4297,-0.4262,-0.4234,0.0,-0.4123,-0.4041,-0.3985,-0.3985,-0.3966,-0.3951,-0.3951,-0.392,-0.3888,-0.3862,-0.3797,-0.3719,-0.3632,-0.357,0.0,0.0,0.0,-0.3283,-0.3196,-0.3158,0.0,0.0,0.0,0.0,0.0,0.0,0.0,0.0,-0.2677,-0.2709,0.0,0.0,0.0,0.0,0.0,0.0,0.0,0.0,0.0,0.0,0.0,0.0,0.0,0.0,0.0,0.0,-0.3327,-0.3504,-0.3684,-0.3662,-0.3709,-0.3925,-0.3969,-0.4022,-0.4125,-0.4191,-0.4228,-0.4228,-0.4283,-0.4341,-0.4395,0.0,0.0,0.0,0.0,-0.3578,-0.3583,-0.3919,-0.3944,-0.3654,-0.4389,-0.4566,-0.4317,-0.4616,-0.4794,-0.4846,-0.4846,-0.4815,-0.4762,-0.4707,-0.4649,-0.4587,-0.4519,-0.4458,-0.4409,-0.4416,-0.4446,-0.4476,-0.4425,0.0,0.0,-0.4335,-0.4313,-0.4308,-0.4308,-0.4308,-0.4308,-0.4308,-0.4308,-0.4308,-0.4308,-0.4308,-0.4308,-0.4308,-0.4308,-0.4308,-0.4308,-0.4308,-0.4308,-0.4308,-0.4264,-0.4228,-0.4228,-0.4125,-0.4042,-0.4036,-0.3992,-0.3958,-0.3951,-0.3951,-0.3929,-0.3876,0.0,0.0,-0.3699,-0.3632,-0.3568,-0.35,-0.3392,-0.3283,-0.3174,-0.317,-0.3146,-0.3091,-0.3143,-0.317,-0.317,-0.3225,-0.3251,-0.3245,-0.3026,-0.2981,0.0,0.0,0.0,0.0,0.0,0.0,0.0,0.0,0.0,0.0,0.0,0.0,0.0,0.0,0.0,-0.3376,-0.354,-0.3689,-0.3872,-0.3888,-0.3898,-0.3946,-0.4078,-0.4174,-0.4196,-0.4255,-0.429,-0.429,-0.4346,-0.4386,-0.4398,-0.4027,0.0,-0.3988,-0.3714,-0.3593,-0.392,-0.4117,-0.4292,-0.4591,0.0,0.0,-0.4676,-0.4828,-0.4834,-0.4846,-0.4846,-0.4839,-0.4827,-0.4816,-0.4774,-0.4709,-0.4598,-0.4519,-0.4471,-0.4522,-0.4515,-0.4481,-0.447,-0.4436,-0.4397,-0.4384,-0.4348,-0.4308,-0.4308,-0.4308,0.0,-0.4308,-0.4308,-0.4308,-0.4308,-0.4308,-0.4308,-0.4308,-0.4308,-0.4308,-0.4308,-0.4308,-0.4308,-0.4308,-0.4297,-0.429,-0.429,-0.4188,-0.4091,-0.4042,-0.4026,-0.4001,-0.3956,-0.3951,-0.3947,-0.3935,-0.389,-0.3831,-0.3758,-0.3696,-0.3615,-0.3503,-0.3433,-0.3384,-0.3361,-0.336,-0.3354,-0.3342,-0.3354,-0.336,-0.336,-0.3371,-0.3377,-0.3375,-0.3279,-0.3247,0.0,0.0,0.0,0.0,0.0,0.0,0.0,0.0,0.0,0.0,0.0,-0.2838,-0.3019,0.0,-0.3387,-0.3598,-0.3734,-0.3856,-0.3976,-0.4045,-0.4083,-0.4083,-0.4162,-0.4229,-0.4259,-0.4289,-0.432,-0.435,-0.4382,-0.4424,-0.4482,-0.4373,-0.4273,-0.433,-0.4215,-0.4241,-0.4415,-0.4471,-0.465,-0.4801,-0.4831,-0.4861,-0.4891,-0.4891,-0.4906,-0.4933,-0.4933,-0.4917,-0.4888,-0.4858,-0.4827,-0.4792,-0.47,-0.4627,-0.4574,-0.4574,-0.4574,-0.457,-0.4538,-0.451,-0.4481,-0.445,-0.4401,-0.4353,-0.4353,-0.4333,-0.4308,-0.4308,-0.4308,-0.4308,-0.4308,-0.4308,-0.4308,-0.4308,-0.4308,-0.4308,-0.4308,-0.4308,-0.4308,-0.4308,-0.4308,-0.4308,-0.4308,-0.4258,-0.4196,-0.4135,-0.4074,-0.4025,-0.3996,-0.3969,-0.3951,-0.3951,-0.3924,-0.3882,-0.3819,-0.373,-0.3639,-0.3548,-0.3486,-0.3441,-0.3414,-0.3413,-0.3413,-0.3413,-0.344,-0.3454,-0.3454,-0.3736,-0.3768,-0.3768,-0.4096,-0.4058,0.0,0.0,0.0,0.0,0.0,0.0,0.0,0.0,-0.2869,-0.2869,-0.309,-0.3308,-0.3392,-0.3536,-0.368,-0.3801,-0.3913,-0.4004,-0.4061,-0.4154,-0.4221,-0.4233,-0.4234,-0.4253,-0.4303,-0.4308,-0.4333,-0.4394,-0.4409,-0.4462,-0.4568,-0.4585,-0.4619,-0.468,-0.4729,-0.476,-0.4773,-0.4834,-0.4863,-0.4864,-0.4875,-0.4905,-0.4952,-0.4952,-0.4978,-0.5021,-0.5021,-0.4995,-0.4948,-0.4888,-0.4863,-0.4857,-0.4796,-0.4743,-0.4691,-0.4619,-0.4623,-0.4657,-0.4608,-0.4583,-0.4565,-0.4516,-0.4462,-0.4413,-0.4402,-0.4364,-0.4323,-0.4311,-0.4308,-0.4308,-0.4308,-0.4308,-0.4308,-0.4308,-0.4308,-0.4308,-0.4308,-0.4308,-0.4308,-0.4308,-0.4308,-0.4308,-0.4308,-0.4308,-0.4286,-0.4226,-0.4132,-0.4065,-0.4053,-0.4012,-0.398,-0.3969,-0.3966,-0.3939,-0.3867,-0.3759,-0.3674,-0.3625,-0.3576,-0.3529,-0.3484,-0.3481,-0.3481,-0.3481,-0.3526,-0.3549,-0.366,-0.399,-0.4274,-0.4389,-0.5042,-0.5002,-0.3238,-0.3429,-0.366,-0.3679,-0.3444,-0.3325,0.0,0.0,-0.318,-0.318,-0.3334,-0.3518,-0.3688,-0.3779,-0.3868,-0.3985,-0.4061,-0.4127,-0.4188,-0.4209,-0.4237,-0.429,-0.4297,-0.43,-0.4307,-0.4308,-0.4333,-0.4394,-0.4444,-0.4503,-0.457,-0.4624,-0.4681,-0.4744,-0.4752,-0.4781,-0.4835,-0.4897,-0.4927,-0.4927,-0.4977,-0.5004,-0.5011,-0.5011,-0.5014,-0.5021,-0.5021,-0.5016,-0.5007,-0.495,-0.4927,-0.4921,-0.4858,-0.4831,-0.4812,-0.4696,-0.4658,-0.4664,-0.4657,-0.4619,-0.4572,-0.4565,-0.4522,-0.4463,-0.4414,-0.4394,-0.4376,-0.4323,-0.4308,-0.4308,-0.4308,-0.4308,-0.4308,-0.4308,-0.4308,-0.4308,-0.4308,-0.4308,-0.4308,-0.4308,-0.4308,-0.4308,-0.4308,-0.4308,-0.4286,-0.4226,-0.4204,-0.4177,-0.4123,-0.411,-0.4085,-0.4031,-0.4026,-0.398,-0.3869,-0.3798,-0.3756,-0.3749,-0.3743,-0.3736,-0.3729,-0.3729,-0.3729,-0.3729,-0.3736,-0.397,-0.4202,-0.4216,-0.4574,-0.5044,-0.5485,-0.5471,-0.4304,-0.462,0.0,0.0,-0.4549,-0.4257,-0.4171,-0.3937,-0.3665,-0.3811,-0.372,-0.3732,-0.3808,-0.3898,-0.3977,0.0,-0.4116,-0.4187,-0.4213,-0.4247,-0.4279,-0.4305,-0.4308,-0.4308,-0.4308,-0.4308,-0.4333,-0.4394,-0.4451,-0.451,-0.457,-0.4631,-0.4692,-0.4754,-0.4789,-0.4838,-0.4898,-0.4957,-0.4985,-0.4985,-0.501,-0.5021,-0.5021,-0.5021,-0.5021,-0.5021,-0.5021,-0.5021,-0.5019,-0.4996,-0.4985,-0.498,-0.4921,-0.4899,-0.4884,-0.4762,-0.4718,-0.4711,-0.4677,-0.4647,-0.4627,-0.4627,-0.4585,-0.453,-0.4507,-0.4452,-0.4392,-0.4368,-0.4335,-0.4308,-0.4308,-0.4308,-0.4308,-0.4308,-0.4308,-0.4308,-0.4308,-0.4308,-0.4308,-0.4308,-0.4308,-0.4308,-0.4308,-0.4308,-0.4298,-0.4273,-0.4239,-0.4207,-0.4181,-0.4147,-0.4102,-0.4041,-0.4006,-0.3966,-0.3917,-0.3857,-0.3823,-0.3823,-0.3789,-0.3886,-0.412,-0.412,-0.4237,-0.4356,-0.4356,-0.4472,-0.4821,-0.5104,-0.5483,-0.6193,-0.6841,-0.7141,-0.5409,0.0,0.0,-0.5779,-0.5571,-0.5309,-0.5056,-0.4564,-0.4249,-0.4183,-0.405,-0.389,-0.3906,-0.3977,0.0,-0.4079,-0.4159,-0.4222,-0.4239,-0.4279,-0.4308,-0.4308,-0.4308,-0.4308,-0.4308,-0.4308,-0.4333,-0.4394,-0.4451,-0.451,-0.457,-0.4631,-0.47,-0.4778,-0.4823,-0.4883,-0.4959,-0.5,-0.5021,-0.5021,-0.5021,-0.5021,-0.5021,-0.5021,-0.5021,-0.5021,-0.5021,-0.5021,-0.5021,-0.5021,-0.5021,-0.5016,-0.4976,-0.4959,-0.4946,-0.4824,-0.477,-0.4747,-0.4685,-0.4665,-0.4665,-0.4665,-0.4634,-0.4595,-0.4578,-0.4501,-0.4418,-0.4402,-0.4354,-0.4308,-0.4308,-0.4308,-0.4308,-0.4308,-0.4308,-0.4308,-0.4308,-0.4308,-0.4308,-0.4308,-0.4308,-0.4308,-0.4308,-0.4308,-0.4308,-0.4308,-0.427,-0.4241,-0.4241,-0.4188,-0.4134,-0.4089,-0.4019,-0.3974,-0.3974,-0.392,-0.3886,-0.3886,-0.3843,-0.3937,-0.4291,-0.441,-0.4647,-0.5006,-0.5006,-0.5242,-0.5477,-0.5929,-0.6458,-0.7185,-0.7881,-0.848,0.0,0.0,-0.6828,-0.6426,-0.6363,-0.6137,-0.5472,-0.5111,-0.4691,-0.4331,-0.4145,-0.3965,-0.4019,-0.4033,-0.4074,-0.4192,-0.4214,-0.4237,-0.4296,-0.4307,-0.4308,-0.4308,-0.4308,-0.4308,0.0,-0.4308,-0.4333,-0.4394,-0.4451,-0.451,-0.457,-0.4631,-0.4719,-0.4839,-0.4845,-0.4901,-0.5016,-0.5021,-0.5021,-0.5021,-0.5021,-0.5021,-0.5021,-0.5021,-0.5021,-0.5021,-0.5021,-0.5021,-0.5021,-0.5021,-0.5021,-0.5021,-0.5019,-0.5018,-0.5004,-0.4886,-0.4807,-0.4747,-0.4685,-0.4665,-0.4665,-0.4665,-0.4662,-0.465,-0.4591,-0.4529,-0.4469,-0.4414,-0.4354,-0.4308,-0.4308,-0.4308,-0.4308,-0.4308,-0.4308,-0.4308,-0.4308,-0.4308,-0.4308,-0.4308,-0.4308,-0.4308,-0.4308,-0.4308,-0.4308,-0.4308,-0.4307,-0.4305,-0.4305,-0.4252,-0.4213,-0.4211,-0.4104,-0.4031,-0.4031,-0.398,-0.3948,-0.3948,-0.3947,-0.4067,-0.4432,-0.4676,-0.5042,-0.5414,-0.5655,-0.6023,-0.6394,-0.6864,-0.7416,-0.8046,-0.8551,-0.9118,0.0,0.0,-0.7539,-0.7703,-0.7422,-0.6953,-0.6804,-0.6091,-0.5335,-0.5215,-0.4765,-0.4432,-0.4454,-0.4536,-0.4488,-0.4409,-0.4397,-0.4488,-0.4244,-0.4282,-0.4308,-0.4308,-0.4308,0.0,0.0,0.0,0.0,-0.4337,-0.4428,-0.4492,-0.4512,-0.4609,-0.4719,-0.4842,-0.4846,-0.4902,-0.5019,-0.5021,-0.5021,-0.5021,-0.5021,-0.5021,-0.5021,-0.5021,-0.5021,-0.5021,-0.5021,-0.5021,-0.5021,-0.5021,-0.5021,-0.5021,-0.5021,-0.5021,-0.5007,-0.489,-0.4833,-0.4801,-0.4699,-0.4665,-0.4665,-0.4665,-0.4665,-0.4661,-0.464,-0.4591,-0.453,-0.4471,-0.4413,-0.4358,-0.4318,-0.4308,-0.4308,-0.4308,-0.4308,-0.4308,-0.4308,-0.4308,-0.4308,-0.4308,-0.4308,-0.4308,-0.4308,-0.4308,-0.4308,-0.4308,-0.4308,-0.4308,-0.4308,-0.4255,-0.4217,-0.4217,-0.4143,-0.4094,-0.4094,-0.404,-0.4007,-0.4007,-0.4093,-0.4439,-0.5053,-0.5421,-0.5912,-0.6771,-0.6893,-0.7173,-0.7865,-0.803,-0.8466,-0.9184,-0.945,-0.9774,-0.7727,-0.7958,-0.8249,-0.8417,-0.8179,-0.7766,-0.75,-0.6815,-0.5983,-0.5718,-0.5247,-0.489,-0.4863,-0.4965,-0.4948,-0.4759,-0.4805,-0.4947,-0.4604,-0.4668,-0.471,-0.471,-0.4575,-0.444,0.0,0.0,0.0,-0.4308,-0.4416,-0.4482,-0.4482,-0.4619,-0.4743,-0.4842,-0.4867,-0.4924,-0.5021,-0.5021,-0.5021,-0.5021,-0.5021,-0.5021,-0.5021,-0.5021,-0.5021,-0.5021,-0.5021,-0.5021,-0.5021,-0.5021,-0.5021,-0.5021,-0.5021,-0.5008,-0.4978,-0.4882,-0.4831,-0.4798,-0.4699,-0.4665,-0.4665,-0.4665,-0.4665,-0.4665,-0.4665,-0.4621,-0.4561,-0.45,-0.4442,-0.4384,-0.4323,-0.4308,-0.4308,-0.4308,-0.4308,-0.4308,-0.4308,-0.4308,-0.4308,-0.4308,-0.4308,-0.4308,-0.4308,-0.4308,-0.4308,-0.4308,-0.4308,-0.4308,-0.4308,-0.4273,-0.4248,-0.4248,-0.4194,-0.4158,-0.4158,-0.4232,-0.4195,-0.4195,-0.4662,-0.5135,-0.5634,-0.6226,-0.6843,-0.7754,-0.7962,-0.8245,-0.8869,-0.9043,-0.9364,-0.9838,-1.0114,-1.0444,-0.8038,-0.8503,-0.883,-0.8618,-0.8713,-0.8681,-0.7735,-0.7259,-0.6869,-0.6073,-0.5705,-0.5447,0.0,0.0,-0.543,-0.5249,-0.5425,-0.547,-0.524,-0.533,-0.5381,0.0,0.0,0.0,0.0,0.0,0.0,-0.4308,0.0,-0.4482,-0.4482,-0.4655,-0.4783,-0.4843,-0.4905,-0.4963,-0.5021,-0.5021,-0.5021,-0.5021,-0.5021,-0.5021,-0.5021,-0.5021,-0.5021,-0.5021,-0.5021,-0.5021,-0.5021,-0.5021,-0.5021,-0.5021,-0.5021,-0.4986,-0.4929,-0.4868,-0.4808,-0.4747,-0.4685,-0.4665,-0.4665,-0.4665,-0.4665,-0.4665,-0.4665,-0.4624,-0.4565,-0.4504,-0.4446,-0.4388,-0.4327,-0.4309,-0.4308,-0.4308,-0.4308,-0.4308,-0.4308,-0.4308,-0.4308,-0.4308,-0.4308,-0.4308,-0.4308,-0.4308,-0.4308,-0.4308,-0.4308,-0.4308,-0.4308,-0.4308,-0.4308,-0.4308,-0.4256,-0.4221,-0.4221,-0.4558,-0.4649,-0.4778,-0.5417,-0.5927,-0.6308,-0.7105,-0.7859,-0.8361,-0.8884,-0.9258,-0.9388,-0.9777,-0.998,-1.0117,-1.0521,-1.0986,-0.8577,-0.8821,-0.8991,-0.9097,-0.8977,-0.8746,-0.8304,-0.7733,-0.7163,-0.6744,-0.631,-0.6034,-0.5805,0.0,0.0,-0.5673,-0.586,0.0,-0.5933,-0.5822,0.0,0.0,0.0,-0.4839,-0.4839,-0.444,0.0,0.0,-0.4416,-0.4482,-0.4482,-0.4655,-0.4783,-0.4843,-0.4905,-0.4963,-0.5021,-0.5021,-0.5021,-0.5021,-0.5021,-0.5021,-0.5021,-0.5021,-0.5021,-0.5021,-0.5021,-0.5021,-0.5021,-0.5021,-0.5021,-0.5021,-0.5021,-0.4986,-0.4929,-0.4868,-0.4808,-0.4747,-0.4685,-0.4665,-0.4665,-0.4665,-0.4665,-0.4665,-0.4665,-0.4653,-0.4628,-0.4567,-0.4507,-0.4447,-0.439,-0.4342,-0.4308,-0.4308,-0.4308,-0.4308,-0.4308,-0.4308,-0.4308,-0.4308,-0.4308,-0.4308,-0.4308,-0.4308,-0.4308,-0.4308,-0.4308,-0.4308,-0.4308,-0.4308,-0.4308,-0.4308,-0.4293,-0.4285,-0.4285,-0.4626,-0.4851,-0.5109,-0.5702,-0.6436,-0.7333,-0.7819,-0.8583,-0.9379,-0.9599,-0.9777,-1.0177,-1.0344,-1.0551,-1.0923,-1.0965,-1.138,-0.8845,-0.9035,-0.9171,-0.934,-0.9171,-0.8788,-0.8449,-0.7871,-0.7297,-0.6936,-0.658,0.0,-0.6203,0.0,0.0,0.0,0.0,0.0,-0.6908,-0.6692,-0.6537,0.0,-0.5676,0.0,-0.5158,-0.464,-0.4384,0.0,-0.4446,-0.4482,-0.4482,-0.4681,-0.4811,-0.4845,-0.4929,-0.4988,-0.5021,-0.5021,-0.5021,-0.5021,-0.5021,-0.5021,-0.5021,-0.5021,-0.5021,-0.5021,0.0,-0.5021,-0.5021,-0.5021,-0.5021,-0.5021,-0.5021,-0.497,-0.4892,-0.4858,-0.479,-0.471,-0.4676,-0.4665,-0.4665,-0.4665,-0.4665,-0.4665,-0.4665,-0.4665,-0.4651,-0.4591,-0.4549,-0.4503,-0.442,-0.4373,-0.4341,-0.4313,-0.4308,-0.4308,-0.4308,-0.4308,-0.4308,-0.4308,-0.4308,-0.4308,-0.4308,-0.4308,-0.4308,-0.4308,-0.4308,-0.4308,-0.4308,-0.4308,-0.4308,-0.4308,-0.4308,-0.4307,-0.444,-0.4942,-0.545,-0.5848,-0.6721,-0.7474,-0.8125,-0.8725,-0.9371,-0.9948,-1.0012,-1.031,-1.0592,-1.0723,-1.0899,-1.1247,-1.1512,-1.2045,-0.8981,-0.9171,-0.9357,-0.9374,-0.9157,-0.8773,-0.835,-0.7869,-0.7375,-0.6889,0.0,-0.6508,-0.6526,0.0,-0.7015,-0.7229,0.0,-0.7864,-0.7713,-0.753,-0.7266,-0.6956,-0.6118,-0.5495,-0.5493,-0.4865,-0.448,-0.4471,-0.4486,-0.4495,-0.4495,-0.4718,-0.4853,-0.4868,-0.4967,-0.5021,-0.5021,-0.5021,-0.5021,-0.5021,-0.5021,-0.5021,-0.5021,-0.5021,-0.5021,-0.5021,-0.5021,0.0,-0.5021,-0.5021,-0.5021,-0.5021,-0.5012,-0.4943,-0.4845,-0.4837,-0.4762,-0.4665,-0.4665,-0.4665,-0.4665,-0.4665,-0.4665,-0.4665,-0.4665,-0.4665,-0.4653,-0.4601,-0.4579,-0.4551,-0.4448,-0.441,-0.4386,-0.4333,-0.4313,-0.4308,-0.4308,-0.4308,-0.4308,-0.4308,-0.4308,-0.4308,-0.4308,-0.4308,-0.4308,-0.4308,-0.4308,-0.4308,-0.4308,-0.4308,-0.4308,-0.4308,-0.4308,-0.4441,-0.4707,-0.551,-0.6048,-0.6585,-0.792,-0.872,-0.8853,-0.9542,-1.0061,-1.0323,-1.0461,-1.0588,-1.0721,-1.1118,-1.1247,-1.138,-1.2045,-1.2572,-0.9201,-0.9249,-0.9222,-0.9351,-0.9157,-0.8801,-0.8173,-0.7714,0.0,0.0,0.0,-0.6327,-0.6201,-0.6449,0.0,-0.7,0.0,0.0,0.0,0.0,-0.7241,0.0,0.0,0.0,0.0,0.0,0.0,0.0,0.0,-0.4557,-0.4557,-0.4741,-0.489,-0.4986,-0.501,-0.5021,-0.5021,-0.5021,-0.5021,-0.5021,-0.5021,-0.5021,-0.5021,-0.5021,-0.5021,-0.5021,-0.5021,0.0,-0.5021,-0.5021,-0.5021,-0.5015,-0.497,-0.4907,-0.4839,-0.4789,-0.4726,-0.4665,-0.4665,-0.4665,-0.4665,-0.4665,-0.4665,-0.4665,-0.4665,-0.4665,-0.4662,-0.4651,-0.4613,-0.4568,-0.4548,-0.4471,-0.4395,-0.4386,-0.4343,-0.4308,-0.4308,-0.4308,-0.4308,-0.4308,-0.4308,-0.4308,-0.4308,-0.4308,-0.4308,-0.4308,-0.4308,-0.4308,-0.4308,-0.4308,-0.4308,-0.4308,-0.4308,-0.4441,-0.4707,-0.551,-0.6313,-0.7247,-0.8184,-0.8989,-0.9924,-1.0035,-1.0296,-1.0588,-1.0694,-1.0826,-1.1115,-1.1118,-1.1644,-1.2572,-1.2704,-1.3227,-0.9184,-0.9208,-0.9154,-0.915,-0.8869,-0.8455,-0.7929,0.0,0.0,0.0,0.0,-0.6067,-0.6063,0.0,0.0,0.0,0.0,0.0,0.0,0.0,0.0,0.0,0.0,0.0,0.0,0.0,0.0,0.0,0.0,-0.4559,-0.4527,-0.4729,-0.4886,-0.4974,-0.5006,-0.5021,-0.5021,-0.5021,-0.5021,-0.5021,-0.5021,-0.5021,-0.5021,-0.5021,-0.5021,-0.5021,-0.5021,0.0,-0.5021,-0.5021,-0.5003,-0.4974,-0.4947,-0.488,-0.4794,-0.4766,-0.4717,-0.4665,-0.4665,-0.4665,-0.4665,-0.4665,-0.4665,-0.4665,-0.4665,-0.4665,-0.4665,-0.4665,-0.4643,-0.4606,-0.4542,-0.4485,-0.4427,-0.4365,-0.4328,-0.4308,-0.4308,-0.4308,-0.4308,-0.4308,-0.4308,-0.4308,-0.4308,-0.4308,-0.4308,-0.4308,-0.4441,-0.4574,-0.4574,-0.471,-0.471,-0.4308,-0.4441,-0.4841,-0.5376,-0.6046,-0.6982,-0.8051,-0.8723,-0.9525,-1.019,-1.0323,-1.0588,-1.0721,-1.0721,-1.0853,-1.1247,-1.1644,-1.2177,-1.2836,-1.3358,-1.3879,-0.9059,-0.9106,-0.9079,-0.8967,-0.8601,-0.8143,-0.7662,-0.7085,0.0,0.0,-0.5918,-0.5752,-0.5908,0.0,0.0,0.0,0.0,0.0,0.0,0.0,0.0,0.0,0.0,0.0,0.0,0.0,0.0,0.0,0.0,0.0,-0.4522,-0.4715,-0.4854,-0.4916,-0.4959,-0.4989,-0.5003,-0.5003,-0.5008,-0.5021,-0.5021,-0.5021,-0.5021,-0.5021,-0.5021,-0.5021,-0.5008,0.0,0.0,-0.4988,-0.4957,-0.4916,-0.4903,-0.4839,-0.4754,-0.474,-0.4706,-0.4665,-0.4665,-0.4665,-0.4665,-0.4665,-0.4665,-0.4665,-0.4665,-0.4665,-0.4665,-0.4665,-0.4665,-0.4639,-0.453,-0.4492,-0.4452,-0.4335,-0.4308,-0.4308,-0.4308,-0.4308,-0.4308,-0.4308,-0.4308,-0.4308,-0.4308,-0.4308,-0.4308,-0.4441,-0.4572,-0.4839,-0.4973,-0.5379,-0.5381,-0.4844,-0.4975,-0.5242,-0.5914,-0.6717,-0.7653,-0.8587,-0.9392,-0.9927,-1.0323,-1.0588,-1.0853,-1.0853,-1.085,-1.1118,-1.1512,-1.2177,-1.2704,-1.3099,-1.4015,-1.4403,-0.8879,-0.8957,-0.8954,-0.8944,-0.8601,-0.8116,-0.7526,0.0,0.0,-0.5935,-0.5606,-0.545,-0.5603,-0.5871,-0.6146,0.0,0.0,0.0,0.0,0.0,0.0,0.0,0.0,0.0,0.0,0.0,0.0,0.0,0.0,0.0,-0.4642,-0.4722,-0.4792,-0.4852,-0.4858,-0.4888,-0.4944,-0.4944,-0.497,-0.5021,-0.5021,-0.5021,-0.5021,-0.5021,-0.5021,-0.5018,-0.4967,0.0,0.0,-0.4884,-0.4858,-0.4849,-0.4793,-0.4764,-0.4748,-0.4694,-0.4669,-0.4665,-0.4665,-0.4665,-0.4665,-0.4665,-0.4665,-0.4665,-0.4665,-0.4665,-0.4665,-0.4665,-0.4665,-0.4649,-0.4582,-0.4523,-0.4452,-0.4335,-0.4308,-0.4308,-0.4308,-0.4308,-0.4308,-0.4308,-0.4308,-0.4308,-0.4308,-0.4308,-0.4441,-0.4707,-0.4839,-0.5108,-0.5778,-0.5778,-0.5914,-0.6185,-0.5914,-0.5914,-0.6453,-0.7388,-0.8323,-0.8984,-0.9788,-1.0323,-1.0588,-1.0982,-1.1115,-1.1115,-1.1516,-1.2045,-1.2704,-1.2704,-1.3227,-1.4277,-1.4403,-1.4539,-0.8452,-0.8601,-0.8645,-0.8557,-0.8262,-0.7862,-0.735,0.0,-0.624,-0.5878,-0.5569,-0.5449,-0.544,-0.555,-0.5659,-0.5925,-0.5999,-0.6076,0.0,0.0,0.0,0.0,0.0,0.0,0.0,0.0,0.0,0.0,0.0,0.0,-0.4609,-0.4668,-0.4729,-0.4789,-0.4827,-0.4857,-0.4882,-0.4882,-0.4894,-0.4916,-0.4916,-0.4916,-0.4916,-0.4916,-0.4916,-0.4914,-0.4892,0.0,0.0,-0.4856,-0.4824,-0.4789,-0.4764,-0.4733,-0.4698,-0.4673,-0.4665,-0.4665,-0.4665,-0.4665,-0.4665,-0.4665,-0.4665,-0.4665,-0.4665,-0.4665,-0.4665,-0.4665,-0.4665,-0.4642,-0.4544,-0.4448,-0.4365,-0.4319,-0.4308,-0.4308,-0.4308,-0.4308,-0.4308,-0.4308,-0.4308,-0.4308,-0.4308,-0.4441,-0.4707,-0.4839,-0.5377,-0.6049,-0.6449,-0.6985,-0.7386,-0.7653,-0.6985,-0.6851,-0.7388,-0.8056,-0.8856,-1.005,-1.0319,-1.0721,-1.1383,-1.1516,-1.1516,-1.1516,-1.1912,-1.2309,-1.2836,-1.3227,-1.3748,-1.4403,-1.467,-1.48,-0.7987,-0.8208,-0.8316,-0.817,-0.7906,-0.7563,0.0,0.0,-0.6108,-0.5803,-0.5538,-0.5428,-0.5428,-0.5381,-0.5377,-0.5535,-0.5476,-0.5526,-0.5573,0.0,0.0,0.0,0.0,0.0,0.0,0.0,0.0,0.0,0.0,0.0,0.0,-0.4624,-0.4665,-0.4726,-0.4752,-0.4782,-0.4819,-0.4819,-0.4827,-0.4846,-0.4846,-0.4846,-0.4846,-0.4846,-0.4846,-0.4845,0.0,0.0,0.0,-0.48,-0.4767,-0.4729,-0.4729,-0.4702,-0.4665,-0.4665,-0.4665,-0.4665,-0.4665,-0.4665,-0.4665,-0.4665,-0.4665,-0.4665,-0.4665,-0.4665,-0.4665,-0.4665,-0.4639,-0.4587,-0.4485,-0.4383,-0.4308,-0.4308,-0.4308,-0.4308,-0.4308,-0.4308,-0.4308,-0.4308,-0.4308,-0.4308,-0.4308,-0.4574,-0.4839,-0.5108,-0.6048,-0.6853,-0.7386,-0.8053,-0.859,-0.8856,-0.8187,-0.792,-0.8323,-0.8853,-0.9652,-1.0588,-1.0982,-1.1383,-1.1912,-1.2173,-1.2305,-1.2305,-1.2568,-1.2964,-1.3227,-1.3748,-1.4272,-1.4539,-1.48,-1.4931,-0.7526,-0.7821,-0.8007,-0.7851,-0.7594,-0.7258,0.0,-0.6356,-0.5949,-0.5654,-0.5467,-0.5428,-0.5428,-0.5467,-0.5419,-0.5181,-0.5314,-0.5499,-0.538,0.0,0.0,0.0,0.0,0.0,0.0,0.0,0.0,0.0,0.0,0.0,0.0,-0.4606,-0.4602,-0.4664,-0.4608,-0.4634,-0.4755,-0.4756,-0.4786,-0.4846,-0.4846,-0.4846,-0.4846,-0.4846,-0.4846,0.0,0.0,0.0,0.0,-0.4691,-0.4666,-0.4665,-0.4665,-0.4665,-0.4665,-0.4665,-0.4665,-0.4665,-0.4665,-0.4665,-0.4665,-0.4665,-0.4665,-0.4665,-0.4665,-0.4665,-0.4665,-0.4665,-0.4578,-0.4471,-0.4414,-0.4353,-0.4308,-0.4308,-0.4308,-0.4308,-0.4308,-0.4308,-0.4308,-0.4308,-0.4308,-0.4308,-0.4308,-0.4574,-0.5108,-0.5778,-0.6581,-0.7386,-0.8454,-0.8851,-0.9253,-0.9661,-0.9661,-0.9525,-0.9117,-1.005,-1.0721,-1.0721,-1.1648,-1.2309,-1.2309,-1.296,-1.3346,-1.3346,-1.3744,-1.401,-1.4403,-1.4403,-1.4539,-1.4931,-1.4931,-1.4931,-0.6963,-0.7129,-0.7292,-0.7339,-0.7129,-0.6848,-0.66,-0.6046,-0.5527,-0.5332,-0.5045,-0.4884,-0.4884,-0.49,-0.4891,-0.4745,-0.4572,0.0,0.0,0.0,0.0,0.0,0.0,0.0,0.0,0.0,0.0,0.0,0.0,0.0,0.0,-0.4606,-0.4601,-0.4662,-0.4646,-0.4654,-0.4694,-0.4694,-0.4703,-0.4722,-0.4722,-0.4722,-0.4722,-0.4722,0.0,0.0,0.0,0.0,0.0,-0.4672,-0.4665,-0.4665,-0.4665,-0.4665,-0.4665,-0.4665,-0.4665,-0.4665,-0.4665,-0.4665,-0.4665,-0.4665,-0.4665,-0.4665,-0.4665,-0.4665,-0.4655,-0.4615,-0.4545,-0.4469,-0.4413,-0.4353,-0.4308,-0.4308,-0.4308,-0.4308,-0.4308,-0.444,-0.4707,-0.4707,-0.4842,-0.5112,-0.5112,-0.5515,-0.6049,-0.6317,-0.7386,-0.832,-0.8851,-0.9519,-1.0057,-1.0717,-1.0721,-1.0585,-1.0187,-1.0452,-1.1115,-1.2045,-1.2441,-1.2832,-1.3354,-1.3617,-1.3744,-1.3744,-1.401,-1.4272,-1.4403,-1.467,-1.48,-1.4931,-1.4931,-1.4931,0.0,-0.639,-0.6525,-0.6614,-0.6458,-0.624,-0.6009,-0.558,-0.5173,-0.4893,-0.4708,-0.4495,-0.4495,-0.4483,-0.449,-0.447,-0.4193,0.0,0.0,0.0,0.0,0.0,0.0,0.0,0.0,0.0,0.0,0.0,0.0,0.0,0.0,-0.4616,-0.4625,-0.4662,-0.4642,-0.4642,-0.4665,-0.4665,-0.4665,-0.4665,-0.4665,-0.4665,-0.4665,-0.4665,0.0,0.0,0.0,0.0,0.0,-0.4665,-0.4665,-0.4665,-0.4665,-0.4665,-0.4665,-0.4665,-0.4665,-0.4665,-0.4665,-0.4665,-0.4665,-0.4665,-0.4665,-0.4665,-0.4665,-0.4665,-0.4647,-0.4563,-0.4512,-0.4463,-0.452,-0.4469,-0.4574,-0.471,-0.471,-0.471,-0.471,-0.4977,-0.5242,-0.5242,-0.5512,-0.5783,-0.5783,-0.6319,-0.6719,-0.7123,-0.8053,-0.8987,-0.9386,-1.0187,-1.0721,-1.1115,-1.1512,-1.1644,-1.1516,-1.1516,-1.1912,-1.2704,-1.3231,-1.3486,-1.3875,-1.401,-1.4141,-1.4141,-1.4272,-1.4403,-1.4539,-1.48,-1.4931,-1.4931,-1.4931,-1.4931,0.0,-0.5647,-0.5772,-0.5783,-0.5677,-0.5467,-0.5186,-0.4968,0.0,-0.4494,-0.4388,-0.429,-0.4298,-0.4267,-0.4252,-0.4152,-0.4104,0.0,0.0,0.0,0.0,0.0,0.0,0.0,0.0,0.0,0.0,0.0,0.0,0.0,0.0,-0.4624,-0.4658,-0.4658,-0.4606,-0.4606,-0.4664,-0.4665,-0.4665,-0.4665,-0.4665,-0.4665,-0.4665,-0.4665,0.0,0.0,0.0,0.0,0.0,-0.4665,-0.4665,-0.4665,-0.4665,-0.4665,-0.4665,-0.4665,-0.4665,-0.4665,-0.4665,-0.4665,-0.4664,-0.466,-0.4658,-0.4658,-0.4653,-0.4654,-0.4634,-0.4515,-0.448,-0.4589,-0.4873,-0.4839,-0.4975,-0.5379,-0.5515,-0.5515,-0.5515,-0.578,-0.6046,-0.6046,-0.6317,-0.6585,-0.6587,-0.6851,-0.7386,-0.8058,-0.872,-0.9386,-1.019,-1.0853,-1.1247,-1.1247,-1.1912,-1.2441,-1.2836,-1.2836,-1.2836,-1.2968,-1.3884,-1.4272,-1.4006,-1.4272,-1.4403,-1.4403,-1.4403,-1.4539,-1.4931,-1.4931,-1.48,-1.48,-1.48,-1.48,-0.4893,0.0,-0.5491,-0.5398,-0.5316,-0.5199,0.0,-0.4499,-0.4068,0.0,0.0,-0.3506,-0.3526,-0.3584,-0.3616,-0.3627,0.0,0.0,0.0,0.0,0.0,0.0,0.0,0.0,0.0,0.0,0.0,0.0,0.0,0.0,0.0,-0.4561,-0.4595,-0.4595,-0.4625,-0.465,-0.4665,-0.4665,-0.4665,-0.4665,-0.4665,-0.4665,-0.4665,-0.4665,-0.4665,0.0,0.0,0.0,-0.4665,-0.4665,-0.4665,-0.4665,-0.4665,-0.4665,-0.4665,-0.4665,-0.4665,-0.4665,-0.4665,-0.4665,-0.4657,-0.4609,-0.4739,-0.5017,-0.4966,-0.4843,-0.4722,-0.4787,-0.4868,-0.4947,-0.5536,-0.5644,-0.5778,-0.6049,-0.6185,-0.6185,-0.6185,-0.6451,-0.6849,-0.7114,-0.7386,-0.7789,-0.8053,-0.8318,-0.8717,-0.8851,-0.9522,-1.0057,-1.0588,-1.0982,-1.1512,-1.2309,-1.2572,-1.2964,-1.3617,-1.3354,-1.3486,-1.401,-1.4272,-1.4403,-1.4272,-1.4403,-1.4403,-1.4403,-1.467,-1.48,-1.4931,-1.467,-1.4539,-1.4539,-1.4272,-1.4272,-0.4707,-0.4807,-0.4961,-0.4977,-0.4822,-0.4577,-0.4452,0.0,0.0,0.0,0.0,0.0,-0.3131,0.0,0.0,0.0,0.0,0.0,0.0,0.0,0.0,0.0,0.0,0.0,0.0,0.0,0.0,0.0,0.0,0.0,0.0,-0.45,-0.4531,-0.4531,-0.4564,-0.4608,-0.4664,-0.4665,-0.4665,-0.4665,-0.4665,-0.4665,-0.4665,-0.4665,-0.4665,0.0,0.0,0.0,-0.4665,-0.4665,-0.4665,-0.4665,-0.4665,-0.4665,-0.4665,-0.4665,-0.4665,-0.4665,-0.4665,-0.4646,-0.4613,-0.4694,-0.4957,-0.5092,-0.5476,-0.5326,-0.5323,-0.5424,-0.5384,-0.5609,-0.6203,-0.6581,-0.6715,-0.7121,-0.7254,-0.7386,-0.7386,-0.7653,-0.8051,-0.8182,-0.8587,-0.8859,-0.9125,-0.9256,-0.9389,-0.9519,-1.0057,-1.0588,-1.085,-1.1512,-1.2177,-1.2704,-1.3227,-1.3752,-1.4141,-1.4141,-1.4141,-1.4403,-1.4534,-1.4539,-1.4403,-1.4403,-1.4403,-1.4403,-1.467,-1.48,-1.467,-1.4534,-1.4272,-1.4141,-1.4006,-1.401,-0.4677,-0.4562,-0.4433,-0.4574,-0.4314,-0.4083,-0.3893,0.0,0.0,0.0,0.0,0.0,0.0,0.0,0.0,0.0,0.0,0.0,0.0,0.0,0.0,0.0,0.0,0.0,0.0,0.0,0.0,0.0,0.0,0.0,0.0,-0.4439,-0.447,-0.447,-0.4478,-0.4531,-0.4635,-0.4646,-0.4655,-0.4665,-0.4665,-0.4665,-0.4665,-0.4665,-0.4665,-0.4665,0.0,0.0,-0.4665,-0.4665,-0.4665,-0.4664,-0.4654,-0.465,-0.465,-0.464,-0.4636,-0.4636,-0.4636,-0.4602,-0.4692,-0.4911,-0.5029,-0.5307,-0.5988,-0.6212,-0.6291,-0.6425,-0.6289,-0.6409,-0.7007,-0.7517,-0.7784,-0.8189,-0.859,-0.872,-0.872,-0.8987,-0.9253,-0.925,-0.9522,-0.9794,-0.9794,-0.9794,-0.9927,-1.0323,-1.0588,-1.0982,-1.1383,-1.2177,-1.2836,-1.2968,-1.3884,-1.4403,-1.4408,-1.48,-1.48,-1.4534,-1.48,-1.48,-1.4403,-1.4403,-1.4403,-1.4403,-1.467,-1.48,-1.4403,-1.4272,-1.4141,-1.3879,-1.3748,-1.3748,-0.4621,-0.4599,-0.4532,-0.4531,-0.4317,-0.3983,-0.3635,0.0,0.0,0.0,0.0,0.0,0.0,0.0,0.0,0.0,0.0,0.0,0.0,0.0,0.0,0.0,0.0,0.0,0.0,0.0,0.0,0.0,0.0,0.0,0.0,-0.4379,-0.4412,-0.4412,-0.4458,-0.4492,-0.4511,-0.4561,-0.4613,-0.4665,-0.4665,-0.4665,-0.4665,-0.4665,-0.4665,-0.4665,0.0,-0.4665,-0.4665,-0.4665,-0.4665,-0.466,-0.4608,-0.4587,-0.458,-0.4529,-0.4511,-0.4511,-0.4511,-0.4646,-0.4909,-0.498,-0.5509,-0.632,-0.6785,-0.7289,-0.7947,-0.8478,-0.794,-0.7402,-0.8189,-0.8584,-0.8984,-0.9392,-0.9528,-0.9528,-0.9528,-0.9528,-0.9658,-0.9924,-1.006,-1.0193,-1.0455,-1.0588,-1.0721,-1.0982,-1.1115,-1.1512,-1.2441,-1.2704,-1.3095,-1.4015,-1.4272,-1.4539,-1.48,-1.4931,-1.4931,-1.48,-1.4931,-1.48,-1.4403,-1.4403,-1.4403,-1.4403,-1.467,-1.48,-1.4403,-1.3875,-1.3486,-1.3498,-1.2836,-1.2836,-0.4531,-0.446,-0.437,-0.4351,-0.4247,-0.4018,-0.3564,0.0,0.0,0.0,0.0,0.0,0.0,0.0,0.0,0.0,0.0,0.0,0.0,0.0,0.0,0.0,0.0,0.0,0.0,0.0,0.0,0.0,0.0,0.0,0.0,0.0,-0.4349,-0.4349,-0.4375,-0.4403,-0.4437,-0.4465,-0.4508,-0.4567,-0.4567,-0.4567,-0.4567,-0.4567,-0.4567,-0.4567,0.0,-0.4567,-0.4567,-0.4567,-0.4567,-0.4564,-0.4536,-0.4525,-0.4521,-0.4774,-0.4763,-0.4759,-0.5002,-0.5266,-0.5529,-0.5728,-0.6375,-0.7177,-0.7667,-0.8187,-0.872,-0.9256,-0.8851,-0.8448,-0.8989,-0.9389,-0.9788,-0.9927,-1.006,-1.019,-1.019,-1.019,-1.0323,-1.0455,-1.0455,-1.0455,-1.0721,-1.0721,-1.0721,-1.0853,-1.1247,-1.178,-1.2441,-1.3095,-1.3617,-1.4272,-1.4539,-1.467,-1.4931,-1.4931,-1.4931,-1.4931,-1.4931,-1.48,-1.467,-1.467,-1.467,-1.467,-1.467,-1.4403,-1.4141,-1.3354,-1.3095,-1.3104,-1.2572,-1.2572,-0.4411,-0.4275,-0.4137,-0.4204,-0.4111,-0.3952,-0.3516,0.0,0.0,0.0,0.0,0.0,0.0,0.0,0.0,0.0,0.0,0.0,0.0,0.0,0.0,0.0,0.0,0.0,0.0,0.0,0.0,0.0,0.0,0.0,0.0,0.0,-0.4308,-0.4308,-0.4308,-0.433,-0.4376,-0.4377,-0.4413,-0.4482,-0.4482,-0.4482,-0.4482,-0.4482,-0.4482,-0.4482,-0.4482,-0.4482,-0.4482,-0.4482,-0.4482,-0.4481,-0.4467,-0.4454,-0.4442,-0.4859,-0.4997,-0.4989,-0.5486,-0.5875,-0.6134,-0.6474,-0.7118,-0.7915,-0.8587,-0.8987,-0.9386,-0.9791,-0.9655,-0.9519,-0.9791,-1.006,-1.0326,-1.0326,-1.0455,-1.0721,-1.0721,-1.0721,-1.0721,-1.0721,-1.0721,-1.0721,-1.0721,-1.0721,-1.0721,-1.0853,-1.1383,-1.2045,-1.2437,-1.3354,-1.401,-1.4408,-1.48,-1.4931,-1.4931,-1.4931,-1.4931,-1.4931,-1.4931,-1.4931,-1.4931,-1.4931,-1.4931,-1.4931,-1.4539,-1.4272,-1.3875,-1.3095,-1.2704,-1.2836,-1.2441,-1.2441,-0.3991,-0.4023,-0.4072,-0.3852,-0.3845,0.0,-0.3299,-0.3175,0.0,0.0,0.0,0.0,0.0,0.0,0.0,0.0,0.0,0.0,0.0,0.0,0.0,0.0,0.0,0.0,0.0,0.0,0.0,0.0,0.0,0.0,0.0,0.0,0.0,-0.4308,-0.4308,-0.4309,-0.4313,-0.4313,-0.4371,-0.4482,-0.4482,-0.4482,-0.4482,-0.4482,-0.4482,-0.4482,-0.4482,-0.4482,-0.4482,-0.4482,-0.4482,-0.4477,-0.4425,-0.4369,-0.4319,-0.4722,-0.4855,-0.4855,-0.5655,-0.6191,-0.6462,-0.6855,-0.7653,-0.8587,-0.8984,-0.9519,-1.019,-1.0588,-1.0588,-1.0455,-1.019,-1.0455,-1.0721,-1.0721,-1.0721,-1.0721,-1.0721,-1.0721,-1.0721,-1.0721,-1.0721,-1.0721,-1.0721,-1.0721,-1.0853,-1.1118,-1.1516,-1.2173,-1.3218,-1.3613,-1.4141,-1.48,-1.4931,-1.4931,-1.4931,-1.4931,-1.4931,-1.4931,-1.4931,-1.4931,-1.4931,-1.4931,-1.4931,-1.4931,-1.4539,-1.4272,-1.3875,-1.2832,-1.2441,-1.2836,-1.2177,-1.2177,-0.3633,-0.3523,-0.3416,-0.3428,-0.3446,0.0,0.0,0.0,0.0,0.0,0.0,0.0,0.0,0.0,0.0,0.0,0.0,0.0,0.0,0.0,0.0,0.0,0.0,0.0,0.0,0.0,0.0,0.0,0.0,0.0,0.0,0.0,0.0,-0.4308,-0.4308,-0.4308,-0.4308,-0.4308,-0.433,-0.4373,-0.4373,-0.4373,-0.4373,-0.4373,-0.4373,-0.4373,-0.4373,-0.4373,-0.4373,-0.4373,-0.4373,-0.4372,-0.435,-0.4327,-0.4307,-0.4977,-0.5111,-0.5243,-0.6315,-0.6853,-0.7257,-0.7786,-0.859,-0.9392,-0.9655,-1.0054,-1.0588,-1.0721,-1.0721,-1.0721,-1.0588,-1.0588,-1.0721,-1.0721,-1.0721,-1.0721,-1.0721,-1.0721,-1.0721,-1.0721,-1.0721,-1.0721,-1.0721,-1.0721,-1.0721,-1.0853,-1.1383,-1.2045,-1.2696,-1.3354,-1.401,-1.4272,-1.4272,-1.4272,-1.4272,-1.4272,-1.4403,-1.4534,-1.48,-1.4931,-1.4931,-1.4931,-1.4931,-1.4931,-1.4403,-1.3879,-1.3613,-1.2568,-1.2045,-1.2177,-1.1648,-1.1648,-0.3211,-0.3084,-0.2963,0.0,0.0,0.0,-0.333,0.0,0.0,0.0,0.0,0.0,0.0,0.0,0.0,0.0,0.0,0.0,0.0,0.0,0.0,0.0,0.0,0.0,0.0,0.0,0.0,0.0,0.0,0.0,0.0,0.0,0.0,0.0,-0.4308,-0.4308,-0.4308,-0.4308,-0.4308,-0.4308,-0.4441,-0.4441,-0.4308,-0.4308,-0.4308,-0.4308,-0.4308,-0.4308,-0.4308,-0.4308,-0.4308,-0.4308,-0.4308,-0.4308,-0.4307,-0.4977,-0.5245,-0.5515,-0.6451,-0.7123,-0.766,-0.832,-0.9123,-0.9794,-1.006,-1.0455,-1.0721,-1.0721,-1.0721,-1.0721,-1.0721,-1.0721,-1.0721,-1.0721,-1.0721,-1.0721,-1.0721,-1.0721,-1.0721,-1.0721,-1.0721,-1.0721,-1.0721,-1.0721,-1.0721,-1.0721,-1.1383,-1.1912,-1.2309,-1.3095,-1.3752,-1.3744,-1.3744,-1.3744,-1.3608,-1.3613,-1.3875,-1.401,-1.4403,-1.467,-1.4931,-1.4931,-1.4931,-1.4931,-1.4272,-1.3744,-1.3613,-1.2437,-1.1912,-1.1912,-1.1383,-1.1512,-0.273,-0.2774,0.0,0.0,0.0,0.0,0.0,0.0,0.0,0.0,0.0,0.0,0.0,0.0,0.0,0.0,0.0,0.0,0.0,0.0,0.0,0.0,0.0,0.0,0.0,0.0,0.0,0.0,0.0,0.0,0.0,0.0,0.0,0.0,-0.4308,-0.4308,-0.4308,-0.4308,-0.4308,-0.4308,-0.4707,-0.4572,-0.4308,-0.4308,-0.4308,-0.4308,-0.4308,-0.4308,-0.4308,-0.4308,-0.4308,-0.4308,-0.4308,-0.4308,-0.4307,-0.4707,-0.5109,-0.5515,-0.6319,-0.6991,-0.766,-0.8323,-0.9123,-0.9794,-1.006,-1.0455,-1.0721,-1.0721,-1.0721,-1.0721,-1.0721,-1.0721,-1.0721,-1.0721,-1.0721,-1.0721,-1.0721,-1.0721,-1.0721,-1.0721,-1.0721,-1.0721,-1.0721,-1.0721,-1.0721,-1.0721,-1.1383,-1.1912,-1.2309,-1.2972,-1.3363,-1.335,-1.335,-1.3214,-1.2816,-1.3214,-1.335,-1.335,-1.3744,-1.4141,-1.48,-1.4931,-1.4931,-1.4931,-1.4272,-1.3875,-1.3875,-1.2437,-1.1912,-1.2309,-1.1512,-1.1648,-0.2506,-0.2542,0.0,0.0,0.0,0.0,0.0,0.0,0.0,0.0,0.0,0.0,0.0,0.0,0.0,0.0,0.0,0.0,0.0,0.0,0.0,0.0,0.0,0.0,0.0,0.0,0.0,0.0,0.0,0.0,0.0,0.0,0.0,0.0,-0.4308,-0.4441,-0.4707,-0.4707,-0.4842,-0.5112,-0.5377,-0.5242,-0.4707,-0.4977,-0.5112,-0.5112,-0.5112,-0.4977,-0.4572,-0.4441,-0.4441,-0.4707,-0.4707,-0.4842,-0.5112,-0.5512,-0.5644,-0.5914,-0.6855,-0.7393,-0.7791,-0.9256,-0.9924,-1.0193,-1.1118,-1.1251,-1.0982,-1.0982,-1.085,-1.0721,-1.0721,-1.0721,-1.0721,-1.0721,-1.0721,-1.0721,-1.0721,-1.0721,-1.0721,-1.0721,-1.0721,-1.0721,-1.0721,-1.0721,-1.0721,-1.0721,-1.1383,-1.2173,-1.3354,-1.3363,-1.3363,-1.335,-1.296,-1.2437,-1.2173,-1.2173,-1.2437,-1.2568,-1.27,-1.3223,-1.4141,-1.4141,-1.4272,-1.4534,-1.3888,-1.349,-1.3613,-1.2568,-1.1912,-1.1512,-1.1644,-1.1644,-0.2285,0.0,0.0,0.0,0.0,0.0,0.0,0.0,0.0,0.0,0.0,0.0,0.0,0.0,0.0,0.0,0.0,0.0,0.0,0.0,0.0,0.0,0.0,0.0,0.0,0.0,0.0,0.0,0.0,0.0,0.0,0.0,0.0,0.0,-0.444,-0.4708,-0.4975,-0.5108,-0.5377,-0.5647,-0.6048,-0.618,-0.591,-0.5781,-0.5783,-0.5783,-0.5647,-0.5512,-0.5243,-0.4842,-0.4977,-0.5242,-0.5242,-0.5512,-0.5783,-0.6048,-0.6182,-0.6447,-0.7252,-0.7789,-0.8323,-0.9785,-1.0319,-1.0721,-1.1516,-1.1516,-1.1247,-1.1247,-1.0986,-1.0721,-1.0853,-1.0853,-1.0853,-1.0721,-1.0721,-1.0721,-1.0721,-1.0853,-1.0853,-1.0853,-1.0986,-1.1118,-1.1118,-1.1118,-1.1118,-1.1118,-1.178,-1.2572,-1.3621,-1.3498,-1.3367,-1.3223,-1.2568,-1.1912,-1.1644,-1.1516,-1.1648,-1.1909,-1.2045,-1.2437,-1.3091,-1.3481,-1.3875,-1.4141,-1.3752,-1.3621,-1.3744,-1.2964,-1.2309,-1.1776,-1.178,-1.178,-0.2164,0.0,0.0,0.0,0.0,0.0,0.0,0.0,0.0,0.0,0.0,0.0,0.0,0.0,0.0,0.0,0.0,0.0,0.0,0.0,0.0,0.0,0.0,0.0,0.0,0.0,0.0,0.0,0.0,0.0,0.0,0.0,0.0,-0.483,-0.4838,-0.5109,-0.5515,-0.578,-0.6046,-0.6046,-0.6849,-0.7383,-0.7648,-0.6851,-0.6587,-0.6585,-0.6182,-0.6046,-0.5914,-0.5647,-0.5647,-0.6046,-0.6046,-0.6315,-0.6587,-0.6585,-0.6853,-0.725,-0.7514,-0.8315,-0.938,-1.0177,-1.0843,-1.138,-1.1912,-1.1644,-1.138,-1.138,-1.1118,-1.0853,-1.1118,-1.1251,-1.1247,-1.0986,-1.0853,-1.0853,-1.0853,-1.0982,-1.1247,-1.1247,-1.1516,-1.1912,-1.1912,-1.1912,-1.1909,-1.1912,-1.2441,-1.2968,-1.3367,-1.3367,-1.3235,-1.2836,-1.2177,-1.1648,-1.1247,-1.1118,-1.1115,-1.1115,-1.1516,-1.1648,-1.1648,-1.2696,-1.3481,-1.3875,-1.3879,-1.401,-1.4403,-1.3358,-1.2836,-1.2836,-1.2309,-1.2305,0.0,0.0,0.0,0.0,0.0,0.0,0.0,0.0,0.0,0.0,0.0,0.0,0.0,0.0,0.0,0.0,0.0,0.0,0.0,0.0,0.0,0.0,0.0,0.0,0.0,0.0,0.0,0.0,0.0,0.0,0.0,0.0,0.0,-0.5159,-0.5215,-0.5647,-0.6319,-0.6319,-0.6853,0.0,-0.8053,-0.8451,-0.8717,-0.8053,-0.7789,-0.7655,-0.7383,-0.698,-0.6717,-0.6317,-0.6451,-0.6851,-0.7114,-0.7383,-0.7791,-0.8053,-0.8318,-0.8715,-0.8981,-0.9643,-1.0571,-1.1508,-1.2165,-1.2557,-1.3218,-1.2964,-1.2441,-1.2441,-1.2045,-1.1516,-1.1648,-1.1912,-1.2045,-1.1912,-1.178,-1.1516,-1.1516,-1.1648,-1.1648,-1.1648,-1.1912,-1.2177,-1.2177,-1.2433,-1.2561,-1.2572,-1.2704,-1.3099,-1.3752,-1.3625,-1.3367,-1.3223,-1.2437,-1.1648,-1.1247,-1.0986,-1.0853,-1.0853,-1.085,-1.0986,-1.0986,-1.1909,-1.2828,-1.3481,-1.349,-1.3757,-1.4403,-1.3879,-1.3486,-1.3218,-1.3354,-1.335,0.0,0.0,0.0,0.0,0.0,0.0,0.0,0.0,0.0,0.0,0.0,0.0,0.0,0.0,0.0,0.0,0.0,0.0,0.0,0.0,0.0,0.0,0.0,0.0,0.0,0.0,0.0,0.0,0.0,0.0,0.0,-0.4805,-0.5214,-0.56,-0.5906,-0.6193,-0.6847,-0.7112,-0.7661,-0.8239,-0.8766,-0.9194,-0.9655,-0.9125,-0.8859,-0.8859,-0.8451,-0.8182,-0.7917,-0.7653,-0.7653,-0.8051,-0.8182,-0.8454,-0.8859,-0.9256,-0.9522,-0.9785,-1.0445,-1.0975,-1.1637,-1.2565,-1.3087,-1.3346,-1.3744,-1.3354,-1.2836,-1.2836,-1.2441,-1.2045,-1.2177,-1.2568,-1.2828,-1.3095,-1.2696,-1.2169,-1.2045,-1.2177,-1.2177,-1.2045,-1.2441,-1.2836,-1.2836,-1.3091,-1.3218,-1.3099,-1.3231,-1.3358,-1.3621,-1.3498,-1.3367,-1.3095,-1.2305,-1.1648,-1.1247,-1.085,-1.0721,-1.0721,-1.0721,-1.0721,-1.0721,-1.1516,-1.2305,-1.2828,-1.3358,-1.3884,-1.4403,-1.4272,-1.401,-1.3875,-1.3875,-1.3875,0.0,0.0,0.0,0.0,0.0,0.0,0.0,0.0,0.0,0.0,0.0,0.0,0.0,0.0,0.0,0.0,0.0,0.0,0.0,0.0,0.0,0.0,0.0,0.0,0.0,0.0,0.0,0.0,0.0,0.0,-0.4863,-0.5255,-0.5772,-0.6411,-0.6814,-0.7082,-0.7591,-0.8103,-0.8537,-0.8632,-0.9287,-0.9742,-1.0251,-1.0012,-0.9772,-0.9794,-0.9386,-0.925,-0.9253,-0.8987,-0.912,-0.9383,-0.9383,-0.9522,-0.9927,-1.019,-1.0455,-1.0721,-1.1648,-1.2309,-1.27,-1.335,-1.3744,-1.401,-1.401,-1.3621,-1.3099,-1.3099,-1.2832,-1.27,-1.2964,-1.3223,-1.3613,-1.3879,-1.3608,-1.3083,-1.27,-1.2836,-1.2964,-1.2568,-1.3099,-1.363,-1.363,-1.3884,-1.3879,-1.363,-1.3752,-1.3752,-1.3494,-1.3367,-1.3104,-1.2836,-1.2177,-1.1516,-1.1251,-1.085,-1.0721,-1.0721,-1.0721,-1.0721,-1.0721,-1.1383,-1.178,-1.2045,-1.3223,-1.401,-1.4403,-1.4403,-1.4403,-1.4534,-1.4141,-1.4272,0.0,0.0,0.0,0.0,0.0,0.0,0.0,0.0,0.0,0.0,0.0,0.0,0.0,0.0,0.0,0.0,0.0,0.0,0.0,0.0,0.0,0.0,0.0,0.0,0.0,0.0,0.0,0.0,0.0,0.0,-0.5706,-0.6398,-0.7069,-0.7697,-0.8176,-0.8483,-0.8866,-0.9246,-0.9506,-0.9528,-0.9921,-1.0193,-1.0344,-1.0337,-1.0333,-1.019,-1.0057,-1.0057,-1.0057,-1.0057,-1.019,-1.0452,-1.0452,-1.0455,-1.0588,-1.0982,-1.1512,-1.2045,-1.2572,-1.3358,-1.4141,-1.4272,-1.4534,-1.48,-1.48,-1.4539,-1.4141,-1.4141,-1.3879,-1.3748,-1.3748,-1.401,-1.4272,-1.4272,-1.4534,-1.4403,-1.3875,-1.3748,-1.3748,-1.3748,-1.401,-1.4408,-1.467,-1.4539,-1.4272,-1.4277,-1.3757,-1.3494,-1.3748,-1.2964,-1.2572,-1.2704,-1.1909,-1.1247,-1.1247,-1.085,-1.0721,-1.0721,-1.0721,-1.0721,-1.0721,-1.1118,-1.1247,-1.138,-1.2704,-1.3757,-1.4403,-1.4403,-1.4539,-1.48,-1.48,-1.48,0.0,0.0,0.0,0.0,0.0,0.0,0.0,0.0,0.0,0.0,0.0,0.0,0.0,0.0,0.0,0.0,0.0,0.0,0.0,0.0,0.0,0.0,0.0,0.0,0.0,0.0,0.0,0.0,0.0,-0.628,-0.7018,-0.7549,-0.8189,-0.8928,-0.936,-0.9643,-0.9767,-1.0136,-1.0305,-1.0395,-1.0489,-1.0534,-1.0538,-1.0472,-1.0323,-1.0336,-1.0419,-1.0588,-1.0721,-1.0721,-1.0986,-1.1383,-1.1383,-1.1383,-1.1383,-1.1644,-1.2177,-1.2704,-1.3227,-1.3879,-1.4403,-1.467,-1.48,-1.4931,-1.4931,-1.467,-1.4403,-1.4403,-1.4272,-1.4141,-1.4141,-1.4403,-1.467,-1.467,-1.48,-1.48,-1.4539,-1.4272,-1.4141,-1.4141,-1.4272,-1.4539,-1.48,-1.48,-1.467,-1.4403,-1.4015,-1.3621,-1.3625,-1.2836,-1.2309,-1.2177,-1.1644,-1.1118,-1.0982,-1.0721,-1.0721,-1.0721,-1.0721,-1.0721,-1.0721,-1.0986,-1.1247,-1.1512,-1.2309,-1.2968,-1.349,-1.3748,-1.4141,-1.467,-1.467,-1.467,0.0,0.0,0.0,0.0,0.0,0.0,0.0,0.0,0.0,0.0,0.0,0.0,0.0,0.0,0.0,0.0,0.0,0.0,0.0,0.0,0.0,0.0,0.0,0.0,0.0,0.0,0.0,0.0,0.0,-0.7533,-0.8257,-0.8738,-0.9353,-1.0233,-1.0481,-1.0748,-1.0789,-1.091,-1.0974,-1.1225,-1.0981,-1.0789,-1.0789,-1.058,-1.0534,-1.0645,-1.0709,-1.108,-1.1516,-1.1512,-1.1909,-1.2305,-1.2305,-1.2173,-1.2305,-1.2437,-1.2832,-1.3227,-1.3748,-1.4272,-1.4539,-1.48,-1.4931,-1.4931,-1.4931,-1.467,-1.4534,-1.4534,-1.4534,-1.4534,-1.4534,-1.467,-1.4931,-1.4931,-1.4931,-1.4931,-1.4931,-1.467,-1.4534,-1.4534,-1.4534,-1.467,-1.48,-1.4931,-1.48,-1.4539,-1.4141,-1.3748,-1.3494,-1.2704,-1.2045,-1.178,-1.1383,-1.0986,-1.0721,-1.0721,-1.0721,-1.0721,-1.0721,-1.0721,-1.0721,-1.0982,-1.1247,-1.1648,-1.1912,-1.2309,-1.2968,-1.3227,-1.3748,-1.4272,-1.4272,-1.4403,0.0,0.0,0.0,0.0,0.0,0.0,0.0,0.0,0.0,0.0,0.0,0.0,0.0,0.0,0.0,0.0,0.0,0.0,0.0,0.0,0.0,0.0,0.0,0.0,0.0,0.0,0.0,0.0,0.0,-0.9265,-0.9613,-1.02,-1.0744,-1.1264,-1.1626,-1.1946,-1.2113,-1.1511,-1.1398,-1.1772,-1.1054,-1.0815,-1.0819,-1.0856,-1.0933,-1.0959,-1.102,-1.1501,-1.2309,-1.2572,-1.3095,-1.3744,-1.3481,-1.335,-1.335,-1.335,-1.3613,-1.3879,-1.4272,-1.4539,-1.4931,-1.4931,-1.4931,-1.4931,-1.4931,-1.4931,-1.4931,-1.4931,-1.4931,-1.4931,-1.4931,-1.4931,-1.4931,-1.4931,-1.4931,-1.4931,-1.4931,-1.4931,-1.4931,-1.4931,-1.4931,-1.4931,-1.4931,-1.4931,-1.4931,-1.4931,-1.4272,-1.3875,-1.3879,-1.2696,-1.178,-1.178,-1.1118,-1.0721,-1.0721,-1.0721,-1.0721,-1.0721,-1.0721,-1.0721,-1.0721,-1.0721,-1.085,-1.1247,-1.1247,-1.1909,-1.3371,-1.3371,-1.3625,-1.3875,-1.3875,-1.3875,0.0,0.0,0.0,0.0,0.0,0.0,0.0,0.0,0.0,0.0,0.0,0.0,0.0,0.0,0.0,0.0,0.0,0.0,0.0,0.0,0.0,0.0,0.0,0.0,0.0,0.0,0.0,0.0,0.0,0.0,-1.0866,-1.1101,-1.1479,-1.2129,-1.2249,-1.2458,-1.2658,-1.2183,-1.2124,-1.2359,-1.1756,-1.1394,-1.1394,-1.1217,-1.1183,-1.1294,-1.1787,-1.2131,-1.2531,-1.2661,-1.3118,-1.3875,-1.3744,-1.3744,-1.3744,-1.3744,-1.3875,-1.4272,-1.4403,-1.467,-1.4931,-1.4931,-1.4931,-1.4931,-1.4931,-1.4931,-1.4931,-1.4931,-1.4931,-1.4931,-1.4931,-1.4931,-1.4931,-1.4931,-1.4931,-1.4931,-1.4931,-1.4931,-1.4931,-1.4931,-1.4931,-1.4931,-1.4931,-1.4931,-1.4931,-1.4931,-1.4272,-1.3875,-1.3613,-1.2565,-1.1648,-1.1383,-1.0986,-1.0721,-1.0721,-1.0721,-1.0721,-1.0721,-1.0721,-1.0721,-1.0721,-1.0721,-1.0986,-1.1516,-1.1648,-1.1912,-1.2708,-1.2708,-1.2968,-1.3625,-1.3625,-1.3752,0.0,0.0,0.0,0.0,0.0,0.0,0.0,0.0,0.0,0.0,0.0,0.0,0.0,0.0,0.0,0.0,0.0,0.0,0.0,0.0,0.0,0.0,0.0,0.0,0.0,0.0,0.0,0.0,0.0,0.0,-1.1833,-1.1833,-1.209,-1.262,-1.2685,-1.2786,-1.2929,-1.2579,-1.2556,-1.2746,-1.2269,-1.2059,-1.2118,-1.1877,-1.1821,-1.1939,-1.2428,-1.264,-1.2854,-1.2982,-1.3478,-1.4178,-1.4178,-1.4218,-1.4272,-1.4272,-1.4403,-1.4539,-1.4539,-1.467,-1.4931,-1.4931,-1.4931,-1.4931,-1.4931,-1.4931,-1.4931,-1.4931,-1.4931,-1.4931,-1.4931,-1.4931,-1.4931,-1.4931,-1.4931,-1.4931,-1.4931,-1.4931,-1.4931,-1.4931,-1.4931,-1.4931,-1.4931,-1.4931,-1.4931,-1.4931,-1.4272,-1.3875,-1.3613,-1.2565,-1.178,-1.1383,-1.1118,-1.0853,-1.0721,-1.0853,-1.0853,-1.0853,-1.0986,-1.0986,-1.0853,-1.0853,-1.1115,-1.178,-1.178,-1.2045,-1.2441,-1.2441,-1.2704,-1.3235,-1.3235,-1.3363,0.0,0.0,0.0,0.0,0.0,0.0,0.0,0.0,0.0,0.0,0.0,0.0,0.0,0.0,0.0,0.0,0.0,0.0,0.0,0.0,0.0,0.0,0.0,0.0,0.0,0.0,0.0,0.0,0.0,-1.2105,-1.2432,-1.2436,-1.2535,-1.2748,-1.2947,-1.3051,-1.3055,-1.2827,-1.2703,-1.2908,-1.2556,-1.2539,-1.2711,-1.2719,-1.2719,-1.2719,-1.2719,-1.2935,-1.3282,-1.3667,-1.4047,-1.4624,-1.4624,-1.4747,-1.4922,-1.4922,-1.4926,-1.4931,-1.4931,-1.4931,-1.4931,-1.4931,-1.4931,-1.4931,-1.4931,-1.4931,-1.4931,-1.4931,-1.4931,-1.4931,-1.4931,-1.4931,-1.4931,-1.4931,-1.4931,-1.4931,-1.4931,-1.4931,-1.4931,-1.4931,-1.4931,-1.4931,-1.4931,-1.4931,-1.4931,-1.4931,-1.4403,-1.3875,-1.3875,-1.296,-1.2177,-1.178,-1.1383,-1.1118,-1.0721,-1.0986,-1.1247,-1.1247,-1.1516,-1.1648,-1.1247,-1.1247,-1.1383,-1.178,-1.178,-1.2177,-1.2836,-1.2836,-1.2836,-1.2836,-1.2836,-1.2972,-0.3988,0.0,0.0,0.0,0.0,0.0,0.0,0.0,0.0,0.0,0.0,0.0,0.0,0.0,0.0,0.0,0.0,0.0,0.0,0.0,0.0,0.0,0.0,0.0,0.0,0.0,0.0,0.0,-1.2028,-1.2117,-1.2224,-1.2361,-1.2465,-1.2526,-1.2583,-1.2687,-1.2852,-1.2735,-1.2838,-1.3044,-1.2844,-1.2822,-1.2881,-1.3021,-1.3084,-1.3084,-1.3324,-1.3509,-1.3625,-1.3533,-1.3839,-1.4402,-1.4402,-1.4529,-1.4714,-1.4714,-1.4808,-1.4931,-1.4931,-1.4931,-1.4931,-1.4931,-1.4931,-1.4931,-1.4931,-1.4931,-1.4931,-1.4931,-1.4931,-1.4931,-1.4931,-1.4931,-1.4931,-1.4931,-1.4931,-1.4931,-1.4931,-1.4931,-1.4931,-1.4931,-1.4931,-1.4931,-1.4931,-1.4931,-1.4931,-1.4931,-1.4534,-1.4141,-1.3613,-1.3095,-1.2441,-1.1912,-1.1383,-1.1115,-1.1118,-1.1115,-1.1247,-1.1247,-1.1516,-1.1648,-1.1247,-1.1247,-1.1383,-1.178,-1.178,-1.2177,-1.2836,-1.2836,-1.2836,-1.2836,-1.3104,-1.3363,-0.4809,0.0,0.0,0.0,0.0,0.0,0.0,0.0,0.0,0.0,0.0,0.0,0.0,0.0,0.0,0.0,0.0,0.0,0.0,0.0,0.0,0.0,0.0,0.0,0.0,0.0,0.0,-1.1817,-1.1935,-1.2044,-1.2134,-1.2247,-1.2351,-1.2436,-1.2441,-1.2498,-1.263,-1.263,-1.2739,-1.2942,-1.295,-1.2938,-1.3026,-1.3231,-1.3323,-1.3328,-1.3531,-1.3688,-1.3698,-1.3579,-1.3873,-1.4185,-1.4185,-1.4312,-1.4501,-1.4501,-1.4629,-1.4808,-1.4808,-1.4865,-1.4931,-1.4931,-1.4931,-1.4931,-1.4931,-1.4931,-1.4931,-1.4931,-1.4931,-1.4931,-1.4931,-1.4931,-1.4931,-1.4931,-1.4931,-1.4931,-1.4931,-1.4931,-1.4931,-1.4931,-1.4931,-1.4931,-1.4931,-1.4931,-1.4931,-1.4931,-1.467,-1.4272,-1.3879,-1.3358,-1.284,-1.2309,-1.178,-1.1516,-1.1516,-1.1516,-1.1516,-1.1648,-1.1912,-1.178,-1.1516,-1.1251,-1.1383,-1.178,-1.178,-1.2177,-1.2836,-1.2704,-1.2572,-1.2572,-1.3099,-1.3621,-0.5804,-0.5775,0.0,0.0,0.0,0.0,-0.6608,-0.6801,0.0,0.0,0.0,0.0,0.0,0.0,0.0,0.0,0.0,0.0,0.0,0.0,0.0,0.0,0.0,0.0,0.0,-1.1642,-1.1746,-1.1746,-1.177,-1.1874,-1.2091,-1.2106,-1.2195,-1.2398,-1.2408,-1.2417,-1.2441,-1.2441,-1.2535,-1.2734,-1.2758,-1.2862,-1.3041,-1.3254,-1.3353,-1.3367,-1.3566,-1.3655,-1.3655,-1.3679,-1.3802,-1.3977,-1.3977,-1.4099,-1.4279,-1.4279,-1.4411,-1.46,-1.46,-1.4733,-1.4903,-1.4903,-1.4917,-1.4931,-1.4931,-1.4931,-1.4931,-1.4931,-1.4931,-1.4931,-1.4931,-1.4931,-1.4931,-1.4931,-1.4931,-1.4931,-1.4931,-1.4931,-1.4931,-1.4931,-1.4931,-1.48,-1.4931,-1.4931,-1.48,-1.4931,-1.467,-1.4403,-1.4403,-1.3888,-1.3235,-1.2836,-1.2177,-1.178,-1.178,-1.178,-1.1912,-1.2177,-1.2177,-1.2045,-1.178,-1.1383,-1.138,-1.178,-1.1912,-1.2177,-1.2836,-1.2441,-1.2441,-1.2441,-1.3091,-1.3613,-0.6457,-0.6297,-0.619,-0.6471,0.0,0.0,0.0,-0.725,0.0,0.0,0.0,0.0,0.0,0.0,0.0,0.0,0.0,0.0,0.0,0.0,0.0,0.0,0.0,0.0,0.0,-1.1293,-1.1316,-1.1316,-1.1477,-1.1666,-1.1869,-1.1879,-1.1978,-1.2191,-1.2195,-1.2276,-1.2436,-1.2441,-1.246,-1.2502,-1.2682,-1.2786,-1.2833,-1.3036,-1.3131,-1.314,-1.3353,-1.3447,-1.3462,-1.3622,-1.3712,-1.375,-1.375,-1.3882,-1.4071,-1.4071,-1.4199,-1.4374,-1.4374,-1.4515,-1.469,-1.469,-1.4799,-1.4931,-1.4931,-1.4931,-1.4931,-1.4931,-1.4931,-1.4931,-1.4931,-1.4931,-1.4931,-1.4931,-1.4931,-1.4931,-1.4931,-1.4931,-1.4931,-1.4931,-1.467,-1.4534,-1.48,-1.467,-1.4539,-1.48,-1.48,-1.467,-1.4403,-1.401,-1.349,-1.2836,-1.2177,-1.1648,-1.1383,-1.138,-1.138,-1.138,-1.178,-1.178,-1.1383,-1.1247,-1.1247,-1.138,-1.2177,-1.2704,-1.2836,-1.2704,-1.2836,-1.3235,-1.3367,-1.3625,-0.7243,-0.7145,-0.7007,-0.7134,0.0,0.0,0.0,0.0,0.0,0.0,0.0,0.0,0.0,0.0,0.0,0.0,0.0,0.0,0.0,0.0,0.0,0.0,0.0,0.0,0.0,-1.0948,-1.0929,-1.1038,-1.1146,-1.134,-1.1652,-1.1666,-1.1765,-1.1973,-1.1978,-1.2077,-1.2285,-1.229,-1.2337,-1.2441,-1.255,-1.2602,-1.2611,-1.2824,-1.2918,-1.2937,-1.3254,-1.3391,-1.3405,-1.3608,-1.3688,-1.3688,-1.3688,-1.3755,-1.3849,-1.3849,-1.3981,-1.4161,-1.4161,-1.4298,-1.4473,-1.4473,-1.4615,-1.4785,-1.4785,-1.4851,-1.4931,-1.4931,-1.4931,-1.4931,-1.4931,-1.4931,-1.4931,-1.4931,-1.4931,-1.4931,-1.4931,-1.4931,-1.4931,-1.4931,-1.4534,-1.4272,-1.4539,-1.4403,-1.4272,-1.4539,-1.467,-1.4539,-1.4403,-1.4141,-1.3617,-1.2836,-1.2177,-1.178,-1.178,-1.1648,-1.1644,-1.2041,-1.1912,-1.1648,-1.1516,-1.1115,-1.1118,-1.1516,-1.2177,-1.2704,-1.3104,-1.2836,-1.2836,-1.3104,-1.3104,-1.3367,0.0,0.0,0.0,0.0,0.0,-0.7583,0.0,0.0,0.0,-0.7278,0.0,0.0,0.0,0.0,0.0,0.0,0.0,0.0,0.0,0.0,0.0,0.0,0.0,0.0,0.0,-1.065,-1.0645,-1.082,-1.0872,-1.1042,-1.1383,-1.1435,-1.1548,-1.1751,-1.1761,-1.1883,-1.2139,-1.2139,-1.2238,-1.2441,-1.2441,-1.2441,-1.2446,-1.2625,-1.2706,-1.2724,-1.3107,-1.3268,-1.3287,-1.3532,-1.3632,-1.3636,-1.3674,-1.3688,-1.3688,-1.3688,-1.3802,-1.3948,-1.3948,-1.4081,-1.4255,-1.4255,-1.4426,-1.4633,-1.4633,-1.4775,-1.4931,-1.4931,-1.4931,-1.4931,-1.4931,-1.4931,-1.4931,-1.4931,-1.4931,-1.4931,-1.48,-1.48,-1.48,-1.467,-1.4277,-1.3879,-1.4272,-1.401,-1.3879,-1.4272,-1.4272,-1.4272,-1.4272,-1.401,-1.349,-1.2836,-1.2177,-1.1912,-1.2045,-1.178,-1.1912,-1.2572,-1.2045,-1.1648,-1.1648,-1.0986,-1.0986,-1.1648,-1.2045,-1.2572,-1.3235,-1.3104,-1.284,-1.2836,-1.2704,-1.284,0.0,0.0,0.0,0.0,-0.791,0.0,0.0,0.0,-0.7488,-0.7488,0.0,0.0,0.0,0.0,0.0,0.0,0.0,0.0,0.0,0.0,0.0,0.0,0.0,0.0,0.0,0.0,-1.0584,-1.0608,-1.0787,-1.0915,-1.0962,-1.1137,-1.1331,-1.1543,-1.1553,-1.1742,-1.2134,-1.2139,-1.2238,-1.2441,-1.2441,-1.2441,-1.2441,-1.2465,-1.2479,-1.2488,-1.2734,-1.2838,-1.2871,-1.3263,-1.3424,-1.3443,-1.3618,-1.3688,-1.3688,-1.3688,-1.3703,-1.3726,-1.3726,-1.3863,-1.4048,-1.4048,-1.4312,-1.4633,-1.4633,-1.4775,-1.4931,-1.4931,-1.4931,-1.4931,-1.4931,-1.4931,-1.4931,-1.4931,-1.4931,-1.48,-1.4539,-1.4403,-1.4403,-1.401,-1.3757,-1.363,-1.4272,-1.3888,-1.3625,-1.3879,-1.401,-1.401,-1.401,-1.3625,-1.3235,-1.2441,-1.2045,-1.1648,-1.138,-1.1247,-1.1516,-1.1912,-1.1516,-1.1247,-1.1247,-1.0853,-1.085,-1.1247,-1.1909,-1.2441,-1.2836,-1.3235,-1.3104,-1.2836,-1.2441,-1.2177,0.0,0.0,0.0,0.0,0.0,0.0,-0.7806,0.0,-0.7521,0.0,0.0,0.0,0.0,0.0,0.0,0.0,0.0,0.0,0.0,0.0,0.0,0.0,0.0,0.0,0.0,0.0,0.0,0.0,0.0,-1.0452,-1.0693,-1.091,-1.1118,-1.1326,-1.1331,-1.1477,-1.1775,-1.1893,-1.2058,-1.2266,-1.2384,-1.2441,-1.2441,-1.2441,-1.2441,-1.245,-1.2673,-1.2767,-1.2791,-1.3084,-1.3277,-1.3395,-1.348,-1.3584,-1.3688,-1.3688,-1.3688,-1.3688,-1.3688,-1.375,-1.3844,-1.3972,-1.4133,-1.4317,-1.4563,-1.4695,-1.4785,-1.4903,-1.4931,-1.4931,-1.4931,-1.4931,-1.4931,-1.4931,-1.4931,-1.48,-1.4408,-1.4403,-1.4272,-1.401,-1.3625,-1.3367,-1.349,-1.3099,-1.2836,-1.3227,-1.3095,-1.3095,-1.3227,-1.3099,-1.2836,-1.2045,-1.1912,-1.178,-1.1516,-1.1516,-1.178,-1.2309,-1.1912,-1.1383,-1.0982,-1.0721,-1.0853,-1.1247,-1.1512,-1.1909,-1.2572,-1.2441,-1.2441,-1.2177,-1.2309,-1.2177,-0.9455,0.0,0.0,0.0,0.0,0.0,0.0,0.0,0.0,0.0,0.0,0.0,0.0,0.0,0.0,0.0,0.0,0.0,0.0,0.0,0.0,0.0,0.0,0.0,0.0,0.0,0.0,0.0,0.0,-1.0027,-1.0386,-1.0716,-1.0962,-1.1109,-1.1165,-1.1298,-1.1515,-1.1661,-1.1869,-1.2143,-1.2285,-1.2389,-1.2441,-1.2441,-1.2441,-1.245,-1.2606,-1.2677,-1.2696,-1.2899,-1.3074,-1.323,-1.3343,-1.348,-1.3613,-1.367,-1.3688,-1.3688,-1.3688,-1.3688,-1.3712,-1.3873,-1.3962,-1.4066,-1.4374,-1.4544,-1.4662,-1.4813,-1.4889,-1.4931,-1.4931,-1.4931,-1.4931,-1.4931,-1.4931,-1.48,-1.4403,-1.4272,-1.4141,-1.3617,-1.3231,-1.2972,-1.2572,-1.2441,-1.2309,-1.2441,-1.2309,-1.2309,-1.2441,-1.2572,-1.2309,-1.1648,-1.1648,-1.1648,-1.1648,-1.1648,-1.178,-1.2309,-1.1909,-1.1383,-1.0721,-1.0721,-1.0853,-1.1118,-1.1115,-1.1512,-1.2041,-1.1912,-1.178,-1.1648,-1.1912,-1.178,0.0,0.0,0.0,-0.9063,0.0,0.0,0.0,0.0,-0.7768,0.0,0.0,0.0,0.0,0.0,-0.7521,-0.7517,0.0,0.0,0.0,0.0,0.0,0.0,0.0,0.0,0.0,0.0,0.0,0.0,0.0,0.0,-0.996,-1.0556,-1.0896,-1.0905,-1.1094,-1.1298,-1.1515,-1.1524,-1.1732,-1.2139,-1.2148,-1.2252,-1.2441,-1.2441,-1.2441,-1.2441,-1.2446,-1.245,-1.2465,-1.2687,-1.2781,-1.2828,-1.3235,-1.3395,-1.3424,-1.3618,-1.3688,-1.3688,-1.3688,-1.3688,-1.3688,-1.3698,-1.384,-1.4014,-1.4029,-1.4312,-1.4638,-1.4643,-1.4785,-1.4931,-1.4931,-1.4931,-1.4931,-1.4931,-1.4931,-1.467,-1.401,-1.3879,-1.3617,-1.2572,-1.2309,-1.2177,-1.1912,-1.2045,-1.2177,-1.1912,-1.178,-1.178,-1.178,-1.178,-1.1648,-1.1247,-1.1247,-1.1247,-1.1247,-1.1247,-1.1247,-1.1247,-1.1247,-1.1118,-1.0721,-1.0721,-1.0721,-1.0721,-1.0982,-1.1247,-1.1247,-1.1648,-1.1648,-1.1247,-1.1247,-1.1118,0.0,0.0,-0.9455,-0.911,0.0,0.0,0.0,0.0,0.0,0.0,0.0,0.0,0.0,0.0,-0.7626,-0.7545,-0.7177,0.0,0.0,0.0,0.0,0.0,0.0,0.0,0.0,0.0,0.0,0.0,-0.8713,0.0,0.0,-1.014,-1.0608,-1.0886,-1.109,-1.1231,-1.1302,-1.1444,-1.1586,-1.1732,-1.2006,-1.2176,-1.2243,-1.238,-1.2441,-1.2441,-1.2441,-1.2441,-1.2446,-1.2521,-1.2635,-1.2795,-1.3069,-1.3263,-1.3414,-1.3613,-1.3688,-1.3688,-1.3688,-1.3688,-1.3688,-1.3688,-1.374,-1.3825,-1.3967,-1.4109,-1.4279,-1.4558,-1.4685,-1.4766,-1.4898,-1.4931,-1.4931,-1.4931,-1.4931,-1.467,-1.4006,-1.3744,-1.335,-1.2441,-1.2177,-1.1912,-1.1512,-1.1516,-1.1512,-1.138,-1.1247,-1.1118,-1.138,-1.1383,-1.138,-1.1247,-1.1247,-1.1247,-1.1247,-1.1383,-1.1512,-1.1247,-1.1247,-1.0982,-1.0721,-1.0721,-1.0721,-1.0721,-1.0853,-1.0853,-1.0853,-1.0986,-1.0982,-1.0853,-1.0853,-1.0853,-1.0381,-1.013,0.0,-0.9441,-0.9138,0.0,-0.8396,0.0,0.0,0.0,0.0,0.0,0.0,0.0,-0.7735,-0.766,-0.7168,-0.6693,0.0,0.0,0.0,0.0,0.0,0.0,0.0,0.0,-0.7593,-0.7669,0.0,0.0,0.0,0.0,-1.0353,-1.0768,-1.0981,-1.1123,-1.1194,-1.1335,-1.1439,-1.1524,-1.186,-1.2063,-1.2148,-1.2346,-1.2441,-1.2441,-1.2441,-1.2441,-1.2441,-1.2441,-1.2521,-1.2673,-1.288,-1.3088,-1.3306,-1.3584,-1.3688,-1.3688,-1.3688,-1.3688,-1.3688,-1.3688,-1.3688,-1.3712,-1.3854,-1.3948,-1.4066,-1.4336,-1.452,-1.4662,-1.466,-1.4749,-1.4931,-1.48,-1.48,-1.467,-1.4006,-1.3613,-1.3087,-1.2305,-1.178,-1.1516,-1.1115,-1.0986,-1.0986,-1.0986,-1.0853,-1.0721,-1.0982,-1.0986,-1.0986,-1.0986,-1.0986,-1.0986,-1.0986,-1.1251,-1.1251,-1.0982,-1.0986,-1.0982,-1.0721,-1.0721,-1.0721,-1.0721,-1.0721,-1.0721,-1.0721,-1.0721,-1.0721,-1.0721,-1.0721,-1.0721]},{"header":{"parameterUnit":"m.s-1","parameterCategory":1,"la1":30.6,"la2":29.2853,"lo1":-89.7004,"lo2":-87.6739,"dy":0.0162,"dx":0.0183,"nx":112,"ny":82,"refTime":"2024-06-25T18:00:00:Z","depth":0,"parameterNumber":3,"parameterNumberName":"V-component_of_WINDS"},"data":[0.0,0.0,0.0,0.0,0.0,0.0,0.0,0.0,0.0,0.0,0.0,0.0,0.0,0.0,0.0,0.0,0.0,0.0,0.0,0.0,0.0,0.0,0.0,0.0,0.0,0.0,0.0,0.0,0.0,0.0,0.0,0.0,0.0,0.0,0.0,0.0,0.0,0.0,0.0,0.0,0.0,0.0,0.0,0.0,0.0,0.0,0.0,0.0,0.0,0.0,0.0,0.0,0.0,0.0,0.0,0.0,0.0,0.0,0.0,0.0,0.0,0.0,0.0,0.0,0.0,0.0,0.0,0.0,0.0,0.0,0.0,0.0,0.0,0.0,0.0,0.0,0.0,0.0,0.0,0.0,0.0,0.0,0.0,0.0,0.0,0.0,0.0,0.0,0.0,0.0,0.0,-3.7074,-4.0973,-4.3297,-4.3297,-4.0269,-3.7635,-3.583,0.0,0.0,0.0,0.0,0.0,0.0,0.0,0.0,0.0,0.0,0.0,0.0,0.0,0.0,0.0,0.0,0.0,0.0,0.0,0.0,0.0,0.0,0.0,0.0,0.0,0.0,0.0,0.0,0.0,0.0,0.0,0.0,0.0,0.0,0.0,0.0,0.0,0.0,0.0,0.0,0.0,0.0,0.0,0.0,0.0,0.0,0.0,0.0,0.0,0.0,0.0,0.0,0.0,0.0,0.0,0.0,0.0,0.0,0.0,0.0,0.0,0.0,0.0,0.0,0.0,0.0,0.0,0.0,0.0,0.0,0.0,0.0,0.0,0.0,0.0,0.0,0.0,0.0,0.0,0.0,0.0,0.0,0.0,0.0,0.0,0.0,0.0,0.0,0.0,0.0,0.0,0.0,0.0,0.0,0.0,0.0,0.0,0.0,0.0,0.0,0.0,0.0,0.0,0.0,-3.4019,-4.0338,-4.2874,-4.4124,-4.4124,-4.1713,-3.9177,-3.6755,0.0,0.0,0.0,0.0,0.0,0.0,0.0,0.0,0.0,0.0,0.0,0.0,0.0,0.0,0.0,0.0,0.0,0.0,0.0,0.0,0.0,0.0,0.0,0.0,0.0,0.0,0.0,0.0,0.0,0.0,0.0,0.0,0.0,0.0,0.0,0.0,0.0,0.0,0.0,0.0,0.0,0.0,0.0,0.0,0.0,0.0,0.0,0.0,0.0,0.0,0.0,0.0,0.0,0.0,0.0,0.0,0.0,0.0,0.0,0.0,0.0,0.0,0.0,0.0,0.0,0.0,0.0,0.0,0.0,0.0,0.0,0.0,0.0,0.0,0.0,0.0,0.0,0.0,0.0,0.0,0.0,0.0,0.0,0.0,0.0,0.0,0.0,0.0,0.0,0.0,0.0,0.0,0.0,0.0,0.0,0.0,0.0,0.0,0.0,0.0,0.0,0.0,0.0,-3.4211,-3.7993,-4.2066,-4.3989,-4.4641,-4.3734,-4.1782,-3.9147,-3.5712,-3.1623,0.0,0.0,0.0,0.0,0.0,0.0,0.0,0.0,0.0,0.0,0.0,0.0,0.0,0.0,0.0,0.0,0.0,0.0,0.0,0.0,0.0,0.0,0.0,0.0,0.0,0.0,0.0,0.0,0.0,0.0,0.0,0.0,0.0,0.0,0.0,0.0,0.0,0.0,0.0,0.0,0.0,0.0,0.0,0.0,0.0,0.0,0.0,0.0,0.0,0.0,0.0,0.0,0.0,0.0,0.0,0.0,0.0,0.0,0.0,0.0,0.0,0.0,0.0,0.0,0.0,0.0,0.0,0.0,0.0,0.0,0.0,0.0,0.0,0.0,0.0,0.0,0.0,0.0,0.0,0.0,0.0,0.0,0.0,0.0,0.0,0.0,0.0,0.0,0.0,0.0,0.0,0.0,0.0,0.0,0.0,0.0,0.0,0.0,0.0,0.0,0.0,0.0,-3.7353,-4.1178,-4.2909,-4.4603,-4.5024,-4.3532,-4.1692,-3.8917,-3.4928,-3.1359,0.0,0.0,0.0,0.0,0.0,0.0,0.0,0.0,0.0,0.0,0.0,0.0,0.0,0.0,0.0,0.0,0.0,0.0,0.0,0.0,0.0,0.0,0.0,0.0,0.0,0.0,0.0,0.0,0.0,0.0,0.0,0.0,0.0,0.0,0.0,0.0,0.0,0.0,0.0,0.0,0.0,0.0,0.0,0.0,0.0,0.0,0.0,0.0,0.0,0.0,0.0,0.0,0.0,0.0,0.0,0.0,0.0,0.0,0.0,0.0,0.0,0.0,0.0,0.0,0.0,0.0,0.0,0.0,0.0,0.0,0.0,0.0,0.0,0.0,0.0,0.0,0.0,0.0,0.0,0.0,0.0,0.0,0.0,0.0,0.0,0.0,0.0,0.0,0.0,0.0,0.0,0.0,0.0,0.0,0.0,0.0,0.0,0.0,0.0,0.0,0.0,0.0,-3.7353,-4.1158,-4.2919,-4.4652,-4.5324,-4.4392,-4.2091,-3.9199,-3.5739,-3.1668,0.0,0.0,0.0,0.0,0.0,0.0,0.0,0.0,0.0,0.0,0.0,0.0,0.0,0.0,0.0,0.0,0.0,0.0,0.0,0.0,0.0,0.0,0.0,0.0,0.0,0.0,0.0,0.0,0.0,0.0,0.0,0.0,0.0,0.0,0.0,0.0,0.0,0.0,0.0,0.0,0.0,0.0,0.0,0.0,0.0,0.0,0.0,0.0,0.0,0.0,0.0,0.0,0.0,0.0,0.0,0.0,0.0,0.0,0.0,0.0,0.0,0.0,0.0,0.0,0.0,0.0,0.0,0.0,0.0,0.0,0.0,0.0,0.0,0.0,0.0,0.0,0.0,0.0,0.0,0.0,0.0,0.0,0.0,0.0,0.0,0.0,0.0,0.0,0.0,0.0,0.0,0.0,0.0,0.0,0.0,0.0,0.0,0.0,0.0,0.0,0.0,0.0,-3.8055,-4.1435,0.0,-4.5009,-4.521,-4.383,-4.1906,-3.8855,-3.439,0.0,0.0,0.0,0.0,0.0,0.0,0.0,0.0,0.0,0.0,0.0,0.0,0.0,0.0,0.0,0.0,0.0,0.0,0.0,0.0,0.0,0.0,0.0,0.0,0.0,0.0,0.0,0.0,0.0,0.0,0.0,0.0,0.0,0.0,0.0,0.0,0.0,0.0,0.0,0.0,0.0,0.0,0.0,0.0,0.0,0.0,0.0,0.0,0.0,0.0,0.0,0.0,0.0,0.0,0.0,0.0,0.0,0.0,0.0,0.0,0.0,0.0,0.0,0.0,0.0,0.0,0.0,0.0,0.0,0.0,0.0,0.0,0.0,0.0,0.0,0.0,0.0,0.0,0.0,0.0,0.0,0.0,0.0,0.0,0.0,0.0,0.0,0.0,0.0,0.0,0.0,0.0,0.0,0.0,0.0,0.0,0.0,0.0,0.0,0.0,0.0,0.0,-3.4873,-3.8502,-4.1596,0.0,-4.5278,-4.5142,-4.346,-4.1795,-3.8656,-3.3546,0.0,0.0,0.0,0.0,0.0,0.0,0.0,0.0,0.0,0.0,0.0,0.0,0.0,0.0,0.0,0.0,0.0,0.0,0.0,0.0,0.0,0.0,0.0,0.0,0.0,0.0,0.0,0.0,0.0,0.0,0.0,0.0,0.0,0.0,0.0,0.0,0.0,0.0,0.0,0.0,0.0,0.0,0.0,0.0,0.0,0.0,0.0,0.0,0.0,0.0,0.0,0.0,0.0,0.0,0.0,0.0,0.0,0.0,0.0,0.0,0.0,0.0,0.0,0.0,0.0,0.0,0.0,0.0,0.0,0.0,0.0,0.0,0.0,0.0,0.0,0.0,0.0,0.0,0.0,0.0,0.0,0.0,0.0,0.0,0.0,0.0,0.0,0.0,0.0,0.0,0.0,0.0,0.0,0.0,0.0,0.0,0.0,0.0,0.0,0.0,0.0,0.0,-3.4967,-3.8543,-4.1652,-4.433,-4.5396,-4.5221,-4.3535,-4.1859,-3.8719,0.0,0.0,0.0,0.0,0.0,0.0,0.0,0.0,0.0,0.0,0.0,0.0,0.0,0.0,0.0,0.0,0.0,0.0,0.0,0.0,0.0,0.0,0.0,0.0,0.0,0.0,0.0,0.0,0.0,0.0,0.0,0.0,0.0,0.0,0.0,0.0,0.0,0.0,0.0,0.0,0.0,0.0,0.0,0.0,0.0,0.0,0.0,0.0,0.0,0.0,0.0,0.0,0.0,0.0,0.0,0.0,0.0,0.0,0.0,0.0,0.0,0.0,0.0,0.0,0.0,0.0,0.0,0.0,0.0,0.0,0.0,0.0,0.0,0.0,0.0,0.0,0.0,0.0,0.0,0.0,0.0,0.0,0.0,0.0,0.0,0.0,0.0,0.0,0.0,0.0,0.0,0.0,0.0,0.0,0.0,0.0,0.0,0.0,0.0,0.0,0.0,0.0,0.0,-3.6619,-3.9844,-4.2609,-4.5241,-4.5782,-4.5295,-4.3617,-4.1933,-3.9038,-3.4504,0.0,0.0,0.0,0.0,0.0,0.0,0.0,0.0,0.0,0.0,0.0,0.0,0.0,0.0,0.0,0.0,0.0,0.0,0.0,0.0,0.0,0.0,0.0,0.0,0.0,0.0,0.0,0.0,0.0,0.0,0.0,0.0,0.0,0.0,0.0,0.0,0.0,0.0,0.0,0.0,0.0,0.0,0.0,0.0,0.0,0.0,0.0,0.0,0.0,0.0,0.0,0.0,0.0,0.0,0.0,0.0,0.0,0.0,0.0,0.0,0.0,0.0,0.0,0.0,0.0,0.0,0.0,0.0,0.0,0.0,0.0,0.0,0.0,0.0,0.0,0.0,0.0,0.0,0.0,0.0,0.0,0.0,0.0,0.0,0.0,0.0,0.0,0.0,0.0,0.0,0.0,0.0,0.0,0.0,0.0,0.0,0.0,0.0,0.0,0.0,0.0,0.0,-3.7464,-4.044,-4.3051,-4.5665,-4.5994,-4.5502,-4.4178,-4.2498,-3.9689,-3.5385,0.0,0.0,0.0,0.0,0.0,0.0,0.0,0.0,0.0,0.0,0.0,0.0,0.0,0.0,0.0,0.0,0.0,0.0,0.0,0.0,0.0,0.0,0.0,0.0,0.0,0.0,0.0,0.0,0.0,0.0,0.0,0.0,0.0,0.0,0.0,0.0,0.0,0.0,0.0,0.0,0.0,0.0,0.0,0.0,0.0,0.0,0.0,0.0,0.0,0.0,0.0,0.0,0.0,0.0,0.0,0.0,0.0,0.0,0.0,0.0,0.0,0.0,0.0,0.0,0.0,0.0,0.0,0.0,0.0,0.0,0.0,0.0,0.0,0.0,0.0,0.0,0.0,0.0,0.0,0.0,0.0,0.0,0.0,0.0,0.0,0.0,0.0,0.0,0.0,0.0,0.0,0.0,0.0,0.0,0.0,0.0,0.0,0.0,0.0,0.0,0.0,0.0,-3.7773,-4.0654,-4.3197,-4.5735,-4.6076,-4.5773,-4.4959,-4.3298,-4.0565,-3.6512,0.0,0.0,0.0,0.0,0.0,0.0,0.0,0.0,0.0,0.0,0.0,0.0,0.0,0.0,0.0,0.0,0.0,0.0,0.0,0.0,0.0,0.0,0.0,0.0,0.0,0.0,0.0,0.0,0.0,0.0,0.0,0.0,0.0,0.0,0.0,0.0,0.0,0.0,0.0,0.0,0.0,0.0,0.0,0.0,0.0,0.0,0.0,0.0,0.0,0.0,0.0,0.0,0.0,0.0,0.0,0.0,0.0,0.0,0.0,0.0,-3.3765,0.0,0.0,0.0,0.0,0.0,0.0,0.0,0.0,0.0,0.0,0.0,0.0,0.0,0.0,0.0,0.0,0.0,0.0,0.0,0.0,0.0,0.0,0.0,0.0,0.0,0.0,0.0,0.0,0.0,0.0,0.0,0.0,0.0,0.0,0.0,0.0,0.0,0.0,0.0,0.0,0.0,-3.8741,-4.1636,-4.3947,-4.5861,-4.6141,-4.5835,-4.4961,-4.3312,-4.1344,-3.9104,-3.4467,0.0,0.0,0.0,0.0,0.0,0.0,0.0,0.0,0.0,0.0,0.0,0.0,0.0,0.0,0.0,0.0,0.0,0.0,0.0,0.0,0.0,0.0,0.0,0.0,0.0,0.0,0.0,0.0,0.0,0.0,0.0,0.0,0.0,0.0,0.0,0.0,0.0,0.0,0.0,0.0,0.0,0.0,0.0,0.0,0.0,0.0,0.0,0.0,0.0,0.0,0.0,0.0,0.0,0.0,0.0,0.0,0.0,0.0,0.0,0.0,-3.6226,0.0,0.0,0.0,0.0,0.0,0.0,0.0,0.0,0.0,0.0,0.0,0.0,0.0,0.0,0.0,0.0,0.0,0.0,0.0,0.0,0.0,0.0,0.0,0.0,0.0,0.0,0.0,0.0,0.0,0.0,0.0,0.0,0.0,0.0,0.0,0.0,0.0,0.0,0.0,0.0,-3.9143,-4.1952,-4.4217,-4.5955,-4.6185,-4.6018,-4.5553,-4.4306,-4.2669,-4.0565,-3.7116,0.0,0.0,0.0,0.0,0.0,0.0,0.0,0.0,0.0,0.0,0.0,0.0,0.0,0.0,0.0,0.0,0.0,0.0,0.0,0.0,0.0,0.0,0.0,0.0,0.0,0.0,0.0,0.0,0.0,0.0,0.0,0.0,0.0,0.0,0.0,0.0,0.0,0.0,0.0,0.0,0.0,0.0,0.0,0.0,0.0,0.0,0.0,0.0,0.0,0.0,0.0,0.0,0.0,-4.4816,-4.5694,-4.7352,-4.8146,-4.8619,-4.8619,-4.4343,-4.1896,-4.0793,0.0,0.0,0.0,0.0,0.0,0.0,0.0,0.0,0.0,0.0,0.0,0.0,0.0,0.0,0.0,0.0,0.0,0.0,0.0,0.0,0.0,0.0,0.0,0.0,0.0,-4.2968,-4.3507,0.0,0.0,0.0,0.0,0.0,0.0,0.0,0.0,0.0,0.0,0.0,0.0,-3.97,-4.2288,-4.4445,-4.6037,-4.6193,-4.6201,-4.6196,-4.5397,-4.3994,-4.1909,-4.0,-3.7292,0.0,0.0,0.0,0.0,0.0,0.0,0.0,0.0,0.0,0.0,0.0,0.0,0.0,0.0,0.0,0.0,0.0,0.0,0.0,0.0,0.0,0.0,0.0,0.0,0.0,0.0,0.0,0.0,0.0,0.0,0.0,0.0,-2.6422,-2.7647,0.0,0.0,0.0,0.0,0.0,0.0,0.0,0.0,0.0,0.0,0.0,0.0,0.0,-4.3431,-4.5007,-4.5982,-4.7416,-4.9263,-4.9267,-5.0165,-5.1843,-5.1977,-5.2843,-5.423,-5.3549,0.0,-4.5275,-4.4358,0.0,0.0,0.0,0.0,0.0,0.0,0.0,0.0,0.0,0.0,0.0,0.0,0.0,0.0,0.0,0.0,0.0,0.0,0.0,0.0,0.0,0.0,-4.5391,-4.6281,-4.7852,-4.8787,0.0,-4.3312,-3.924,-3.696,-3.5032,0.0,0.0,0.0,0.0,0.0,0.0,0.0,-4.1513,-4.3578,-4.5098,-4.6098,-4.6196,-4.6196,-4.6196,-4.5397,-4.4754,-4.4423,-4.2104,-4.0156,-3.8831,-3.5655,0.0,0.0,0.0,0.0,0.0,0.0,0.0,0.0,0.0,0.0,0.0,0.0,0.0,0.0,0.0,0.0,0.0,0.0,0.0,0.0,0.0,0.0,0.0,0.0,0.0,0.0,0.0,0.0,0.0,-2.5849,-2.9101,-3.0944,-3.1038,-3.1354,0.0,0.0,0.0,0.0,0.0,0.0,0.0,0.0,0.0,-4.3916,-4.6573,-4.8548,-4.977,-5.1146,-5.2698,-5.4426,-5.4435,-5.5103,-5.6356,-5.6344,-5.6764,-5.7493,-5.7447,-5.5638,-5.2533,-5.026,-4.7806,-4.532,0.0,0.0,0.0,0.0,-4.1944,-4.2476,-4.3284,-4.3883,0.0,-4.2824,0.0,0.0,0.0,0.0,0.0,0.0,0.0,0.0,0.0,0.0,0.0,-4.9527,-5.095,-5.2099,-5.1749,-4.9508,-4.6371,0.0,-3.9747,-3.8013,-3.7272,0.0,0.0,0.0,0.0,0.0,-4.3448,-4.528,-4.6702,-4.756,-4.7209,-4.6936,-4.6936,-4.6137,-4.5416,-4.4929,-4.3858,-4.2611,-4.1266,-3.8831,-3.6317,0.0,0.0,0.0,0.0,0.0,0.0,0.0,0.0,0.0,0.0,0.0,0.0,0.0,0.0,0.0,0.0,0.0,0.0,0.0,0.0,0.0,0.0,0.0,0.0,0.0,0.0,0.0,0.0,-2.8889,-3.1535,-3.4371,-3.4133,-3.4328,0.0,0.0,0.0,0.0,0.0,0.0,-4.2933,-4.5487,-4.7275,-4.8133,-5.1291,-5.3267,-5.3923,-5.5432,-5.6848,-5.8133,-5.8143,-5.8636,-5.9514,-5.9514,-5.9628,-5.9837,-5.9793,-5.9269,-5.8231,-5.5245,-5.2635,-5.0418,-4.9118,-4.808,-4.7327,-4.7528,-4.802,-4.8691,-4.9517,-5.0231,-5.0633,-4.9749,0.0,-4.5884,-4.4143,0.0,0.0,0.0,0.0,-4.619,-4.8529,-5.1023,-5.2933,-5.2937,-5.4106,-5.51,-5.4652,-5.4067,-5.2197,0.0,-4.4481,-4.2669,-4.2435,0.0,0.0,0.0,0.0,-4.3858,-4.5377,-4.6897,-4.8086,-4.8729,-4.8222,-4.7735,-4.7521,-4.6917,-4.6157,-4.528,-4.5222,-4.454,-4.3039,-4.1344,-3.9318,-3.6941,0.0,0.0,0.0,0.0,0.0,0.0,0.0,0.0,0.0,0.0,0.0,0.0,0.0,0.0,0.0,0.0,0.0,0.0,0.0,0.0,0.0,0.0,0.0,0.0,0.0,0.0,0.0,0.0,0.0,-3.7839,-3.821,0.0,0.0,0.0,0.0,-4.2003,-4.4351,-4.6528,-4.8321,-5.0821,-5.2621,-5.3501,-5.6086,-5.7492,-5.7543,-5.8454,-5.8948,-5.9046,-5.9104,-5.9553,-6.0329,-6.0329,-6.0796,-6.1573,-6.1573,-6.1061,-6.0132,-5.8295,-5.6528,-5.497,-5.4883,-5.4307,-5.364,-5.441,-5.4716,-5.487,-5.5755,-5.6071,-5.5957,-5.51,-5.2508,-4.943,-4.7754,-4.658,0.0,0.0,-4.9613,-5.1335,-5.3112,-5.547,-5.7379,-5.7379,-5.8081,-5.8314,-5.6697,-5.6327,-5.5256,0.0,-4.8923,-4.6917,-4.6079,0.0,-4.3643,-4.4501,-4.5416,-4.6332,-4.7248,-4.8164,-4.8748,-4.8806,-4.8768,-4.8397,-4.756,-4.7462,-4.7053,-4.6196,-4.6137,-4.5709,-4.4812,-4.3098,-4.1364,-3.9649,-3.5421,0.0,0.0,0.0,0.0,0.0,0.0,0.0,0.0,0.0,0.0,0.0,0.0,0.0,0.0,0.0,0.0,0.0,0.0,0.0,0.0,0.0,0.0,0.0,0.0,0.0,0.0,0.0,0.0,-4.1251,-4.1298,0.0,0.0,-4.454,-4.5202,-4.7216,-4.9191,-5.084,-5.2029,-5.4531,-5.6079,-5.6398,-5.8402,-5.9476,-5.9474,-6.0333,-6.1047,-6.1616,-6.1635,-6.2088,-6.2908,-6.292,-6.3078,-6.3363,-6.3325,-6.3136,-6.275,-6.1563,-5.9753,-5.7758,-5.7742,-5.7562,-5.7319,-5.7597,-5.77,-5.7758,-5.8028,-5.8109,-5.7964,-5.7087,-5.5976,-5.4632,-5.2957,-5.2236,-5.2243,-5.3424,-5.4192,-5.505,-5.6736,-5.7866,-5.8529,-5.8529,-5.8763,-5.8841,-5.8237,-5.81,-5.7574,-5.5762,-5.2918,-5.0677,-5.0365,-4.9333,-4.867,-4.8962,-4.9761,-5.0424,-5.0735,-5.1047,-5.1242,-5.1242,-5.0248,-4.9235,-4.8417,-4.7813,-4.7131,-4.6254,-4.6196,-4.6059,-4.5748,-4.4052,-4.2591,-4.1442,-3.7759,-3.4837,0.0,0.0,0.0,0.0,0.0,0.0,0.0,0.0,0.0,0.0,0.0,0.0,0.0,0.0,0.0,0.0,0.0,0.0,0.0,0.0,0.0,0.0,0.0,0.0,0.0,0.0,-3.99,-4.4787,-4.4839,-4.5611,-4.8509,-4.8794,-4.9632,-5.1666,-5.3374,-5.4691,-5.5567,-5.7541,-5.8648,-5.8675,-6.0366,-6.1283,-6.1281,-6.2128,-6.2842,-6.3431,-6.3423,-6.3716,-6.4271,-6.4262,-6.426,-6.4267,-6.4213,-6.4205,-6.4127,-6.3257,-6.1907,-6.0347,-6.006,-5.9943,-5.9937,-5.9942,-5.9935,-5.9935,-5.9882,-5.9873,-5.9737,-5.886,-5.8587,-5.8314,-5.6912,-5.6483,-5.6658,-5.7535,-5.7769,-5.81,-5.9503,-5.9873,-5.9873,-5.9873,-5.9873,-5.9795,-5.9503,-5.9445,-5.9172,-5.8314,-5.584,-5.3814,-5.3541,-5.2742,-5.2177,-5.2177,-5.2664,-5.3034,-5.3034,-5.3034,-5.2937,-5.2625,-5.1573,-5.0424,-4.9294,-4.8436,-4.756,-4.6683,-4.6352,-4.6196,-4.6196,-4.454,-4.3325,-4.2747,-3.9084,-3.6337,-3.4583,0.0,0.0,0.0,0.0,0.0,0.0,0.0,0.0,0.0,0.0,0.0,0.0,0.0,0.0,0.0,0.0,0.0,0.0,0.0,0.0,0.0,0.0,0.0,-3.8375,-4.0894,-4.4124,-4.8358,-4.8923,-4.9625,-5.13,-5.3015,-5.4379,-5.5256,-5.6853,-5.8139,-5.8996,-5.988,-6.0383,-6.0483,-6.2122,-6.3018,-6.3047,-6.3806,-6.4255,-6.4336,-6.4262,-6.4248,-6.4281,-6.4271,-6.4271,-6.4287,-6.4287,-6.4271,-6.4216,-6.3339,-6.2979,-6.289,-6.1958,-6.1619,-6.1642,-6.1603,-6.1606,-6.1607,-6.1607,-6.1607,-6.1451,-6.0614,-6.0341,-6.0185,-5.9347,-5.9074,-5.925,-6.0107,-6.0341,-6.0536,-6.1373,-6.1607,-6.1607,-6.1607,-6.1607,-6.1373,-6.0516,-6.0341,-6.0088,-5.9211,-5.773,-5.6327,-5.5431,-5.4554,-5.3989,-5.3989,-5.3989,0.0,-5.3989,-5.397,-5.3619,-5.2781,-5.2625,-5.1904,-5.019,-4.9294,-4.8456,-4.756,-4.6702,-4.6235,-4.6196,-4.4559,-4.3598,-4.3559,-3.9474,-3.6493,-3.4759,0.0,0.0,0.0,0.0,0.0,0.0,0.0,0.0,0.0,0.0,0.0,0.0,0.0,0.0,0.0,0.0,0.0,0.0,0.0,0.0,0.0,0.0,-4.0721,-4.1188,-4.4059,-4.7216,-5.0248,-5.1729,-5.3171,-5.4905,-5.6035,-5.7029,-5.7886,-5.8977,-5.9698,-5.9932,-6.0773,-6.1529,-6.218,-6.2719,-6.3271,-6.3851,-6.4079,-6.4522,-6.5179,-6.5145,-6.5476,-6.6081,-6.6018,-6.6009,-6.6018,-6.602,-6.6011,-6.5942,-6.5066,-6.4715,-6.45,-6.2422,-6.199,-6.2465,-6.1826,-6.1606,-6.1607,-6.1607,-6.1607,-6.1568,-6.1315,-6.1237,-6.1198,-6.0964,-6.0886,-6.0945,-6.1179,-6.1237,-6.1295,-6.1549,-6.1607,-6.1607,-6.1607,-6.1607,-6.1529,-6.1295,-6.1237,-6.0984,-6.0107,-5.9561,-5.8782,-5.7262,-5.6327,-5.5782,-5.5782,-5.5782,0.0,-5.5782,-5.5236,-5.4749,-5.4515,-5.3346,-5.2158,-5.1047,-5.0151,-4.904,-4.7579,-4.7287,-4.6858,-4.6235,-4.5124,-4.3955,-4.2689,-4.15,-4.0058,0.0,0.0,0.0,0.0,0.0,0.0,0.0,0.0,0.0,0.0,0.0,0.0,0.0,0.0,0.0,0.0,0.0,0.0,0.0,0.0,0.0,0.0,-4.302,-4.5397,-4.6468,-4.8047,-5.017,-5.3132,-5.4379,-5.5665,-5.7379,-5.8295,-5.8996,-5.9503,-6.0341,-6.1003,-6.1373,-6.1876,-6.2536,-6.3413,-6.3833,-6.4275,-6.473,-6.5074,-6.5515,-6.6042,-6.6018,-6.6466,-6.7294,-6.7248,-6.7433,0.0,-6.7794,-6.7589,-6.718,-6.6303,-6.5738,0.0,0.0,0.0,0.0,0.0,-6.2357,-6.2601,-6.225,-6.2133,-6.2075,-6.1724,-6.1607,-6.1607,-6.1607,-6.1607,-6.1607,-6.1607,-6.1607,-6.1607,-6.1607,-6.1607,-6.1607,-6.1607,-6.1607,-6.1607,-6.1607,-6.1607,-6.1451,-6.0945,-6.0555,0.0,-5.8957,-5.7788,-5.699,-5.699,-5.6717,-5.6503,-5.6503,-5.6054,-5.5606,-5.5236,-5.4301,-5.319,-5.1943,-5.1047,0.0,0.0,0.0,-4.6956,-4.5709,-4.5163,0.0,0.0,0.0,0.0,0.0,0.0,0.0,0.0,-3.8285,-3.8733,0.0,0.0,0.0,0.0,0.0,0.0,0.0,0.0,0.0,0.0,0.0,0.0,0.0,0.0,0.0,0.0,-4.7579,-5.0112,-5.2684,-5.2372,-5.3034,-5.6132,-5.6756,-5.7516,-5.8996,-5.9932,-6.0458,-6.0458,-6.1257,-6.2075,-6.2854,0.0,0.0,0.0,0.0,-6.5527,-6.5625,-6.6447,-6.6876,-6.6931,-6.6966,-6.7404,-6.8144,-6.8144,-6.8563,-6.9303,-6.9303,-6.8855,-6.8095,-6.7316,-6.6478,-6.5601,-6.4627,-6.375,-6.3049,-6.3146,-6.3575,-6.4004,-6.3283,0.0,0.0,-6.1997,-6.1685,-6.1607,-6.1607,-6.1607,-6.1607,-6.1607,-6.1607,-6.1607,-6.1607,-6.1607,-6.1607,-6.1607,-6.1607,-6.1607,-6.1607,-6.1607,-6.1607,-6.1607,-6.0984,-6.0458,-6.0458,-5.8996,-5.7808,-5.7711,-5.7087,-5.66,-5.6503,-5.6503,-5.6191,-5.5431,0.0,0.0,-5.2898,-5.1943,-5.1028,-5.0053,-4.8514,-4.6956,-4.5397,-4.5338,-4.4988,-4.4208,-4.4949,-4.5338,-4.5338,-4.6118,-4.6488,-4.641,-4.3273,-4.263,0.0,0.0,0.0,0.0,0.0,0.0,0.0,0.0,0.0,0.0,0.0,0.0,0.0,0.0,0.0,-4.828,-5.0618,-5.2762,-5.5372,-5.5606,-5.5743,-5.6425,-5.8314,-5.9698,-6.001,-6.0847,-6.1354,-6.1354,-6.2153,-6.2718,-6.2893,-6.3564,0.0,-6.521,-6.5402,-6.582,-6.6466,-6.7315,-6.7755,-6.7774,0.0,0.0,-6.9041,-6.905,-6.9128,-6.9303,-6.9303,-6.9206,-6.903,-6.8875,-6.8271,-6.7335,-6.5757,-6.4627,-6.3945,-6.4666,-6.4569,-6.4082,-6.3926,-6.3439,-6.2874,-6.2698,-6.2172,-6.1607,-6.1607,-6.1607,0.0,-6.1607,-6.1607,-6.1607,-6.1607,-6.1607,-6.1607,-6.1607,-6.1607,-6.1607,-6.1607,-6.1607,-6.1607,-6.1607,-6.1451,-6.1354,-6.1354,-5.9893,-5.8509,-5.7808,-5.7574,-5.7223,-5.658,-5.6503,-5.6444,-5.6269,-5.5626,-5.4788,-5.3736,-5.2859,-5.169,-5.0092,-4.9099,-4.8397,-4.8066,-4.8047,-4.7969,-4.7793,-4.7969,-4.8047,-4.8047,-4.8202,-4.83,-4.8261,-4.6897,-4.6429,0.0,0.0,0.0,0.0,0.0,0.0,0.0,0.0,0.0,0.0,0.0,-4.0584,-4.3176,0.0,-4.8436,-5.1456,-5.3405,-5.5139,-5.6853,-5.7847,-5.8392,-5.8392,-5.9522,-6.0477,-6.0906,-6.1334,-6.1783,-6.2211,-6.2659,-6.3263,-6.4101,-6.4559,-6.5192,-6.6069,-6.6527,-6.6936,-6.7355,-6.8213,-6.8651,-6.866,-6.9089,-6.9518,-6.9946,-6.9946,-7.0161,-7.055,-7.055,-7.0316,-6.9907,-6.9479,-6.903,-6.8524,-6.7219,-6.6166,-6.5407,-6.5407,-6.5407,-6.5348,-6.49,-6.4491,-6.4082,-6.3634,-6.2932,-6.225,-6.225,-6.1958,-6.1607,-6.1607,-6.1607,-6.1607,-6.1607,-6.1607,-6.1607,-6.1607,-6.1607,-6.1607,-6.1607,-6.1607,-6.1607,-6.1607,-6.1607,-6.1607,-6.1607,-6.0886,-6.001,-5.9133,-5.8256,-5.7555,-5.7145,-5.6756,-5.6503,-5.6503,-5.6113,-5.5509,-5.4613,-5.3346,-5.2041,-5.0735,-4.9859,-4.9216,-4.8826,-4.8806,-4.8806,-4.8806,-4.9196,-4.9391,-4.9391,-5.0271,-5.07,-5.07,-5.0635,-5.0168,0.0,0.0,0.0,0.0,0.0,0.0,0.0,0.0,-4.1033,-4.1033,-4.4189,-4.7306,-4.8514,-5.056,-5.2625,-5.4359,-5.5957,-5.7262,-5.8081,-5.9406,-6.036,-6.0536,-6.0555,-6.0828,-6.1529,-6.1607,-6.1958,-6.2835,-6.3049,-6.3809,-6.5329,-6.5562,-6.605,-6.6926,-6.7628,-6.8076,-6.8251,-6.9128,-6.9537,-6.9557,-6.9712,-7.0141,-7.0823,-7.0823,-7.1193,-7.1797,-7.1797,-7.1427,-7.0765,-6.9907,-6.9537,-6.9459,-6.8582,-6.7823,-6.7082,-6.605,-6.6108,-6.6595,-6.5894,-6.5543,-6.529,-6.4588,-6.3809,-6.3107,-6.2952,-6.2406,-6.1822,-6.1646,-6.1607,-6.1607,-6.1607,-6.1607,-6.1607,-6.1607,-6.1607,-6.1607,-6.1607,-6.1607,-6.1607,-6.1607,-6.1607,-6.1607,-6.1607,-6.1607,-6.1295,-6.0438,-5.9094,-5.8139,-5.7964,-5.7379,-5.6912,-5.6756,-5.6717,-5.6327,-5.5295,-5.3755,-5.2547,-5.1846,-5.1145,-5.0463,-4.982,-4.9781,-4.9781,-4.9781,-5.0424,-5.0755,-5.0747,-5.2152,-5.2835,-5.2826,-5.3591,-5.3164,-3.2162,-3.4812,-3.7164,-3.7358,-3.9361,-4.1096,0.0,0.0,-4.5475,-4.5475,-4.7676,-5.0307,-5.2742,-5.4048,-5.5314,-5.699,-5.8081,-5.9016,-5.9893,-6.0185,-6.0594,-6.1354,-6.1451,-6.149,-6.1588,-6.1607,-6.1958,-6.2835,-6.3556,-6.4393,-6.5348,-6.6127,-6.6946,-6.7842,-6.7959,-6.8368,-6.9147,-7.0024,-7.0453,-7.0453,-7.1174,-7.1563,-7.1661,-7.1661,-7.17,-7.1797,-7.1797,-7.1739,-7.1602,-7.0784,-7.0453,-7.0375,-6.9479,-6.9089,-6.8816,-6.716,-6.6615,-6.6692,-6.6595,-6.605,-6.5387,-6.529,-6.4666,-6.3828,-6.3127,-6.2835,-6.2581,-6.1822,-6.1607,-6.1607,-6.1607,-6.1607,-6.1607,-6.1607,-6.1607,-6.1607,-6.1607,-6.1607,-6.1607,-6.1607,-6.1607,-6.1607,-6.1607,-6.1607,-6.1295,-6.0438,-6.0126,-5.9737,-5.8957,-5.8782,-5.8412,-5.7652,-5.7574,-5.6912,-5.5333,-5.432,-5.3716,-5.3619,-5.3522,-5.3424,-5.3327,-5.3327,-5.3327,-5.3327,-5.3424,-5.3427,-5.3389,-5.3565,-5.3633,-5.3611,-5.4471,-5.4334,-3.5698,-3.8316,0.0,0.0,-4.3277,-4.5249,-4.5395,-4.7376,-4.9317,-4.9815,-5.1585,-5.3366,-5.4457,-5.5743,-5.6873,0.0,-5.886,-5.9873,-6.0243,-6.073,-6.1198,-6.1568,-6.1607,-6.1607,-6.1607,-6.1607,-6.1958,-6.2835,-6.3653,-6.4491,-6.5348,-6.6225,-6.7102,-6.7978,-6.8485,-6.9186,-7.0044,-7.0881,-7.1291,-7.1291,-7.1641,-7.1797,-7.1797,-7.1797,-7.1797,-7.1797,-7.1797,-7.1797,-7.1778,-7.1446,-7.1291,-7.1213,-7.0375,-7.0063,-6.9849,-6.8095,-6.7472,-6.7374,-6.6887,-6.6459,-6.6166,-6.6166,-6.5562,-6.4783,-6.4452,-6.3672,-6.2815,-6.2465,-6.1997,-6.1607,-6.1607,-6.1607,-6.1607,-6.1607,-6.1607,-6.1607,-6.1607,-6.1607,-6.1607,-6.1607,-6.1607,-6.1607,-6.1607,-6.1607,-6.1471,-6.1101,-6.0614,-6.0165,-5.9795,-5.9308,-5.8665,-5.7788,-5.7282,-5.6717,-5.6015,-5.5158,-5.4671,-5.4671,-5.4184,-5.3883,-5.3846,-5.3846,-5.3837,-5.3847,-5.3847,-5.3818,-5.3749,-5.4252,-5.4451,-5.4355,-5.5714,-5.613,-3.8489,0.0,0.0,-4.3898,-4.6208,-4.848,-4.9135,-5.0889,-5.2524,-5.3156,-5.4498,-5.5626,-5.586,-5.6873,0.0,-5.8334,-5.9484,-6.038,-6.0614,-6.1198,-6.1607,-6.1607,-6.1607,-6.1607,-6.1607,-6.1607,-6.1958,-6.2835,-6.3653,-6.4491,-6.5348,-6.6225,-6.7219,-6.8329,-6.8972,-6.9829,-7.092,-7.1505,-7.1797,-7.1797,-7.1797,-7.1797,-7.1797,-7.1797,-7.1797,-7.1797,-7.1797,-7.1797,-7.1797,-7.1797,-7.1797,-7.1739,-7.1154,-7.092,-7.0726,-6.8992,-6.8212,-6.7881,-6.7004,-6.6712,-6.6712,-6.6712,-6.6264,-6.5718,-6.5465,-6.4374,-6.3185,-6.2952,-6.227,-6.1607,-6.1607,-6.1607,-6.1607,-6.1607,-6.1607,-6.1607,-6.1607,-6.1607,-6.1607,-6.1607,-6.1607,-6.1607,-6.1607,-6.1607,-6.1607,-6.1607,-6.1062,-6.0653,-6.0653,-5.9893,-5.9113,-5.847,-5.7477,-5.6834,-5.6834,-5.6054,-5.5567,-5.5567,-5.4963,-5.4585,-5.4519,-5.4509,-5.449,-5.4477,-5.4477,-5.4436,-5.4393,-5.5249,-5.5603,-5.5513,-5.6977,-5.7602,0.0,0.0,-4.5684,-4.5722,-4.8333,-5.0901,-5.0996,-5.3075,-5.4996,-5.5025,-5.5784,-5.6697,-5.7477,-5.7672,-5.8256,-5.9951,-6.0263,-6.0594,-6.1432,-6.1588,-6.1607,-6.1607,-6.1607,-6.1607,0.0,-6.1607,-6.1958,-6.2835,-6.3653,-6.4491,-6.5348,-6.6225,-6.7491,-6.9206,-6.9284,-7.0083,-7.1739,-7.1797,-7.1797,-7.1797,-7.1797,-7.1797,-7.1797,-7.1797,-7.1797,-7.1797,-7.1797,-7.1797,-7.1797,-7.1797,-7.1797,-7.1797,-7.1778,-7.1758,-7.1563,-6.9868,-6.8738,-6.7881,-6.7004,-6.6712,-6.6712,-6.6712,-6.6673,-6.6498,-6.566,-6.4764,-6.3906,-6.3127,-6.227,-6.1607,-6.1607,-6.1607,-6.1607,-6.1607,-6.1607,-6.1607,-6.1607,-6.1607,-6.1607,-6.1607,-6.1607,-6.1607,-6.1607,-6.1607,-6.1607,-6.1607,-6.1588,-6.1568,-6.1568,-6.0808,-6.0243,-6.0224,-5.8685,-5.7652,-5.7652,-5.6912,-5.6464,-5.6464,-5.6444,-5.6396,-5.631,-5.6271,-5.622,-5.6224,-5.6161,-5.6123,-5.6121,-5.6931,-5.7295,-5.725,-5.8085,-5.8394,0.0,0.0,-4.6937,-4.8632,-5.0414,-5.1939,-5.2569,-5.3463,-5.4171,-5.4163,-5.446,-5.4782,-5.5054,-5.6067,-5.7031,-5.7624,-5.9173,-6.04,-6.0692,-6.1237,-6.1607,-6.1607,-6.1607,0.0,0.0,0.0,0.0,-6.2016,-6.3322,-6.4238,-6.453,-6.5913,-6.7491,-6.9245,-6.9303,-7.0102,-7.1778,-7.1797,-7.1797,-7.1797,-7.1797,-7.1797,-7.1797,-7.1797,-7.1797,-7.1797,-7.1797,-7.1797,-7.1797,-7.1797,-7.1797,-7.1797,-7.1797,-7.1797,-7.1602,-6.9927,-6.9108,-6.866,-6.7199,-6.6712,-6.6712,-6.6712,-6.6712,-6.6653,-6.6361,-6.566,-6.4783,-6.3945,-6.3107,-6.2328,-6.1744,-6.1607,-6.1607,-6.1607,-6.1607,-6.1607,-6.1607,-6.1607,-6.1607,-6.1607,-6.1607,-6.1607,-6.1607,-6.1607,-6.1607,-6.1607,-6.1607,-6.1607,-6.1607,-6.0847,-6.0302,-6.0302,-5.925,-5.8548,-5.8548,-5.7769,-5.7301,-5.7301,-5.6747,-5.6407,-5.6336,-5.6302,-5.6253,-5.6156,-5.6141,-5.6381,-5.6861,-5.7134,-5.7505,-5.7988,-5.8836,-5.9198,-4.4966,-4.6928,-4.8641,-5.0297,-5.1641,-5.2752,-5.3362,-5.3572,-5.3553,-5.3288,-5.3277,-5.3213,-5.2921,-5.403,-5.5169,-5.5793,-5.7828,-5.9541,-6.0176,-6.1013,-6.1558,-6.1558,-6.1568,-6.1559,0.0,0.0,0.0,-6.1607,-6.3146,-6.4101,-6.4101,-6.605,-6.7823,-6.9245,-6.9596,-7.0414,-7.1797,-7.1797,-7.1797,-7.1797,-7.1797,-7.1797,-7.1797,-7.1797,-7.1797,-7.1797,-7.1797,-7.1797,-7.1797,-7.1797,-7.1797,-7.1797,-7.1797,-7.1622,-7.1193,-6.981,-6.9089,-6.8621,-6.7199,-6.6712,-6.6712,-6.6712,-6.6712,-6.6712,-6.6712,-6.6088,-6.5231,-6.4354,-6.3517,-6.2698,-6.1822,-6.1607,-6.1607,-6.1607,-6.1607,-6.1607,-6.1607,-6.1607,-6.1607,-6.1607,-6.1607,-6.1607,-6.1607,-6.1607,-6.1607,-6.1607,-6.1607,-6.1607,-6.1607,-6.1101,-6.075,-6.075,-5.9971,-5.9464,-5.9464,-5.8676,-5.8169,-5.8169,-5.7624,-5.7251,-5.7204,-5.6847,-5.6757,-5.6975,-5.665,-5.6866,-5.7622,-5.7911,-5.8296,-5.8792,-5.9637,-5.9996,-4.5586,-4.8221,-5.0721,-5.0817,-5.2069,-5.3302,-5.3348,-5.3336,-5.3073,-5.2285,-5.2091,-5.1824,0.0,0.0,-5.2768,-5.4513,-5.6341,-5.8142,-5.9888,-6.0919,-6.1503,0.0,0.0,0.0,0.0,0.0,0.0,-6.1607,0.0,-6.4101,-6.4101,-6.6576,-6.8407,-6.9264,-7.0141,-7.0979,-7.1797,-7.1797,-7.1797,-7.1797,-7.1797,-7.1797,-7.1797,-7.1797,-7.1797,-7.1797,-7.1797,-7.1797,-7.1797,-7.1797,-7.1797,-7.1797,-7.1797,-7.131,-7.0492,-6.9615,-6.8758,-6.7881,-6.7004,-6.6712,-6.6712,-6.6712,-6.6712,-6.6712,-6.6712,-6.6127,-6.529,-6.4413,-6.3575,-6.2757,-6.188,-6.1627,-6.1607,-6.1607,-6.1607,-6.1607,-6.1607,-6.1607,-6.1607,-6.1607,-6.1607,-6.1607,-6.1607,-6.1607,-6.1607,-6.1607,-6.1607,-6.1607,-6.1607,-6.1607,-6.1607,-6.1607,-6.0867,-6.036,-6.036,-5.9572,-5.9075,-5.9065,-5.8951,-5.8862,-5.8783,-5.7866,-5.7749,-5.8566,-5.7719,-5.764,-5.845,-5.9218,-5.9639,-5.9656,-6.0439,-6.0753,-4.8644,-5.0029,-5.0991,-5.2261,-5.2935,-5.2974,-5.17,-5.0979,-5.0175,-4.8754,-4.7926,-4.743,-4.7282,0.0,0.0,-5.18,-5.4608,0.0,-5.8921,-6.0462,0.0,0.0,0.0,-6.1489,-6.1489,-6.1559,0.0,0.0,-6.3146,-6.4101,-6.4101,-6.6576,-6.8407,-6.9264,-7.0141,-7.0979,-7.1797,-7.1797,-7.1797,-7.1797,-7.1797,-7.1797,-7.1797,-7.1797,-7.1797,-7.1797,-7.1797,-7.1797,-7.1797,-7.1797,-7.1797,-7.1797,-7.1797,-7.131,-7.0492,-6.9615,-6.8758,-6.7881,-6.7004,-6.6712,-6.6712,-6.6712,-6.6712,-6.6712,-6.6712,-6.6537,-6.6186,-6.5309,-6.4452,-6.3595,-6.2776,-6.2094,-6.1607,-6.1607,-6.1607,-6.1607,-6.1607,-6.1607,-6.1607,-6.1607,-6.1607,-6.1607,-6.1607,-6.1607,-6.1607,-6.1607,-6.1607,-6.1607,-6.1607,-6.1607,-6.1607,-6.1607,-6.1393,-6.1276,-6.1276,-6.0468,-5.996,-5.99,-5.9218,-5.877,-5.8664,-5.8405,-5.8297,-5.8392,-5.8139,-5.8426,-5.9229,-5.9419,-5.9838,-6.0407,-6.0638,-6.066,-5.0164,-5.1241,-5.201,-5.2972,-5.2684,-5.1819,-5.0489,-4.9001,-4.741,-4.5727,-4.4694,0.0,-4.4136,0.0,0.0,0.0,0.0,0.0,-5.8362,-5.9901,-6.092,0.0,-6.1771,0.0,-6.2071,-6.2445,-6.2698,0.0,-6.3575,-6.4101,-6.4101,-6.6946,-6.8797,-6.9284,-7.0492,-7.133,-7.1797,-7.1797,-7.1797,-7.1797,-7.1797,-7.1797,-7.1797,-7.1797,-7.1797,-7.1797,0.0,-7.1797,-7.1797,-7.1797,-7.1797,-7.1797,-7.1797,-7.1076,-6.9966,-6.9479,-6.8504,-6.7355,-6.6868,-6.6712,-6.6712,-6.6712,-6.6712,-6.6712,-6.6712,-6.6712,-6.6517,-6.566,-6.5056,-6.4393,-6.3205,-6.2542,-6.2075,-6.1685,-6.1607,-6.1607,-6.1607,-6.1607,-6.1607,-6.1607,-6.1607,-6.1607,-6.1607,-6.1607,-6.1607,-6.1607,-6.1607,-6.1607,-6.1607,-6.1607,-6.1607,-6.1607,-6.1607,-6.1588,-6.1559,-6.1089,-6.0772,-6.0735,-6.0153,-5.9788,-5.9703,-5.9263,-5.9165,-5.9447,-5.904,-5.9226,-6.0069,-6.0046,-6.0272,-6.0685,-6.0635,-6.0552,-5.0933,-5.201,-5.3068,-5.3164,-5.1933,-5.0394,-4.9238,-4.7022,-4.4669,-4.2888,0.0,-4.1089,-4.1205,0.0,-4.4924,-4.8369,0.0,-5.4237,-5.7611,-5.9191,-6.0267,-6.105,-6.2121,-6.2807,-6.2787,-6.3584,-6.4062,-6.3945,-6.416,-6.4276,-6.4276,-6.7472,-6.9401,-6.9615,-7.1037,-7.1797,-7.1797,-7.1797,-7.1797,-7.1797,-7.1797,-7.1797,-7.1797,-7.1797,-7.1797,-7.1797,-7.1797,0.0,-7.1797,-7.1797,-7.1797,-7.1797,-7.168,-7.0687,-6.9284,-6.9167,-6.8095,-6.6712,-6.6712,-6.6712,-6.6712,-6.6712,-6.6712,-6.6712,-6.6712,-6.6712,-6.6537,-6.5796,-6.5484,-6.5075,-6.3614,-6.3069,-6.2718,-6.1958,-6.1685,-6.1607,-6.1607,-6.1607,-6.1607,-6.1607,-6.1607,-6.1607,-6.1607,-6.1607,-6.1607,-6.1607,-6.1607,-6.1607,-6.1607,-6.1607,-6.1607,-6.1607,-6.1607,-6.1578,-6.1519,-6.1433,-6.1402,-6.1366,-6.1189,-6.108,-6.1061,-6.0245,-6.0121,-6.0869,-6.0092,-6.005,-6.08,-6.0729,-6.0685,-6.066,-6.0552,-6.0444,-5.2183,-5.2452,-5.2299,-5.3029,-5.1933,-4.9913,-4.695,-4.4314,0.0,0.0,0.0,-3.6824,-3.7558,-3.9061,0.0,-4.4828,0.0,0.0,0.0,0.0,-6.0053,0.0,0.0,0.0,0.0,0.0,0.0,0.0,0.0,-6.5173,-6.5173,-6.7803,-6.9927,-7.131,-7.1641,-7.1797,-7.1797,-7.1797,-7.1797,-7.1797,-7.1797,-7.1797,-7.1797,-7.1797,-7.1797,-7.1797,-7.1797,0.0,-7.1797,-7.1797,-7.1797,-7.1719,-7.1076,-7.018,-6.9206,-6.8485,-6.7589,-6.6712,-6.6712,-6.6712,-6.6712,-6.6712,-6.6712,-6.6712,-6.6712,-6.6712,-6.6673,-6.6517,-6.5972,-6.5329,-6.5036,-6.3945,-6.2854,-6.2718,-6.2114,-6.1607,-6.1607,-6.1607,-6.1607,-6.1607,-6.1607,-6.1607,-6.1607,-6.1607,-6.1607,-6.1607,-6.1607,-6.1607,-6.1607,-6.1607,-6.1607,-6.1607,-6.1607,-6.1578,-6.1519,-6.1433,-6.1356,-6.1233,-6.1134,-6.106,-6.0935,-6.0779,-6.0715,-6.0823,-6.0646,-6.0623,-6.071,-6.0729,-6.061,-6.0444,-6.0417,-6.0285,-5.2087,-5.2222,-5.1914,-5.1895,-5.0298,-4.7952,-4.497,0.0,0.0,0.0,0.0,-3.441,-3.5284,0.0,0.0,0.0,0.0,0.0,0.0,0.0,0.0,0.0,0.0,0.0,0.0,0.0,0.0,0.0,0.0,-6.5192,-6.4744,-6.7628,-6.9868,-7.1135,-7.1583,-7.1797,-7.1797,-7.1797,-7.1797,-7.1797,-7.1797,-7.1797,-7.1797,-7.1797,-7.1797,-7.1797,-7.1797,0.0,-7.1797,-7.1797,-7.1544,-7.1135,-7.0745,-6.979,-6.8563,-6.8154,-6.7452,-6.6712,-6.6712,-6.6712,-6.6712,-6.6712,-6.6712,-6.6712,-6.6712,-6.6712,-6.6712,-6.6712,-6.64,-6.5874,-6.4958,-6.414,-6.3302,-6.2426,-6.1899,-6.1607,-6.1607,-6.1607,-6.1607,-6.1607,-6.1607,-6.1607,-6.1607,-6.1607,-6.1607,-6.1607,-6.1578,-6.1549,-6.1549,-6.1558,-6.1558,-6.1607,-6.1578,-6.1509,-6.1445,-6.1383,-6.1283,-6.1152,-6.1099,-6.0999,-6.0891,-6.0869,-6.0823,-6.08,-6.08,-6.0777,-6.0685,-6.061,-6.0525,-6.0389,-6.0256,-6.0118,-5.1375,-5.1645,-5.1491,-5.0856,-4.8779,-4.6182,-4.3451,-4.0181,0.0,0.0,-3.3564,-3.2622,-3.3506,0.0,0.0,0.0,0.0,0.0,0.0,0.0,0.0,0.0,0.0,0.0,0.0,0.0,0.0,0.0,0.0,0.0,-6.4666,-6.7433,-6.942,-7.0297,-7.092,-7.1349,-7.1544,-7.1544,-7.1622,-7.1797,-7.1797,-7.1797,-7.1797,-7.1797,-7.1797,-7.1797,-7.1622,0.0,0.0,-7.133,-7.0881,-7.0297,-7.0122,-6.9206,-6.7978,-6.7784,-6.7296,-6.6712,-6.6712,-6.6712,-6.6712,-6.6712,-6.6712,-6.6712,-6.6712,-6.6712,-6.6712,-6.6712,-6.6712,-6.6342,-6.4783,-6.4238,-6.3672,-6.1997,-6.1607,-6.1607,-6.1607,-6.1607,-6.1607,-6.1607,-6.1607,-6.1607,-6.1607,-6.1607,-6.1607,-6.1578,-6.1529,-6.1489,-6.1479,-6.1484,-6.1503,-6.1548,-6.1498,-6.1456,-6.1415,-6.1332,-6.1223,-6.1099,-6.102,-6.0955,-6.0869,-6.0823,-6.0777,-6.0777,-6.0757,-6.0729,-6.0635,-6.0525,-6.0417,-6.0332,-6.0106,-5.9994,-5.0356,-5.0798,-5.0779,-5.0721,-4.8779,-4.6028,-4.2681,0.0,0.0,-3.366,-3.1795,-3.091,-3.1775,-3.3295,-3.5309,0.0,0.0,0.0,0.0,0.0,0.0,0.0,0.0,0.0,0.0,0.0,0.0,0.0,0.0,0.0,-6.6381,-6.753,-6.8524,-6.9381,-6.9479,-6.9907,-7.0706,-7.0706,-7.1076,-7.1797,-7.1797,-7.1797,-7.1797,-7.1797,-7.1797,-7.1758,-7.1037,0.0,0.0,-6.9849,-6.9479,-6.9342,-6.8543,-6.8134,-6.79,-6.7121,-6.677,-6.6712,-6.6712,-6.6712,-6.6712,-6.6712,-6.6712,-6.6712,-6.6712,-6.6712,-6.6712,-6.6712,-6.6712,-6.6478,-6.5523,-6.4686,-6.3672,-6.1997,-6.1607,-6.1607,-6.1607,-6.1607,-6.1607,-6.1607,-6.1607,-6.1607,-6.1607,-6.1607,-6.1578,-6.1519,-6.1489,-6.1468,-6.1408,-6.1408,-6.1415,-6.1428,-6.1415,-6.1415,-6.14,-6.1275,-6.1155,-6.1022,-6.0938,-6.0869,-6.0823,-6.0734,-6.071,-6.071,-6.0655,-6.0552,-6.0417,-6.0417,-6.0285,-6.0045,-5.9994,-5.9982,-4.7932,-4.8779,-4.9029,-4.8529,-4.6855,-4.4586,-4.1681,0.0,-3.5391,-3.3333,-3.1583,-3.0513,-3.0852,-3.1884,-3.3371,-3.5406,-3.8975,-4.2557,0.0,0.0,0.0,0.0,0.0,0.0,0.0,0.0,0.0,0.0,0.0,0.0,-6.5913,-6.6751,-6.7628,-6.8485,-6.903,-6.9459,-6.981,-6.981,-6.9985,-7.0297,-7.0297,-7.0297,-7.0297,-7.0297,-7.0297,-7.0277,-6.9966,0.0,0.0,-6.944,-6.8992,-6.8485,-6.8134,-6.7686,-6.718,-6.6829,-6.6712,-6.6712,-6.6712,-6.6712,-6.6712,-6.6712,-6.6712,-6.6712,-6.6712,-6.6712,-6.6712,-6.6712,-6.6712,-6.6381,-6.4978,-6.3614,-6.2426,-6.1763,-6.1607,-6.1607,-6.1607,-6.1607,-6.1607,-6.1607,-6.1607,-6.1607,-6.1607,-6.1578,-6.1519,-6.1489,-6.1464,-6.1421,-6.1361,-6.1302,-6.1255,-6.1223,-6.1302,-6.1318,-6.1275,-6.1191,-6.108,-6.0875,-6.085,-6.08,-6.068,-6.0655,-6.0655,-6.0655,-6.0578,-6.0499,-6.0389,-6.0285,-6.0148,-5.9994,-5.995,-5.9918,-4.5297,-4.6547,-4.7163,-4.6336,-4.4836,-4.2893,0.0,0.0,-3.4641,-3.291,-3.141,-3.0398,-3.0398,-3.1318,-3.2567,-3.3986,-3.7197,-4.0602,-4.3807,0.0,0.0,0.0,0.0,0.0,0.0,0.0,0.0,0.0,0.0,0.0,0.0,-6.6127,-6.6712,-6.7589,-6.7959,-6.8388,-6.8914,-6.8914,-6.903,-6.9303,-6.9303,-6.9303,-6.9303,-6.9303,-6.9303,-6.9284,0.0,0.0,0.0,-6.8641,-6.8173,-6.7628,-6.7628,-6.7238,-6.6712,-6.6712,-6.6712,-6.6712,-6.6712,-6.6712,-6.6712,-6.6712,-6.6712,-6.6712,-6.6712,-6.6712,-6.6712,-6.6712,-6.6342,-6.5601,-6.414,-6.2679,-6.1607,-6.1607,-6.1607,-6.1607,-6.1607,-6.1607,-6.1607,-6.1607,-6.1607,-6.1607,-6.1607,-6.1549,-6.1489,-6.1468,-6.1402,-6.1337,-6.1255,-6.1171,-6.1118,-6.108,-6.1154,-6.1189,-6.1155,-6.1061,-6.0939,-6.0823,-6.0734,-6.068,-6.0578,-6.0506,-6.048,-6.048,-6.0425,-6.0342,-6.0285,-6.0148,-6.0026,-5.9982,-5.9918,-5.9885,-4.2681,-4.4355,-4.5413,-4.4528,-4.3066,-4.1162,0.0,-3.6045,-3.3737,-3.2064,-3.1006,-3.0398,-3.0398,-3.1819,-3.3272,-3.416,-3.722,-4.0409,-4.3044,0.0,0.0,0.0,0.0,0.0,0.0,0.0,0.0,0.0,0.0,0.0,0.0,-6.5874,-6.5816,-6.6692,-6.5894,-6.6264,-6.7998,-6.8017,-6.8446,-6.9303,-6.9303,-6.9303,-6.9303,-6.9303,-6.9303,0.0,0.0,0.0,0.0,-6.7082,-6.6731,-6.6712,-6.6712,-6.6712,-6.6712,-6.6712,-6.6712,-6.6712,-6.6712,-6.6712,-6.6712,-6.6712,-6.6712,-6.6712,-6.6712,-6.6712,-6.6712,-6.6712,-6.5465,-6.3945,-6.3127,-6.225,-6.1607,-6.1607,-6.1607,-6.1607,-6.1607,-6.1607,-6.1607,-6.1607,-6.1607,-6.1607,-6.1607,-6.1549,-6.1468,-6.1408,-6.1327,-6.1255,-6.1117,-6.1041,-6.1001,-6.0997,-6.0997,-6.0999,-6.1002,-6.0875,-6.08,-6.08,-6.0629,-6.0499,-6.0499,-6.0323,-6.0198,-6.0198,-6.0129,-6.0087,-5.9994,-5.9994,-5.9982,-5.9885,-5.9885,-5.9885,-3.8992,-4.0431,-4.1354,-4.1623,-4.0431,-3.8834,-3.743,-3.4732,-3.2165,-3.103,-3.0147,-2.958,-2.958,-3.0507,-3.1774,-3.3237,-3.5941,0.0,0.0,0.0,0.0,0.0,0.0,0.0,0.0,0.0,0.0,0.0,0.0,0.0,0.0,-6.5874,-6.5796,-6.6673,-6.6439,-6.6556,-6.7121,-6.7121,-6.7257,-6.753,-6.753,-6.753,-6.753,-6.753,0.0,0.0,0.0,0.0,0.0,-6.6809,-6.6712,-6.6712,-6.6712,-6.6712,-6.6712,-6.6712,-6.6712,-6.6712,-6.6712,-6.6712,-6.6712,-6.6712,-6.6712,-6.6712,-6.6712,-6.6712,-6.6576,-6.5991,-6.4997,-6.3906,-6.3107,-6.225,-6.1607,-6.1607,-6.1607,-6.1607,-6.1607,-6.1559,-6.1519,-6.1519,-6.1528,-6.1526,-6.1526,-6.1491,-6.1421,-6.1394,-6.1255,-6.1136,-6.1041,-6.096,-6.0914,-6.0781,-6.08,-6.0804,-6.0872,-6.0827,-6.071,-6.0552,-6.0472,-6.037,-6.0237,-6.0178,-6.0129,-6.0129,-6.0087,-6.0026,-5.9994,-5.995,-5.9918,-5.9885,-5.9885,-5.9885,0.0,-3.6238,-3.7007,-3.7507,-3.6622,-3.5391,-3.452,-3.2473,-3.0502,-2.9638,-2.9312,-2.9207,-2.9207,-3.0453,-3.1952,-3.3393,-3.6105,0.0,0.0,0.0,0.0,0.0,0.0,0.0,0.0,0.0,0.0,0.0,0.0,0.0,0.0,-6.6011,-6.6147,-6.6673,-6.6381,-6.6381,-6.6712,-6.6712,-6.6712,-6.6712,-6.6712,-6.6712,-6.6712,-6.6712,0.0,0.0,0.0,0.0,0.0,-6.6712,-6.6712,-6.6712,-6.6712,-6.6712,-6.6712,-6.6712,-6.6712,-6.6712,-6.6712,-6.6712,-6.6712,-6.6712,-6.6712,-6.6712,-6.6712,-6.6712,-6.6459,-6.5251,-6.453,-6.3828,-6.2669,-6.1968,-6.1549,-6.1558,-6.1558,-6.1558,-6.1558,-6.1518,-6.1456,-6.1456,-6.1452,-6.1467,-6.1467,-6.1414,-6.1352,-6.1326,-6.1171,-6.1041,-6.0981,-6.0872,-6.08,-6.071,-6.0635,-6.061,-6.0655,-6.0655,-6.0578,-6.0417,-6.0304,-6.0207,-6.0099,-6.0087,-6.0057,-6.0057,-6.0026,-5.9994,-5.9982,-5.9918,-5.9885,-5.9885,-5.9885,-5.9885,0.0,-3.2025,-3.2737,-3.2795,-3.2199,-3.1403,-3.0579,-2.9685,0.0,-2.7981,-2.8512,-2.9139,-2.9197,-3.1352,-3.3422,-3.4438,-3.7471,0.0,0.0,0.0,0.0,0.0,0.0,0.0,0.0,0.0,0.0,0.0,0.0,0.0,0.0,-6.6127,-6.6615,-6.6615,-6.5874,-6.5874,-6.6692,-6.6712,-6.6712,-6.6712,-6.6712,-6.6712,-6.6712,-6.6712,0.0,0.0,0.0,0.0,0.0,-6.6712,-6.6712,-6.6712,-6.6712,-6.6712,-6.6712,-6.6712,-6.6712,-6.6712,-6.6712,-6.6712,-6.6692,-6.6634,-6.6615,-6.6615,-6.6537,-6.6556,-6.6264,-6.4569,-6.4062,-6.3624,-6.1918,-6.1489,-6.1498,-6.1484,-6.1491,-6.1491,-6.1491,-6.1428,-6.1383,-6.1383,-6.1394,-6.1366,-6.1386,-6.1318,-6.1255,-6.121,-6.108,-6.0981,-6.0891,-6.0777,-6.0685,-6.0685,-6.0578,-6.0472,-6.0389,-6.0389,-6.0389,-6.0361,-6.0137,-6.0026,-6.0068,-6.0026,-5.9994,-5.9994,-5.9994,-5.9982,-5.9885,-5.9885,-5.9918,-5.9918,-5.9918,-5.9918,-2.7399,0.0,-3.1141,-3.1831,-3.1349,-3.0656,0.0,-2.8811,-2.7217,0.0,0.0,-2.8555,-2.9241,-3.1457,-3.3693,-3.5244,0.0,0.0,0.0,0.0,0.0,0.0,0.0,0.0,0.0,0.0,0.0,0.0,0.0,0.0,0.0,-6.5231,-6.5718,-6.5718,-6.6147,-6.6498,-6.6712,-6.6712,-6.6712,-6.6712,-6.6712,-6.6712,-6.6712,-6.6712,-6.6712,0.0,0.0,0.0,-6.6712,-6.6712,-6.6712,-6.6712,-6.6712,-6.6712,-6.6712,-6.6712,-6.6712,-6.6712,-6.6712,-6.6712,-6.6595,-6.5913,-6.5708,-6.557,-6.4908,-6.5172,-6.5474,-6.4412,-6.3623,-6.2852,-6.1725,-6.1421,-6.1408,-6.1421,-6.1428,-6.1428,-6.1428,-6.1381,-6.1298,-6.1248,-6.1255,-6.1225,-6.1171,-6.1116,-6.106,-6.1041,-6.098,-6.0914,-6.0823,-6.0734,-6.0635,-6.0499,-6.0444,-6.0342,-6.0178,-6.0237,-6.0207,-6.0087,-6.0026,-5.9994,-6.0026,-5.9994,-5.9994,-5.9994,-5.995,-5.9918,-5.9885,-5.995,-5.9982,-5.9982,-6.0026,-6.0026,-2.636,-2.7612,-2.8874,-2.9743,-2.961,-2.9313,-2.9352,0.0,0.0,0.0,0.0,0.0,-3.0425,0.0,0.0,0.0,0.0,0.0,0.0,0.0,0.0,0.0,0.0,0.0,0.0,0.0,0.0,0.0,0.0,0.0,0.0,-6.4354,-6.4803,-6.4803,-6.527,-6.5894,-6.6692,-6.6712,-6.6712,-6.6712,-6.6712,-6.6712,-6.6712,-6.6712,-6.6712,0.0,0.0,0.0,-6.6712,-6.6712,-6.6712,-6.6712,-6.6712,-6.6712,-6.6712,-6.6712,-6.6712,-6.6712,-6.6712,-6.6439,-6.5972,-6.5085,-6.4791,-6.4702,-6.42,-6.4095,-6.4056,-6.3597,-6.313,-6.2542,-6.1602,-6.1327,-6.1313,-6.1306,-6.1291,-6.1255,-6.1255,-6.1223,-6.1152,-6.1115,-6.1099,-6.1099,-6.106,-6.1021,-6.1,-6.096,-6.0914,-6.0823,-6.0757,-6.0635,-6.0525,-6.0417,-6.0285,-6.0167,-6.0057,-6.0057,-6.0057,-5.9994,-5.9963,-5.9982,-5.9994,-5.9994,-5.9994,-5.9994,-5.995,-5.9918,-5.995,-5.9963,-6.0026,-6.0057,-6.0068,-6.0087,-2.6524,-2.6901,-2.7219,-2.8087,-2.8444,-2.8597,-2.8603,0.0,0.0,0.0,0.0,0.0,0.0,0.0,0.0,0.0,0.0,0.0,0.0,0.0,0.0,0.0,0.0,0.0,0.0,0.0,0.0,0.0,0.0,0.0,0.0,-6.3478,-6.3926,-6.3926,-6.4043,-6.4803,-6.6283,-6.6439,-6.6576,-6.6712,-6.6712,-6.6712,-6.6712,-6.6712,-6.6712,-6.6712,0.0,0.0,-6.6712,-6.6712,-6.6712,-6.6692,-6.6556,-6.6498,-6.6498,-6.6361,-6.6303,-6.6303,-6.6303,-6.5816,-6.5065,-6.4187,-6.3904,-6.3862,-6.3645,-6.3074,-6.2477,-6.2444,-6.2457,-6.2288,-6.1497,-6.122,-6.1186,-6.1173,-6.1118,-6.108,-6.108,-6.1041,-6.1001,-6.0982,-6.098,-6.0976,-6.0976,-6.0976,-6.0955,-6.0869,-6.0823,-6.0734,-6.068,-6.0525,-6.0389,-6.0361,-6.0137,-5.9994,-6.0013,-5.9918,-5.9918,-5.9963,-5.9918,-5.9918,-5.9994,-5.9994,-5.9994,-5.9994,-5.995,-5.9918,-5.9994,-6.0026,-6.0057,-6.0118,-6.0148,-6.0148,-2.7248,-2.8241,-2.9023,-2.9873,-3.0714,-3.131,-3.1293,0.0,0.0,0.0,0.0,0.0,0.0,0.0,0.0,0.0,0.0,0.0,0.0,0.0,0.0,0.0,0.0,0.0,0.0,0.0,0.0,0.0,0.0,0.0,0.0,-6.262,-6.3088,-6.3088,-6.375,-6.4238,-6.451,-6.5231,-6.5972,-6.6712,-6.6712,-6.6712,-6.6712,-6.6712,-6.6712,-6.6712,0.0,-6.6712,-6.6712,-6.6712,-6.6712,-6.6634,-6.5894,-6.5601,-6.5504,-6.4764,-6.451,-6.451,-6.451,-6.4422,-6.4168,-6.3281,-6.2962,-6.2768,-6.1954,-6.1582,-6.1402,-6.1291,-6.1344,-6.1391,-6.1173,-6.1079,-6.1022,-6.102,-6.1018,-6.1018,-6.1018,-6.1018,-6.0978,-6.0935,-6.0933,-6.0911,-6.0846,-6.0823,-6.08,-6.0734,-6.071,-6.0635,-6.0472,-6.0417,-6.0313,-6.0106,-6.0026,-5.9982,-5.9918,-5.9885,-5.9885,-5.9918,-5.9885,-5.9918,-5.9994,-5.9994,-5.9994,-5.9994,-5.995,-5.9918,-5.9994,-6.0099,-6.0207,-6.0264,-6.0389,-6.0389,-2.7441,-2.856,-2.968,-3.1458,-3.2261,-3.2723,-3.3208,0.0,0.0,0.0,0.0,0.0,0.0,0.0,0.0,0.0,0.0,0.0,0.0,0.0,0.0,0.0,0.0,0.0,0.0,0.0,0.0,0.0,0.0,0.0,0.0,0.0,-6.2192,-6.2192,-6.2562,-6.2971,-6.3458,-6.3848,-6.4471,-6.5309,-6.5309,-6.5309,-6.5309,-6.5309,-6.5309,-6.5309,0.0,-6.5309,-6.5309,-6.5309,-6.5309,-6.527,-6.4861,-6.4705,-6.4647,-6.4237,-6.41,-6.4042,-6.3553,-6.3375,-6.3196,-6.2335,-6.1958,-6.1791,-6.1339,-6.1154,-6.108,-6.1021,-6.1041,-6.1079,-6.106,-6.1,-6.0938,-6.0955,-6.0933,-6.0891,-6.0891,-6.0891,-6.0869,-6.0846,-6.0846,-6.0846,-6.08,-6.08,-6.08,-6.0777,-6.0685,-6.0604,-6.0472,-6.0313,-6.0178,-6.0026,-5.9982,-5.995,-5.9885,-5.9885,-5.9885,-5.9885,-5.9885,-5.9918,-5.995,-5.995,-5.995,-5.995,-5.995,-5.9994,-6.0057,-6.0237,-6.0313,-6.0352,-6.0444,-6.0444,-2.746,-2.8608,-2.991,-3.2483,-3.3479,-3.4029,-3.4921,0.0,0.0,0.0,0.0,0.0,0.0,0.0,0.0,0.0,0.0,0.0,0.0,0.0,0.0,0.0,0.0,0.0,0.0,0.0,0.0,0.0,0.0,0.0,0.0,0.0,-6.1607,-6.1607,-6.1607,-6.1919,-6.2581,-6.2601,-6.3107,-6.4101,-6.4101,-6.4101,-6.4101,-6.4101,-6.4101,-6.4101,-6.4101,-6.4101,-6.4101,-6.4101,-6.4101,-6.4082,-6.3887,-6.3692,-6.3517,-6.3506,-6.3495,-6.3398,-6.271,-6.2439,-6.2277,-6.1594,-6.1287,-6.115,-6.1099,-6.1041,-6.0981,-6.0957,-6.0959,-6.096,-6.0957,-6.0933,-6.0888,-6.0888,-6.0846,-6.08,-6.08,-6.08,-6.08,-6.08,-6.08,-6.08,-6.08,-6.08,-6.08,-6.0777,-6.068,-6.0552,-6.0453,-6.0237,-6.0087,-6.0013,-5.9918,-5.9885,-5.9885,-5.9885,-5.9885,-5.9885,-5.9885,-5.9885,-5.9885,-5.9885,-5.9885,-5.9885,-5.9982,-6.0026,-6.0099,-6.0313,-6.0417,-6.0389,-6.0472,-6.0472,-2.7525,-2.8625,-2.9919,-3.2546,-3.4415,0.0,-3.6786,-3.8208,0.0,0.0,0.0,0.0,0.0,0.0,0.0,0.0,0.0,0.0,0.0,0.0,0.0,0.0,0.0,0.0,0.0,0.0,0.0,0.0,0.0,0.0,0.0,0.0,0.0,-6.1607,-6.1607,-6.1627,-6.1685,-6.1685,-6.2503,-6.4101,-6.4101,-6.4101,-6.4101,-6.4101,-6.4101,-6.4101,-6.4101,-6.4101,-6.4101,-6.4101,-6.4101,-6.4023,-6.3283,-6.2484,-6.1763,-6.1714,-6.1684,-6.1684,-6.1537,-6.1486,-6.1478,-6.1356,-6.1223,-6.1099,-6.1022,-6.096,-6.0891,-6.0823,-6.0823,-6.0846,-6.0891,-6.0846,-6.08,-6.08,-6.08,-6.08,-6.08,-6.08,-6.08,-6.08,-6.08,-6.08,-6.08,-6.08,-6.0777,-6.0729,-6.0655,-6.0506,-6.0246,-6.0159,-6.0057,-5.9918,-5.9885,-5.9885,-5.9885,-5.9885,-5.9885,-5.9885,-5.9885,-5.9885,-5.9885,-5.9885,-5.9885,-5.9885,-5.9982,-6.0026,-6.0099,-6.037,-6.0472,-6.0389,-6.0525,-6.0525,-2.7594,-2.8691,-2.9982,-3.2613,-3.4987,0.0,0.0,0.0,0.0,0.0,0.0,0.0,0.0,0.0,0.0,0.0,0.0,0.0,0.0,0.0,0.0,0.0,0.0,0.0,0.0,0.0,0.0,0.0,0.0,0.0,0.0,0.0,0.0,-6.1607,-6.1607,-6.1607,-6.1607,-6.1607,-6.1919,-6.2542,-6.2542,-6.2542,-6.2542,-6.2542,-6.2542,-6.2542,-6.2542,-6.2542,-6.2542,-6.2542,-6.2542,-6.2523,-6.2211,-6.188,-6.1588,-6.1518,-6.1507,-6.1476,-6.1375,-6.1337,-6.131,-6.1206,-6.1118,-6.102,-6.0959,-6.0894,-6.0823,-6.08,-6.08,-6.08,-6.0823,-6.0823,-6.08,-6.08,-6.08,-6.08,-6.08,-6.08,-6.08,-6.08,-6.08,-6.08,-6.08,-6.08,-6.08,-6.0777,-6.068,-6.0552,-6.0379,-6.0237,-6.0087,-6.0026,-6.0026,-6.0026,-6.0026,-6.0026,-5.9994,-5.9963,-5.9918,-5.9885,-5.9885,-5.9885,-5.9885,-5.9885,-5.9994,-6.0118,-6.0159,-6.0425,-6.0552,-6.0525,-6.0629,-6.0629,-2.7646,-2.8741,-3.0089,0.0,0.0,0.0,-4.0077,0.0,0.0,0.0,0.0,0.0,0.0,0.0,0.0,0.0,0.0,0.0,0.0,0.0,0.0,0.0,0.0,0.0,0.0,0.0,0.0,0.0,0.0,0.0,0.0,0.0,0.0,0.0,-6.1607,-6.1607,-6.1607,-6.1607,-6.1607,-6.1607,-6.1578,-6.1578,-6.1607,-6.1607,-6.1607,-6.1607,-6.1607,-6.1607,-6.1607,-6.1607,-6.1607,-6.1607,-6.1607,-6.1607,-6.1588,-6.1518,-6.1495,-6.1491,-6.1381,-6.1326,-6.1281,-6.1136,-6.1041,-6.0976,-6.0933,-6.0846,-6.08,-6.08,-6.08,-6.08,-6.08,-6.08,-6.08,-6.08,-6.08,-6.08,-6.08,-6.08,-6.08,-6.08,-6.08,-6.08,-6.08,-6.08,-6.08,-6.08,-6.068,-6.0578,-6.0499,-6.0313,-6.0167,-6.0129,-6.0129,-6.0129,-6.014,-6.0159,-6.0099,-6.0087,-5.9994,-5.995,-5.9885,-5.9885,-5.9885,-5.9885,-6.0026,-6.0129,-6.0159,-6.0453,-6.0578,-6.0578,-6.068,-6.0635,-2.7717,-2.8812,0.0,0.0,0.0,0.0,0.0,0.0,0.0,0.0,0.0,0.0,0.0,0.0,0.0,0.0,0.0,0.0,0.0,0.0,0.0,0.0,0.0,0.0,0.0,0.0,0.0,0.0,0.0,0.0,0.0,0.0,0.0,0.0,-6.1607,-6.1607,-6.1607,-6.1607,-6.1607,-6.1607,-6.1519,-6.1529,-6.1607,-6.1607,-6.1607,-6.1607,-6.1607,-6.1607,-6.1607,-6.1607,-6.1607,-6.1607,-6.1607,-6.1607,-6.1588,-6.1519,-6.1487,-6.1491,-6.1414,-6.1361,-6.1281,-6.1155,-6.1041,-6.0976,-6.0933,-6.0846,-6.08,-6.08,-6.08,-6.08,-6.08,-6.08,-6.08,-6.08,-6.08,-6.08,-6.08,-6.08,-6.08,-6.08,-6.08,-6.08,-6.08,-6.08,-6.08,-6.08,-6.068,-6.0578,-6.0499,-6.038,-6.0275,-6.0217,-6.0217,-6.0227,-6.0293,-6.0227,-6.0217,-6.0217,-6.0129,-6.0057,-5.9918,-5.9885,-5.9885,-5.9885,-6.0026,-6.0099,-6.0099,-6.0453,-6.0578,-6.0499,-6.0635,-6.0629,-2.8641,-3.0598,0.0,0.0,0.0,0.0,0.0,0.0,0.0,0.0,0.0,0.0,0.0,0.0,0.0,0.0,0.0,0.0,0.0,0.0,0.0,0.0,0.0,0.0,0.0,0.0,0.0,0.0,0.0,0.0,0.0,0.0,0.0,0.0,-6.1607,-6.1578,-6.1519,-6.1519,-6.1528,-6.1526,-6.1464,-6.1456,-6.1519,-6.1518,-6.1526,-6.1526,-6.1526,-6.1518,-6.1529,-6.1578,-6.1578,-6.1519,-6.1519,-6.1528,-6.1526,-6.1452,-6.1421,-6.1415,-6.1356,-6.1314,-6.1245,-6.1021,-6.0935,-6.0911,-6.0729,-6.0704,-6.0734,-6.0734,-6.0757,-6.08,-6.08,-6.08,-6.08,-6.08,-6.08,-6.08,-6.08,-6.08,-6.08,-6.08,-6.08,-6.08,-6.08,-6.08,-6.08,-6.08,-6.068,-6.0506,-6.0237,-6.0275,-6.0275,-6.0217,-6.0323,-6.0453,-6.0506,-6.0506,-6.0453,-6.0425,-6.0398,-6.0266,-6.0057,-6.0057,-6.0026,-5.9963,-6.0156,-6.0226,-6.0159,-6.0425,-6.0578,-6.0635,-6.061,-6.061,-2.9031,0.0,0.0,0.0,0.0,0.0,0.0,0.0,0.0,0.0,0.0,0.0,0.0,0.0,0.0,0.0,0.0,0.0,0.0,0.0,0.0,0.0,0.0,0.0,0.0,0.0,0.0,0.0,0.0,0.0,0.0,0.0,0.0,0.0,-6.1559,-6.1539,-6.1498,-6.1468,-6.1464,-6.146,-6.1402,-6.1369,-6.1376,-6.1447,-6.1467,-6.1467,-6.146,-6.1452,-6.1476,-6.1528,-6.1518,-6.1456,-6.1456,-6.1452,-6.1467,-6.1402,-6.1389,-6.1342,-6.1271,-6.1225,-6.1155,-6.0918,-6.085,-6.08,-6.0655,-6.0655,-6.0685,-6.0685,-6.0753,-6.08,-6.0777,-6.0777,-6.0777,-6.08,-6.08,-6.08,-6.08,-6.0777,-6.0777,-6.0777,-6.0753,-6.0729,-6.0729,-6.0729,-6.0729,-6.0729,-6.0604,-6.0444,-6.0197,-6.0264,-6.0294,-6.0266,-6.0425,-6.0578,-6.061,-6.0655,-6.0629,-6.0559,-6.0552,-6.0453,-6.0294,-6.0188,-6.0099,-6.0057,-6.0167,-6.0197,-6.0129,-6.0342,-6.0499,-6.0585,-6.0604,-6.0604,-2.9119,0.0,0.0,0.0,0.0,0.0,0.0,0.0,0.0,0.0,0.0,0.0,0.0,0.0,0.0,0.0,0.0,0.0,0.0,0.0,0.0,0.0,0.0,0.0,0.0,0.0,0.0,0.0,0.0,0.0,0.0,0.0,0.0,-6.1373,-6.147,-6.1487,-6.1491,-6.1428,-6.1383,-6.1383,-6.1298,-6.1236,-6.1184,-6.1318,-6.1386,-6.1366,-6.1389,-6.1383,-6.1415,-6.146,-6.146,-6.1383,-6.1383,-6.1375,-6.1386,-6.1366,-6.1337,-6.1252,-6.12,-6.1097,-6.0942,-6.0814,-6.0719,-6.066,-6.0578,-6.061,-6.066,-6.066,-6.0729,-6.0777,-6.0729,-6.0704,-6.0685,-6.0753,-6.0777,-6.0777,-6.0777,-6.0734,-6.0685,-6.0685,-6.0655,-6.0578,-6.0578,-6.0578,-6.0559,-6.0578,-6.0472,-6.0361,-6.0294,-6.0294,-6.0323,-6.0389,-6.0525,-6.0629,-6.0685,-6.0729,-6.071,-6.071,-6.0655,-6.0629,-6.0629,-6.0379,-6.0188,-6.0099,-6.0118,-6.0087,-5.9994,-6.0256,-6.0389,-6.0389,-6.0499,-6.048,0.0,0.0,0.0,0.0,0.0,0.0,0.0,0.0,0.0,0.0,0.0,0.0,0.0,0.0,0.0,0.0,0.0,0.0,0.0,0.0,0.0,0.0,0.0,0.0,0.0,0.0,0.0,0.0,0.0,0.0,0.0,0.0,0.0,-6.0483,-6.1145,-6.146,-6.1414,-6.1414,-6.1337,0.0,-6.1171,-6.1098,-6.106,-6.1171,-6.1225,-6.1242,-6.1236,-6.1264,-6.1332,-6.1394,-6.1381,-6.1318,-6.1248,-6.1236,-6.1245,-6.1171,-6.1116,-6.1041,-6.1002,-6.0882,-6.0727,-6.0616,-6.0468,-6.0368,-6.0246,-6.0342,-6.0472,-6.0472,-6.0552,-6.0655,-6.0629,-6.0578,-6.0552,-6.0578,-6.0604,-6.0655,-6.0655,-6.0629,-6.0629,-6.0629,-6.0578,-6.0525,-6.0525,-6.0433,-6.0387,-6.0444,-6.0417,-6.0332,-6.0167,-6.0216,-6.0294,-6.0266,-6.0453,-6.0629,-6.0685,-6.0753,-6.0777,-6.0777,-6.0757,-6.0753,-6.0753,-6.0559,-6.0351,-6.0188,-6.0226,-6.0186,-5.9994,-6.0118,-6.0207,-6.0246,-6.0237,-6.0217,0.0,0.0,0.0,0.0,0.0,0.0,0.0,0.0,0.0,0.0,0.0,0.0,0.0,0.0,0.0,0.0,0.0,0.0,0.0,0.0,0.0,0.0,0.0,0.0,0.0,0.0,0.0,0.0,0.0,0.0,0.0,-5.9396,-5.9596,-5.9522,-5.9964,-6.019,-6.0099,-6.0088,-6.0218,-6.0536,-6.0461,-6.0615,-6.0959,-6.106,-6.1099,-6.1099,-6.1098,-6.1115,-6.1169,-6.1223,-6.1223,-6.1152,-6.1115,-6.1117,-6.1099,-6.1021,-6.098,-6.0918,-6.0789,-6.0695,-6.0572,-6.0406,-6.0275,-6.0198,-6.0129,-6.0237,-6.0389,-6.0389,-6.0472,-6.0552,-6.0525,-6.0425,-6.0351,-6.0313,-6.0379,-6.0487,-6.0552,-6.0525,-6.0525,-6.0552,-6.0472,-6.0389,-6.0389,-6.0294,-6.0246,-6.0332,-6.0304,-6.0256,-6.0197,-6.0264,-6.0294,-6.0313,-6.048,-6.0629,-6.0685,-6.0757,-6.08,-6.08,-6.08,-6.08,-6.08,-6.0655,-6.048,-6.0351,-6.0256,-6.0137,-5.9994,-6.0026,-6.0087,-6.0099,-6.0099,-6.0099,0.0,0.0,0.0,0.0,0.0,0.0,0.0,0.0,0.0,0.0,0.0,0.0,0.0,0.0,0.0,0.0,0.0,0.0,0.0,0.0,0.0,0.0,0.0,0.0,0.0,0.0,0.0,0.0,0.0,0.0,-5.8529,-5.8593,-5.8603,-5.8537,-5.8668,-5.8735,-5.8651,-5.8583,-5.8876,-5.9534,-5.9474,-5.9817,-6.0445,-6.0644,-6.0841,-6.0976,-6.0981,-6.0982,-6.1001,-6.1041,-6.1021,-6.0962,-6.0962,-6.098,-6.0955,-6.0891,-6.0846,-6.08,-6.0629,-6.0499,-6.0398,-6.0217,-6.0129,-6.0087,-6.0087,-6.0197,-6.0332,-6.0332,-6.037,-6.0398,-6.0342,-6.0266,-6.0159,-6.0118,-6.014,-6.0256,-6.0398,-6.0389,-6.0342,-6.0425,-6.0332,-6.0235,-6.0235,-6.0137,-6.0118,-6.0235,-6.0167,-6.0167,-6.0245,-6.0294,-6.0352,-6.0389,-6.0525,-6.0655,-6.0704,-6.0757,-6.08,-6.08,-6.08,-6.08,-6.08,-6.068,-6.0604,-6.0552,-6.0266,-6.0087,-5.9994,-5.9994,-5.9994,-5.9963,-6.0057,-6.0026,0.0,0.0,0.0,0.0,0.0,0.0,0.0,0.0,0.0,0.0,0.0,0.0,0.0,0.0,0.0,0.0,0.0,0.0,0.0,0.0,0.0,0.0,0.0,0.0,0.0,0.0,0.0,0.0,0.0,0.0,-5.6666,-5.7261,-5.7575,-5.7495,-5.8178,-5.8509,-5.8452,-5.8374,-5.8371,-5.8506,-5.8501,-5.8553,-5.8665,-5.938,-6.0134,-6.0891,-6.0914,-6.0914,-6.0914,-6.0914,-6.0891,-6.0827,-6.0827,-6.0846,-6.0823,-6.0734,-6.0635,-6.0552,-6.0444,-6.0256,-6.0057,-6.0026,-5.9963,-5.9918,-5.9918,-5.9982,-6.0057,-6.0057,-6.0118,-6.0148,-6.0148,-6.0087,-6.0026,-6.0026,-5.9963,-5.9994,-6.0099,-6.0148,-6.0148,-6.0148,-6.0087,-6.0013,-5.995,-5.9982,-6.0026,-6.0045,-6.0186,-6.0245,-6.0148,-6.0342,-6.0444,-6.0417,-6.0559,-6.0685,-6.0685,-6.0757,-6.08,-6.08,-6.08,-6.08,-6.08,-6.0729,-6.0685,-6.066,-6.0417,-6.0186,-5.9994,-5.9994,-5.9982,-5.9918,-5.9918,-5.9918,0.0,0.0,0.0,0.0,0.0,0.0,0.0,0.0,0.0,0.0,0.0,0.0,0.0,0.0,0.0,0.0,0.0,0.0,0.0,0.0,0.0,0.0,0.0,0.0,0.0,0.0,0.0,0.0,0.0,-5.6213,-5.6145,-5.6391,-5.648,-5.6368,-5.6693,-5.6864,-5.6843,-5.6758,-5.6986,-5.7486,-5.8004,-5.8254,-5.8274,-5.8642,-5.9303,-6.0153,-6.0635,-6.0823,-6.08,-6.08,-6.0753,-6.068,-6.068,-6.068,-6.068,-6.061,-6.0525,-6.0417,-6.0285,-6.0118,-5.9994,-5.995,-5.9918,-5.9885,-5.9885,-5.995,-5.9994,-5.9994,-6.0026,-6.0057,-6.0057,-5.9994,-5.995,-5.995,-5.9918,-5.9918,-5.9982,-6.0026,-6.0057,-6.0057,-6.0026,-5.9982,-5.9918,-5.9918,-5.995,-5.9994,-6.0106,-6.0197,-6.0216,-6.0389,-6.0499,-6.0525,-6.061,-6.0729,-6.0734,-6.08,-6.08,-6.08,-6.08,-6.08,-6.08,-6.0753,-6.0685,-6.0635,-6.0499,-6.0361,-6.0226,-6.0148,-6.0057,-5.995,-5.995,-5.995,0.0,0.0,0.0,0.0,0.0,0.0,0.0,0.0,0.0,0.0,0.0,0.0,0.0,0.0,0.0,0.0,0.0,0.0,0.0,0.0,0.0,0.0,0.0,0.0,0.0,0.0,0.0,0.0,0.0,-5.5349,-5.5246,-5.5172,-5.515,-5.5212,-5.5205,-5.5293,-5.5504,-5.548,-5.5806,-5.6433,-5.7158,-5.7512,-5.7512,-5.7789,-5.8254,-5.8869,-5.9969,-6.0517,-6.0655,-6.0635,-6.0559,-6.048,-6.048,-6.0506,-6.048,-6.0453,-6.037,-6.0285,-6.0148,-6.0026,-5.9982,-5.9918,-5.9885,-5.9885,-5.9885,-5.995,-5.9963,-5.9963,-5.9963,-5.9963,-5.9963,-5.995,-5.9885,-5.9885,-5.9885,-5.9885,-5.9885,-5.995,-5.9963,-5.9963,-5.9963,-5.995,-5.9918,-5.9885,-5.9918,-5.9982,-6.0057,-6.0148,-6.0245,-6.0417,-6.0552,-6.0604,-6.068,-6.0753,-6.08,-6.08,-6.08,-6.08,-6.08,-6.08,-6.08,-6.0734,-6.0685,-6.0629,-6.0578,-6.0499,-6.0361,-6.0285,-6.0148,-6.0026,-6.0026,-5.9994,0.0,0.0,0.0,0.0,0.0,0.0,0.0,0.0,0.0,0.0,0.0,0.0,0.0,0.0,0.0,0.0,0.0,0.0,0.0,0.0,0.0,0.0,0.0,0.0,0.0,0.0,0.0,0.0,0.0,-5.3223,-5.3161,-5.3091,-5.3403,-5.4153,-5.4117,-5.4447,-5.521,-5.5339,-5.5402,-5.5384,-5.5571,-5.5638,-5.5657,-5.6506,-5.6908,-5.7043,-5.8741,-5.9862,-6.0499,-6.0444,-6.0313,-6.0129,-6.0188,-6.0217,-6.0217,-6.0217,-6.0159,-6.0118,-6.0026,-5.9982,-5.9885,-5.9885,-5.9885,-5.9885,-5.9885,-5.9885,-5.9885,-5.9885,-5.9885,-5.9885,-5.9885,-5.9885,-5.9885,-5.9885,-5.9885,-5.9885,-5.9885,-5.9885,-5.9885,-5.9885,-5.9885,-5.9885,-5.9885,-5.9885,-5.9885,-5.9885,-6.0026,-6.0099,-6.0118,-6.0379,-6.0604,-6.0604,-6.0729,-6.08,-6.08,-6.08,-6.08,-6.08,-6.08,-6.08,-6.08,-6.08,-6.0757,-6.0685,-6.0685,-6.0559,-6.0313,-6.0313,-6.0216,-6.0099,-6.0099,-6.0099,0.0,0.0,0.0,0.0,0.0,0.0,0.0,0.0,0.0,0.0,0.0,0.0,0.0,0.0,0.0,0.0,0.0,0.0,0.0,0.0,0.0,0.0,0.0,0.0,0.0,0.0,0.0,0.0,0.0,0.0,-5.282,-5.2791,-5.287,-5.3065,-5.3057,-5.343,-5.4286,-5.4394,-5.4688,-5.5176,-5.5307,-5.5383,-5.5383,-5.5758,-5.6223,-5.6778,-5.7296,-5.8322,-5.9595,-5.9568,-5.9789,-6.0099,-6.0129,-6.0129,-6.0129,-6.0129,-6.0099,-6.0026,-5.9994,-5.995,-5.9885,-5.9885,-5.9885,-5.9885,-5.9885,-5.9885,-5.9885,-5.9885,-5.9885,-5.9885,-5.9885,-5.9885,-5.9885,-5.9885,-5.9885,-5.9885,-5.9885,-5.9885,-5.9885,-5.9885,-5.9885,-5.9885,-5.9885,-5.9885,-5.9885,-5.9885,-6.0026,-6.0099,-6.0159,-6.0406,-6.0629,-6.068,-6.0753,-6.08,-6.08,-6.08,-6.08,-6.08,-6.08,-6.08,-6.08,-6.08,-6.0753,-6.0655,-6.0629,-6.0578,-6.0436,-6.0436,-6.0361,-6.0216,-6.0216,-6.0167,0.0,0.0,0.0,0.0,0.0,0.0,0.0,0.0,0.0,0.0,0.0,0.0,0.0,0.0,0.0,0.0,0.0,0.0,0.0,0.0,0.0,0.0,0.0,0.0,0.0,0.0,0.0,0.0,0.0,0.0,-5.177,-5.177,-5.1851,-5.2066,-5.2332,-5.275,-5.3338,-5.3422,-5.3848,-5.4666,-5.4775,-5.4962,-5.5229,-5.5281,-5.5613,-5.6167,-5.6061,-5.7014,-5.8587,-5.8559,-5.8967,-5.9627,-5.9627,-5.9798,-6.0026,-6.0026,-5.9994,-5.9982,-5.9982,-5.995,-5.9885,-5.9885,-5.9885,-5.9885,-5.9885,-5.9885,-5.9885,-5.9885,-5.9885,-5.9885,-5.9885,-5.9885,-5.9885,-5.9885,-5.9885,-5.9885,-5.9885,-5.9885,-5.9885,-5.9885,-5.9885,-5.9885,-5.9885,-5.9885,-5.9885,-5.9885,-6.0026,-6.0099,-6.0159,-6.0406,-6.0604,-6.068,-6.0729,-6.0777,-6.08,-6.0777,-6.0777,-6.0777,-6.0753,-6.0753,-6.0777,-6.0777,-6.071,-6.0604,-6.0604,-6.0552,-6.0472,-6.0472,-6.0417,-6.0323,-6.0323,-6.0275,0.0,0.0,0.0,0.0,0.0,0.0,0.0,0.0,0.0,0.0,0.0,0.0,0.0,0.0,0.0,0.0,0.0,0.0,0.0,0.0,0.0,0.0,0.0,0.0,0.0,0.0,0.0,0.0,0.0,-4.994,-4.986,-4.9879,-5.0277,-5.113,-5.1926,-5.2343,-5.2362,-5.2418,-5.291,-5.3765,-5.3848,-5.4313,-5.5056,-5.5094,-5.5094,-5.5094,-5.5094,-5.6026,-5.753,-5.7479,-5.7951,-5.8653,-5.8653,-5.9146,-5.9847,-5.9847,-5.9866,-5.9885,-5.9885,-5.9885,-5.9885,-5.9885,-5.9885,-5.9885,-5.9885,-5.9885,-5.9885,-5.9885,-5.9885,-5.9885,-5.9885,-5.9885,-5.9885,-5.9885,-5.9885,-5.9885,-5.9885,-5.9885,-5.9885,-5.9885,-5.9885,-5.9885,-5.9885,-5.9885,-5.9885,-5.9885,-5.9994,-6.0099,-6.0099,-6.0323,-6.0525,-6.0604,-6.068,-6.0729,-6.08,-6.0753,-6.0685,-6.0685,-6.0655,-6.0629,-6.0685,-6.0685,-6.068,-6.0604,-6.0604,-6.0525,-6.0389,-6.0389,-6.0389,-6.0389,-6.0389,-6.038,-2.3829,0.0,0.0,0.0,0.0,0.0,0.0,0.0,0.0,0.0,0.0,0.0,0.0,0.0,0.0,0.0,0.0,0.0,0.0,0.0,0.0,0.0,0.0,0.0,0.0,0.0,0.0,0.0,-4.8693,-4.9053,-4.9026,-4.9576,-4.9993,-5.0239,-5.0467,-5.0884,-5.1547,-5.1556,-5.1973,-5.2807,-5.3499,-5.3926,-5.4173,-5.4762,-5.5028,-5.5028,-5.4971,-5.5207,-5.5681,-5.6367,-5.7097,-5.7763,-5.7763,-5.8274,-5.9014,-5.9014,-5.9393,-5.9885,-5.9885,-5.9885,-5.9885,-5.9885,-5.9885,-5.9885,-5.9885,-5.9885,-5.9885,-5.9885,-5.9885,-5.9885,-5.9885,-5.9885,-5.9885,-5.9885,-5.9885,-5.9885,-5.9885,-5.9885,-5.9885,-5.9885,-5.9885,-5.9885,-5.9885,-5.9885,-5.9885,-5.9885,-5.9963,-6.0057,-6.0159,-6.0313,-6.0472,-6.0578,-6.068,-6.071,-6.0729,-6.071,-6.0685,-6.0685,-6.0655,-6.0629,-6.0685,-6.0685,-6.068,-6.0604,-6.0604,-6.0525,-6.0389,-6.0389,-6.0389,-6.0389,-6.0352,-6.0275,-2.5329,0.0,0.0,0.0,0.0,0.0,0.0,0.0,0.0,0.0,0.0,0.0,0.0,0.0,0.0,0.0,0.0,0.0,0.0,0.0,0.0,0.0,0.0,0.0,0.0,0.0,0.0,-4.7397,-4.787,-4.8306,-4.8666,-4.9121,-4.9538,-4.9879,-4.9898,-5.0126,-5.0656,-5.0656,-5.1092,-5.1907,-5.2428,-5.2874,-5.3234,-5.4069,-5.4448,-5.4467,-5.4779,-5.4901,-5.4939,-5.5492,-5.6163,-5.6891,-5.6891,-5.7403,-5.8161,-5.8161,-5.8672,-5.9393,-5.9393,-5.962,-5.9885,-5.9885,-5.9885,-5.9885,-5.9885,-5.9885,-5.9885,-5.9885,-5.9885,-5.9885,-5.9885,-5.9885,-5.9885,-5.9885,-5.9885,-5.9885,-5.9885,-5.9885,-5.9885,-5.9885,-5.9885,-5.9885,-5.9885,-5.9885,-5.9885,-5.9885,-5.995,-6.0026,-6.0118,-6.0256,-6.0408,-6.0499,-6.0604,-6.0655,-6.0655,-6.0655,-6.0655,-6.0629,-6.0578,-6.0604,-6.0655,-6.0704,-6.068,-6.0604,-6.0604,-6.0525,-6.0389,-6.0417,-6.0444,-6.0444,-6.0332,-6.0197,-2.7599,-2.7765,0.0,0.0,0.0,0.0,-2.8622,-2.9459,0.0,0.0,0.0,0.0,0.0,0.0,0.0,0.0,0.0,0.0,0.0,0.0,0.0,0.0,0.0,0.0,0.0,-4.6695,-4.7112,-4.7112,-4.7207,-4.7624,-4.8496,-4.8553,-4.8913,-4.9728,-4.9765,-4.9803,-4.9898,-4.9898,-5.0277,-5.1073,-5.1168,-5.1585,-5.2305,-5.3158,-5.3556,-5.3613,-5.4408,-5.4769,-5.4769,-5.4863,-5.5356,-5.6057,-5.6057,-5.655,-5.727,-5.727,-5.7801,-5.8559,-5.8559,-5.9089,-5.9772,-5.9772,-5.9828,-5.9885,-5.9885,-5.9885,-5.9885,-5.9885,-5.9885,-5.9885,-5.9885,-5.9885,-5.9885,-5.9885,-5.9885,-5.9885,-5.9885,-5.9885,-5.9885,-5.9885,-5.9885,-5.9918,-5.9885,-5.9885,-5.9918,-5.9885,-5.995,-5.9994,-5.9994,-6.0156,-6.0323,-6.0389,-6.0525,-6.0604,-6.0604,-6.0604,-6.0578,-6.0525,-6.0525,-6.0552,-6.0604,-6.068,-6.066,-6.0604,-6.0578,-6.0525,-6.0389,-6.0472,-6.0472,-6.0472,-6.0294,-6.0159,-2.8536,-2.8112,-2.7636,-2.7752,0.0,0.0,0.0,-2.9352,0.0,0.0,0.0,0.0,0.0,0.0,0.0,0.0,0.0,0.0,0.0,0.0,0.0,0.0,0.0,0.0,0.0,-4.5293,-4.5388,-4.5388,-4.6032,-4.679,-4.7605,-4.7643,-4.8041,-4.8894,-4.8913,-4.9235,-4.9879,-4.9898,-4.9974,-5.0144,-5.0865,-5.1282,-5.1471,-5.2286,-5.2665,-5.2703,-5.3556,-5.3935,-5.3992,-5.4636,-5.4996,-5.5148,-5.5148,-5.5678,-5.6436,-5.6436,-5.6948,-5.7649,-5.7649,-5.8218,-5.8919,-5.8919,-5.9355,-5.9885,-5.9885,-5.9885,-5.9885,-5.9885,-5.9885,-5.9885,-5.9885,-5.9885,-5.9885,-5.9885,-5.9885,-5.9885,-5.9885,-5.9885,-5.9885,-5.9885,-5.995,-5.9963,-5.9918,-5.995,-5.9982,-5.9918,-5.9918,-5.995,-5.9994,-6.0087,-6.0226,-6.0389,-6.0525,-6.0629,-6.068,-6.066,-6.066,-6.066,-6.0604,-6.0604,-6.068,-6.0685,-6.0685,-6.066,-6.0525,-6.0417,-6.0389,-6.0417,-6.0389,-6.0323,-6.0294,-6.0216,-3.076,-3.0342,-3.0053,-3.0003,0.0,0.0,0.0,0.0,0.0,0.0,0.0,0.0,0.0,0.0,0.0,0.0,0.0,0.0,0.0,0.0,0.0,0.0,0.0,0.0,0.0,-4.391,-4.3834,-4.427,-4.4706,-4.5483,-4.6733,-4.679,-4.7188,-4.8022,-4.8041,-4.8439,-4.9273,-4.9292,-4.9481,-4.9898,-5.0334,-5.0542,-5.058,-5.1433,-5.1812,-5.1888,-5.3158,-5.3707,-5.3764,-5.4579,-5.4901,-5.4901,-5.4901,-5.5166,-5.5546,-5.5546,-5.6076,-5.6796,-5.6796,-5.7346,-5.8047,-5.8047,-5.8616,-5.9298,-5.9298,-5.9563,-5.9885,-5.9885,-5.9885,-5.9885,-5.9885,-5.9885,-5.9885,-5.9885,-5.9885,-5.9885,-5.9885,-5.9885,-5.9885,-5.9885,-5.9963,-6.0026,-5.9982,-5.9994,-6.0026,-5.9982,-5.995,-5.9982,-5.9994,-6.0057,-6.0178,-6.0389,-6.0525,-6.0604,-6.0604,-6.0629,-6.061,-6.0533,-6.0578,-6.0629,-6.0655,-6.071,-6.0729,-6.0655,-6.0525,-6.0417,-6.0352,-6.0389,-6.0389,-6.0352,-6.0352,-6.0294,0.0,0.0,0.0,0.0,0.0,-3.0135,0.0,0.0,0.0,-2.8922,0.0,0.0,0.0,0.0,0.0,0.0,0.0,0.0,0.0,0.0,0.0,0.0,0.0,0.0,0.0,-4.2716,-4.2697,-4.3398,-4.3606,-4.4289,-4.5653,-4.5862,-4.6316,-4.7131,-4.7169,-4.7662,-4.8685,-4.8685,-4.9083,-4.9898,-4.9898,-4.9898,-4.9917,-5.0637,-5.0959,-5.1035,-5.257,-5.3215,-5.329,-5.4276,-5.4674,-5.4693,-5.4844,-5.4901,-5.4901,-5.4901,-5.5356,-5.5943,-5.5943,-5.6474,-5.7175,-5.7175,-5.7858,-5.8691,-5.8691,-5.926,-5.9885,-5.9885,-5.9885,-5.9885,-5.9885,-5.9885,-5.9885,-5.9885,-5.9885,-5.9885,-5.9918,-5.9918,-5.9918,-5.995,-6.0045,-6.0118,-6.0026,-6.0087,-6.0118,-6.0026,-6.0026,-6.0026,-6.0026,-6.0087,-6.0226,-6.0389,-6.0525,-6.0578,-6.0552,-6.0604,-6.0578,-6.0444,-6.0552,-6.0629,-6.0629,-6.0753,-6.0753,-6.0629,-6.0552,-6.0444,-6.0323,-6.0352,-6.0408,-6.0389,-6.0417,-6.0408,0.0,0.0,0.0,0.0,-3.1724,0.0,0.0,0.0,-2.9756,-2.9756,0.0,0.0,0.0,0.0,0.0,0.0,0.0,0.0,0.0,0.0,0.0,0.0,0.0,0.0,0.0,0.0,-4.245,-4.2545,-4.3265,-4.3777,-4.3966,-4.4668,-4.5445,-4.6297,-4.6335,-4.7093,-4.8666,-4.8685,-4.9083,-4.9898,-4.9898,-4.9898,-4.9898,-4.9993,-5.005,-5.0088,-5.1073,-5.149,-5.1623,-5.3196,-5.384,-5.3916,-5.4617,-5.4901,-5.4901,-5.4901,-5.4958,-5.5053,-5.5053,-5.5602,-5.6341,-5.6341,-5.7403,-5.8691,-5.8691,-5.926,-5.9885,-5.9885,-5.9885,-5.9885,-5.9885,-5.9885,-5.9885,-5.9885,-5.9885,-5.9918,-5.9982,-5.9994,-5.9994,-6.0087,-6.0186,-6.0235,-6.0026,-6.0156,-6.0216,-6.0118,-6.0087,-6.0087,-6.0087,-6.0216,-6.0323,-6.0472,-6.0552,-6.0629,-6.066,-6.0685,-6.0655,-6.0578,-6.0655,-6.0685,-6.0685,-6.0777,-6.0757,-6.0685,-6.0559,-6.0472,-6.0389,-6.0323,-6.0352,-6.0389,-6.0472,-6.0525,0.0,0.0,0.0,0.0,0.0,0.0,-3.1307,0.0,-2.9888,0.0,0.0,0.0,0.0,0.0,0.0,0.0,0.0,0.0,0.0,0.0,0.0,0.0,0.0,0.0,0.0,0.0,0.0,0.0,0.0,-4.192,-4.2886,-4.3758,-4.4592,-4.5426,-4.5445,-4.6032,-4.7226,-4.77,-4.8363,-4.9197,-4.9671,-4.9898,-4.9898,-4.9898,-4.9898,-4.9936,-5.0827,-5.1206,-5.13,-5.2475,-5.3252,-5.3726,-5.4067,-5.4484,-5.4901,-5.4901,-5.4901,-5.4901,-5.4901,-5.5148,-5.5527,-5.6038,-5.6683,-5.7422,-5.8407,-5.8938,-5.9298,-5.9772,-5.9885,-5.9885,-5.9885,-5.9885,-5.9885,-5.9885,-5.9885,-5.9918,-6.0013,-5.9994,-6.0026,-6.0087,-6.0216,-6.0294,-6.0226,-6.0332,-6.0389,-6.0285,-6.0313,-6.0313,-6.0285,-6.0332,-6.0389,-6.0552,-6.0578,-6.0604,-6.0655,-6.0655,-6.0604,-6.0499,-6.0578,-6.068,-6.0734,-6.08,-6.0777,-6.0685,-6.0635,-6.0559,-6.0444,-6.0472,-6.0472,-6.0525,-6.0499,-6.0525,-3.7921,0.0,0.0,0.0,0.0,0.0,0.0,0.0,0.0,0.0,0.0,0.0,0.0,0.0,0.0,0.0,0.0,0.0,0.0,0.0,0.0,0.0,0.0,0.0,0.0,0.0,0.0,0.0,0.0,-4.0214,-4.1654,-4.2981,-4.3966,-4.4554,-4.4781,-4.5312,-4.6184,-4.6771,-4.7605,-4.8704,-4.9273,-4.969,-4.9898,-4.9898,-4.9898,-4.9936,-5.0561,-5.0846,-5.0921,-5.1736,-5.2438,-5.3063,-5.3518,-5.4067,-5.4598,-5.4825,-5.4901,-5.4901,-5.4901,-5.4901,-5.4996,-5.564,-5.6,-5.6417,-5.7649,-5.8331,-5.8805,-5.9412,-5.9715,-5.9885,-5.9885,-5.9885,-5.9885,-5.9885,-5.9885,-5.9918,-5.9994,-6.0026,-6.0057,-6.0178,-6.0304,-6.038,-6.0444,-6.0472,-6.0499,-6.0472,-6.0499,-6.0499,-6.0472,-6.0444,-6.0499,-6.0629,-6.0629,-6.0629,-6.0629,-6.0629,-6.0604,-6.0499,-6.0559,-6.068,-6.08,-6.08,-6.0777,-6.0729,-6.071,-6.0635,-6.0533,-6.0578,-6.0604,-6.0629,-6.0578,-6.0604,0.0,0.0,0.0,-3.6348,0.0,0.0,0.0,0.0,-3.1156,0.0,0.0,0.0,0.0,0.0,-2.9888,-2.9869,0.0,0.0,0.0,0.0,0.0,0.0,0.0,0.0,0.0,0.0,0.0,0.0,0.0,0.0,-3.9949,-4.2337,-4.3701,-4.3739,-4.4497,-4.5312,-4.6184,-4.6222,-4.7055,-4.8685,-4.8723,-4.914,-4.9898,-4.9898,-4.9898,-4.9898,-4.9917,-4.9936,-4.9993,-5.0884,-5.1263,-5.1452,-5.3082,-5.3726,-5.384,-5.4617,-5.4901,-5.4901,-5.4901,-5.4901,-5.4901,-5.4939,-5.5508,-5.6209,-5.6266,-5.7403,-5.871,-5.8729,-5.9298,-5.9885,-5.9885,-5.9885,-5.9885,-5.9885,-5.9885,-5.995,-6.0087,-6.0118,-6.0178,-6.0444,-6.0499,-6.0525,-6.0578,-6.0552,-6.0525,-6.0578,-6.0604,-6.0604,-6.0604,-6.0604,-6.0629,-6.0685,-6.0685,-6.0685,-6.0685,-6.0685,-6.0685,-6.0685,-6.0685,-6.0729,-6.08,-6.08,-6.08,-6.08,-6.0734,-6.0685,-6.0685,-6.0629,-6.0629,-6.0685,-6.0685,-6.0729,0.0,0.0,-3.7921,-3.6538,0.0,0.0,0.0,0.0,0.0,0.0,0.0,0.0,0.0,0.0,-3.0587,-2.9983,-2.8787,0.0,0.0,0.0,0.0,0.0,0.0,0.0,0.0,0.0,0.0,0.0,-3.4946,0.0,0.0,-4.0669,-4.2545,-4.3663,-4.4478,-4.5047,-4.5331,-4.5899,-4.6468,-4.7055,-4.8155,-4.8837,-4.9102,-4.9652,-4.9898,-4.9898,-4.9898,-4.9898,-4.9917,-5.022,-5.0675,-5.1319,-5.2419,-5.3196,-5.3802,-5.4598,-5.4901,-5.4901,-5.4901,-5.4901,-5.4901,-5.4901,-5.511,-5.5451,-5.6019,-5.6588,-5.727,-5.8388,-5.89,-5.9222,-5.9753,-5.9885,-5.9885,-5.9885,-5.9885,-5.995,-6.0068,-6.0129,-6.0217,-6.0472,-6.0525,-6.0578,-6.0635,-6.0655,-6.0635,-6.066,-6.0685,-6.0729,-6.066,-6.068,-6.066,-6.0685,-6.0685,-6.0685,-6.0685,-6.068,-6.0635,-6.0685,-6.0685,-6.0734,-6.08,-6.08,-6.08,-6.08,-6.0777,-6.0777,-6.0777,-6.0753,-6.0734,-6.0777,-6.0777,-6.0777,-4.1635,-4.0631,0.0,-3.7864,-3.6651,0.0,-3.3676,0.0,0.0,0.0,0.0,0.0,0.0,0.0,-3.1023,-3.0438,-2.8749,-2.7096,0.0,0.0,0.0,0.0,0.0,0.0,0.0,0.0,-3.0454,-3.0758,0.0,0.0,0.0,0.0,-4.1522,-4.3189,-4.4042,-4.4611,-4.4895,-4.5464,-4.588,-4.6222,-4.7567,-4.8382,-4.8723,-4.9519,-4.9898,-4.9898,-4.9898,-4.9898,-4.9898,-4.9898,-5.022,-5.0827,-5.1661,-5.2494,-5.3366,-5.4484,-5.4901,-5.4901,-5.4901,-5.4901,-5.4901,-5.4901,-5.4901,-5.4996,-5.5564,-5.5943,-5.6417,-5.7497,-5.8237,-5.8805,-5.9349,-5.9709,-5.9885,-5.9918,-5.9918,-5.995,-6.0068,-6.0159,-6.0275,-6.048,-6.0604,-6.0655,-6.071,-6.0753,-6.0753,-6.0753,-6.0777,-6.08,-6.0734,-6.0753,-6.0753,-6.0753,-6.0753,-6.0753,-6.0753,-6.0704,-6.0704,-6.0734,-6.0753,-6.0734,-6.08,-6.08,-6.08,-6.08,-6.08,-6.08,-6.08,-6.08,-6.08,-6.08,-6.08,-6.08]}]]